<?xml version="1.0" encoding="UTF-8" standalone="no" ?>
<gpx xmlns="http://www.topografix.com/GPX/1/1" xmlns:xsi="http://www.w3.org/2001/XMLSchema-instance" xsi:schemaLocation="http://www.topografix.com/GPX/1/1 http://www.topografix.com/GPX/1/1/gpx.xsd" version="1.1" creator="VisuGPX - https://www.visugpx.com">
  <metadata>
    <name>Essertine en Donzy</name>
    <desc><![CDATA[Parcours à l'ouest d'Essertine en Donzy]]></desc>
  </metadata>
  <trk>
    <name><![CDATA[Essertine en Donzy_1]]></name>
    <trkseg>
      <trkpt lat="45.75465" lon="4.34343">
        <ele>563.132</ele>
        <time>2018-06-04T12:39:59Z</time>
      </trkpt>
      <trkpt lat="45.75464" lon="4.34342">
        <ele>555.805</ele>
        <time>2018-06-04T12:40:05Z</time>
      </trkpt>
      <trkpt lat="45.75464" lon="4.34342">
        <ele>556.41</ele>
        <time>2018-06-04T12:40:10Z</time>
      </trkpt>
      <trkpt lat="45.75468" lon="4.34332">
        <ele>549.62</ele>
        <time>2018-06-04T12:40:16Z</time>
      </trkpt>
      <trkpt lat="45.75471" lon="4.34322">
        <ele>554.596</ele>
        <time>2018-06-04T12:40:21Z</time>
      </trkpt>
      <trkpt lat="45.75473" lon="4.3431">
        <ele>557.733</ele>
        <time>2018-06-04T12:40:26Z</time>
      </trkpt>
      <trkpt lat="45.75473" lon="4.3431">
        <ele>554.53</ele>
        <time>2018-06-04T12:40:31Z</time>
      </trkpt>
      <trkpt lat="45.75478" lon="4.34294">
        <ele>554.91</ele>
        <time>2018-06-04T12:40:37Z</time>
      </trkpt>
      <trkpt lat="45.7548" lon="4.34286">
        <ele>555.392</ele>
        <time>2018-06-04T12:40:43Z</time>
      </trkpt>
      <trkpt lat="45.75483" lon="4.34277">
        <ele>555.559</ele>
        <time>2018-06-04T12:40:49Z</time>
      </trkpt>
      <trkpt lat="45.75486" lon="4.34269">
        <ele>555.574</ele>
        <time>2018-06-04T12:40:55Z</time>
      </trkpt>
      <trkpt lat="45.7549" lon="4.34259">
        <ele>555.556</ele>
        <time>2018-06-04T12:41:01Z</time>
      </trkpt>
      <trkpt lat="45.75491" lon="4.34248">
        <ele>554.652</ele>
        <time>2018-06-04T12:41:07Z</time>
      </trkpt>
      <trkpt lat="45.75495" lon="4.34237">
        <ele>553.894</ele>
        <time>2018-06-04T12:41:13Z</time>
      </trkpt>
      <trkpt lat="45.75497" lon="4.34231">
        <ele>553.273</ele>
        <time>2018-06-04T12:41:18Z</time>
      </trkpt>
      <trkpt lat="45.75499" lon="4.34221">
        <ele>552.213</ele>
        <time>2018-06-04T12:41:24Z</time>
      </trkpt>
      <trkpt lat="45.75502" lon="4.34214">
        <ele>551.798</ele>
        <time>2018-06-04T12:41:29Z</time>
      </trkpt>
      <trkpt lat="45.75505" lon="4.34203">
        <ele>551.545</ele>
        <time>2018-06-04T12:41:34Z</time>
      </trkpt>
      <trkpt lat="45.75507" lon="4.34195">
        <ele>551.328</ele>
        <time>2018-06-04T12:41:40Z</time>
      </trkpt>
      <trkpt lat="45.7551" lon="4.34184">
        <ele>550.757</ele>
        <time>2018-06-04T12:41:45Z</time>
      </trkpt>
      <trkpt lat="45.75516" lon="4.34176">
        <ele>549.341</ele>
        <time>2018-06-04T12:41:51Z</time>
      </trkpt>
      <trkpt lat="45.7552" lon="4.34169">
        <ele>548.285</ele>
        <time>2018-06-04T12:41:56Z</time>
      </trkpt>
      <trkpt lat="45.75525" lon="4.34161">
        <ele>546.673</ele>
        <time>2018-06-04T12:42:02Z</time>
      </trkpt>
      <trkpt lat="45.75529" lon="4.34154">
        <ele>545.242</ele>
        <time>2018-06-04T12:42:07Z</time>
      </trkpt>
      <trkpt lat="45.75532" lon="4.34144">
        <ele>543.112</ele>
        <time>2018-06-04T12:42:13Z</time>
      </trkpt>
      <trkpt lat="45.75536" lon="4.34134">
        <ele>541.708</ele>
        <time>2018-06-04T12:42:18Z</time>
      </trkpt>
      <trkpt lat="45.7554" lon="4.34125">
        <ele>540.15</ele>
        <time>2018-06-04T12:42:24Z</time>
      </trkpt>
      <trkpt lat="45.75543" lon="4.3412">
        <ele>539.203</ele>
        <time>2018-06-04T12:42:29Z</time>
      </trkpt>
      <trkpt lat="45.75548" lon="4.34113">
        <ele>538.104</ele>
        <time>2018-06-04T12:42:35Z</time>
      </trkpt>
      <trkpt lat="45.75551" lon="4.34106">
        <ele>537.709</ele>
        <time>2018-06-04T12:42:40Z</time>
      </trkpt>
      <trkpt lat="45.75559" lon="4.34097">
        <ele>537.046</ele>
        <time>2018-06-04T12:42:46Z</time>
      </trkpt>
      <trkpt lat="45.75561" lon="4.34087">
        <ele>535.763</ele>
        <time>2018-06-04T12:42:51Z</time>
      </trkpt>
      <trkpt lat="45.75562" lon="4.3408">
        <ele>534.378</ele>
        <time>2018-06-04T12:42:56Z</time>
      </trkpt>
      <trkpt lat="45.75565" lon="4.34076">
        <ele>533.473</ele>
        <time>2018-06-04T12:43:02Z</time>
      </trkpt>
      <trkpt lat="45.75566" lon="4.34071">
        <ele>532.625</ele>
        <time>2018-06-04T12:43:07Z</time>
      </trkpt>
      <trkpt lat="45.75568" lon="4.34061">
        <ele>532.211</ele>
        <time>2018-06-04T12:43:12Z</time>
      </trkpt>
      <trkpt lat="45.7557" lon="4.34054">
        <ele>532.055</ele>
        <time>2018-06-04T12:43:18Z</time>
      </trkpt>
      <trkpt lat="45.75573" lon="4.34046">
        <ele>531.774</ele>
        <time>2018-06-04T12:43:23Z</time>
      </trkpt>
      <trkpt lat="45.75576" lon="4.34036">
        <ele>531.538</ele>
        <time>2018-06-04T12:43:29Z</time>
      </trkpt>
      <trkpt lat="45.75578" lon="4.34027">
        <ele>530.674</ele>
        <time>2018-06-04T12:43:35Z</time>
      </trkpt>
      <trkpt lat="45.7558" lon="4.34016">
        <ele>529.718</ele>
        <time>2018-06-04T12:43:41Z</time>
      </trkpt>
      <trkpt lat="45.75583" lon="4.34004">
        <ele>528.74</ele>
        <time>2018-06-04T12:43:47Z</time>
      </trkpt>
      <trkpt lat="45.75586" lon="4.33997">
        <ele>527.98</ele>
        <time>2018-06-04T12:43:52Z</time>
      </trkpt>
      <trkpt lat="45.75588" lon="4.33987">
        <ele>527.073</ele>
        <time>2018-06-04T12:43:58Z</time>
      </trkpt>
      <trkpt lat="45.7559" lon="4.33976">
        <ele>526.126</ele>
        <time>2018-06-04T12:44:03Z</time>
      </trkpt>
      <trkpt lat="45.75598" lon="4.3397">
        <ele>524.827</ele>
        <time>2018-06-04T12:44:09Z</time>
      </trkpt>
      <trkpt lat="45.75603" lon="4.33963">
        <ele>524.388</ele>
        <time>2018-06-04T12:44:14Z</time>
      </trkpt>
      <trkpt lat="45.75607" lon="4.33959">
        <ele>523.654</ele>
        <time>2018-06-04T12:44:19Z</time>
      </trkpt>
      <trkpt lat="45.75613" lon="4.33953">
        <ele>522.388</ele>
        <time>2018-06-04T12:44:25Z</time>
      </trkpt>
      <trkpt lat="45.75618" lon="4.33949">
        <ele>521.324</ele>
        <time>2018-06-04T12:44:31Z</time>
      </trkpt>
      <trkpt lat="45.75624" lon="4.33941">
        <ele>520.977</ele>
        <time>2018-06-04T12:44:37Z</time>
      </trkpt>
      <trkpt lat="45.7563" lon="4.33934">
        <ele>520.627</ele>
        <time>2018-06-04T12:44:42Z</time>
      </trkpt>
      <trkpt lat="45.75635" lon="4.3393">
        <ele>519.998</ele>
        <time>2018-06-04T12:44:48Z</time>
      </trkpt>
      <trkpt lat="45.75641" lon="4.33925">
        <ele>519.117</ele>
        <time>2018-06-04T12:44:54Z</time>
      </trkpt>
      <trkpt lat="45.75646" lon="4.33916">
        <ele>518.644</ele>
        <time>2018-06-04T12:45:00Z</time>
      </trkpt>
      <trkpt lat="45.75651" lon="4.33905">
        <ele>517.941</ele>
        <time>2018-06-04T12:45:06Z</time>
      </trkpt>
      <trkpt lat="45.75653" lon="4.33897">
        <ele>517.907</ele>
        <time>2018-06-04T12:45:12Z</time>
      </trkpt>
      <trkpt lat="45.75654" lon="4.3389">
        <ele>517.961</ele>
        <time>2018-06-04T12:45:18Z</time>
      </trkpt>
      <trkpt lat="45.75654" lon="4.33882">
        <ele>518.322</ele>
        <time>2018-06-04T12:45:24Z</time>
      </trkpt>
      <trkpt lat="45.75656" lon="4.33871">
        <ele>518.517</ele>
        <time>2018-06-04T12:45:30Z</time>
      </trkpt>
      <trkpt lat="45.7566" lon="4.3386">
        <ele>519.143</ele>
        <time>2018-06-04T12:45:36Z</time>
      </trkpt>
      <trkpt lat="45.75662" lon="4.33852">
        <ele>520.219</ele>
        <time>2018-06-04T12:45:42Z</time>
      </trkpt>
      <trkpt lat="45.75662" lon="4.33851">
        <ele>520.912</ele>
        <time>2018-06-04T12:45:47Z</time>
      </trkpt>
      <trkpt lat="45.75663" lon="4.33848">
        <ele>521.245</ele>
        <time>2018-06-04T12:45:52Z</time>
      </trkpt>
      <trkpt lat="45.7567" lon="4.33837">
        <ele>521.377</ele>
        <time>2018-06-04T12:45:58Z</time>
      </trkpt>
      <trkpt lat="45.75675" lon="4.33829">
        <ele>521.895</ele>
        <time>2018-06-04T12:46:03Z</time>
      </trkpt>
      <trkpt lat="45.75678" lon="4.33827">
        <ele>522.59</ele>
        <time>2018-06-04T12:46:08Z</time>
      </trkpt>
      <trkpt lat="45.75684" lon="4.33822">
        <ele>523.508</ele>
        <time>2018-06-04T12:46:13Z</time>
      </trkpt>
      <trkpt lat="45.75692" lon="4.33817">
        <ele>524.191</ele>
        <time>2018-06-04T12:46:19Z</time>
      </trkpt>
      <trkpt lat="45.75695" lon="4.33812">
        <ele>524.709</ele>
        <time>2018-06-04T12:46:24Z</time>
      </trkpt>
      <trkpt lat="45.75704" lon="4.33805">
        <ele>524.933</ele>
        <time>2018-06-04T12:46:30Z</time>
      </trkpt>
      <trkpt lat="45.75712" lon="4.33803">
        <ele>524.933</ele>
        <time>2018-06-04T12:46:36Z</time>
      </trkpt>
      <trkpt lat="45.75716" lon="4.33802">
        <ele>524.959</ele>
        <time>2018-06-04T12:46:41Z</time>
      </trkpt>
      <trkpt lat="45.75721" lon="4.33803">
        <ele>525.307</ele>
        <time>2018-06-04T12:46:46Z</time>
      </trkpt>
      <trkpt lat="45.75726" lon="4.33805">
        <ele>525.523</ele>
        <time>2018-06-04T12:46:51Z</time>
      </trkpt>
      <trkpt lat="45.75733" lon="4.33803">
        <ele>526</ele>
        <time>2018-06-04T12:46:57Z</time>
      </trkpt>
      <trkpt lat="45.7574" lon="4.338">
        <ele>526.536</ele>
        <time>2018-06-04T12:47:02Z</time>
      </trkpt>
      <trkpt lat="45.75744" lon="4.33798">
        <ele>527.303</ele>
        <time>2018-06-04T12:47:07Z</time>
      </trkpt>
      <trkpt lat="45.75749" lon="4.33794">
        <ele>528.008</ele>
        <time>2018-06-04T12:47:13Z</time>
      </trkpt>
      <trkpt lat="45.75754" lon="4.33791">
        <ele>528.364</ele>
        <time>2018-06-04T12:47:18Z</time>
      </trkpt>
      <trkpt lat="45.75757" lon="4.3379">
        <ele>528.706</ele>
        <time>2018-06-04T12:47:23Z</time>
      </trkpt>
      <trkpt lat="45.75763" lon="4.33785">
        <ele>529.506</ele>
        <time>2018-06-04T12:47:29Z</time>
      </trkpt>
      <trkpt lat="45.7577" lon="4.33781">
        <ele>530.372</ele>
        <time>2018-06-04T12:47:35Z</time>
      </trkpt>
      <trkpt lat="45.75776" lon="4.33778">
        <ele>531.042</ele>
        <time>2018-06-04T12:47:41Z</time>
      </trkpt>
      <trkpt lat="45.75782" lon="4.33776">
        <ele>531.526</ele>
        <time>2018-06-04T12:47:46Z</time>
      </trkpt>
      <trkpt lat="45.75786" lon="4.33773">
        <ele>532.155</ele>
        <time>2018-06-04T12:47:52Z</time>
      </trkpt>
      <trkpt lat="45.75792" lon="4.3377">
        <ele>532.977</ele>
        <time>2018-06-04T12:47:57Z</time>
      </trkpt>
      <trkpt lat="45.75797" lon="4.33766">
        <ele>533.821</ele>
        <time>2018-06-04T12:48:03Z</time>
      </trkpt>
      <trkpt lat="45.75803" lon="4.33762">
        <ele>534.531</ele>
        <time>2018-06-04T12:48:08Z</time>
      </trkpt>
      <trkpt lat="45.75807" lon="4.33759">
        <ele>535.436</ele>
        <time>2018-06-04T12:48:14Z</time>
      </trkpt>
      <trkpt lat="45.75812" lon="4.33755">
        <ele>536.079</ele>
        <time>2018-06-04T12:48:19Z</time>
      </trkpt>
      <trkpt lat="45.75817" lon="4.33751">
        <ele>536.774</ele>
        <time>2018-06-04T12:48:25Z</time>
      </trkpt>
      <trkpt lat="45.75821" lon="4.33745">
        <ele>537.698</ele>
        <time>2018-06-04T12:48:31Z</time>
      </trkpt>
      <trkpt lat="45.75825" lon="4.33738">
        <ele>538.6</ele>
        <time>2018-06-04T12:48:36Z</time>
      </trkpt>
      <trkpt lat="45.75828" lon="4.3374">
        <ele>539.436</ele>
        <time>2018-06-04T12:48:42Z</time>
      </trkpt>
      <trkpt lat="45.7583" lon="4.3374">
        <ele>539.54</ele>
        <time>2018-06-04T12:48:47Z</time>
      </trkpt>
      <trkpt lat="45.75831" lon="4.33739">
        <ele>539.47</ele>
        <time>2018-06-04T12:48:53Z</time>
      </trkpt>
      <trkpt lat="45.7583" lon="4.33741">
        <ele>539.395</ele>
        <time>2018-06-04T12:48:58Z</time>
      </trkpt>
      <trkpt lat="45.75827" lon="4.33742">
        <ele>539.357</ele>
        <time>2018-06-04T12:49:04Z</time>
      </trkpt>
      <trkpt lat="45.75826" lon="4.33741">
        <ele>539.87</ele>
        <time>2018-06-04T12:49:10Z</time>
      </trkpt>
      <trkpt lat="45.75825" lon="4.33741">
        <ele>541.036</ele>
        <time>2018-06-04T12:49:15Z</time>
      </trkpt>
      <trkpt lat="45.75824" lon="4.33741">
        <ele>541.09</ele>
        <time>2018-06-04T12:49:20Z</time>
      </trkpt>
      <trkpt lat="45.75824" lon="4.33742">
        <ele>541.232</ele>
        <time>2018-06-04T12:49:25Z</time>
      </trkpt>
      <trkpt lat="45.75825" lon="4.33741">
        <ele>541.424</ele>
        <time>2018-06-04T12:49:31Z</time>
      </trkpt>
      <trkpt lat="45.75826" lon="4.33743">
        <ele>541.445</ele>
        <time>2018-06-04T12:49:37Z</time>
      </trkpt>
      <trkpt lat="45.75826" lon="4.33743">
        <ele>541.697</ele>
        <time>2018-06-04T12:49:43Z</time>
      </trkpt>
      <trkpt lat="45.75825" lon="4.33745">
        <ele>542.01</ele>
        <time>2018-06-04T12:49:48Z</time>
      </trkpt>
      <trkpt lat="45.75826" lon="4.33744">
        <ele>542.214</ele>
        <time>2018-06-04T12:49:54Z</time>
      </trkpt>
      <trkpt lat="45.75826" lon="4.33743">
        <ele>542.315</ele>
        <time>2018-06-04T12:49:59Z</time>
      </trkpt>
      <trkpt lat="45.75827" lon="4.33742">
        <ele>542.564</ele>
        <time>2018-06-04T12:50:04Z</time>
      </trkpt>
      <trkpt lat="45.75833" lon="4.33742">
        <ele>542.746</ele>
        <time>2018-06-04T12:50:10Z</time>
      </trkpt>
      <trkpt lat="45.75836" lon="4.33739">
        <ele>542.919</ele>
        <time>2018-06-04T12:50:15Z</time>
      </trkpt>
      <trkpt lat="45.75839" lon="4.33737">
        <ele>543.073</ele>
        <time>2018-06-04T12:50:21Z</time>
      </trkpt>
      <trkpt lat="45.75844" lon="4.33735">
        <ele>543.388</ele>
        <time>2018-06-04T12:50:26Z</time>
      </trkpt>
      <trkpt lat="45.7585" lon="4.33731">
        <ele>543.772</ele>
        <time>2018-06-04T12:50:32Z</time>
      </trkpt>
      <trkpt lat="45.75853" lon="4.33729">
        <ele>544.458</ele>
        <time>2018-06-04T12:50:38Z</time>
      </trkpt>
      <trkpt lat="45.75858" lon="4.33722">
        <ele>545.019</ele>
        <time>2018-06-04T12:50:44Z</time>
      </trkpt>
      <trkpt lat="45.75862" lon="4.33719">
        <ele>545.335</ele>
        <time>2018-06-04T12:50:49Z</time>
      </trkpt>
      <trkpt lat="45.75866" lon="4.33714">
        <ele>545.598</ele>
        <time>2018-06-04T12:50:54Z</time>
      </trkpt>
      <trkpt lat="45.75869" lon="4.33711">
        <ele>545.987</ele>
        <time>2018-06-04T12:51:00Z</time>
      </trkpt>
      <trkpt lat="45.75873" lon="4.33708">
        <ele>546.308</ele>
        <time>2018-06-04T12:51:06Z</time>
      </trkpt>
      <trkpt lat="45.75876" lon="4.33706">
        <ele>546.979</ele>
        <time>2018-06-04T12:51:12Z</time>
      </trkpt>
      <trkpt lat="45.75882" lon="4.33701">
        <ele>547.477</ele>
        <time>2018-06-04T12:51:18Z</time>
      </trkpt>
      <trkpt lat="45.75887" lon="4.33697">
        <ele>547.778</ele>
        <time>2018-06-04T12:51:23Z</time>
      </trkpt>
      <trkpt lat="45.7589" lon="4.33694">
        <ele>548.241</ele>
        <time>2018-06-04T12:51:29Z</time>
      </trkpt>
      <trkpt lat="45.75893" lon="4.3369">
        <ele>548.457</ele>
        <time>2018-06-04T12:51:34Z</time>
      </trkpt>
      <trkpt lat="45.75897" lon="4.33684">
        <ele>548.828</ele>
        <time>2018-06-04T12:51:40Z</time>
      </trkpt>
      <trkpt lat="45.759" lon="4.3368">
        <ele>549.458</ele>
        <time>2018-06-04T12:51:46Z</time>
      </trkpt>
      <trkpt lat="45.75903" lon="4.33678">
        <ele>549.942</ele>
        <time>2018-06-04T12:51:51Z</time>
      </trkpt>
      <trkpt lat="45.75906" lon="4.33677">
        <ele>550.424</ele>
        <time>2018-06-04T12:51:56Z</time>
      </trkpt>
      <trkpt lat="45.7591" lon="4.33674">
        <ele>551.298</ele>
        <time>2018-06-04T12:52:02Z</time>
      </trkpt>
      <trkpt lat="45.75914" lon="4.33672">
        <ele>552.09</ele>
        <time>2018-06-04T12:52:08Z</time>
      </trkpt>
      <trkpt lat="45.75915" lon="4.33669">
        <ele>552.884</ele>
        <time>2018-06-04T12:52:14Z</time>
      </trkpt>
      <trkpt lat="45.75921" lon="4.33666">
        <ele>553.491</ele>
        <time>2018-06-04T12:52:20Z</time>
      </trkpt>
      <trkpt lat="45.75923" lon="4.33664">
        <ele>553.937</ele>
        <time>2018-06-04T12:52:25Z</time>
      </trkpt>
      <trkpt lat="45.75928" lon="4.33658">
        <ele>554.433</ele>
        <time>2018-06-04T12:52:30Z</time>
      </trkpt>
      <trkpt lat="45.75933" lon="4.33654">
        <ele>555.369</ele>
        <time>2018-06-04T12:52:36Z</time>
      </trkpt>
      <trkpt lat="45.75938" lon="4.33646">
        <ele>556.369</ele>
        <time>2018-06-04T12:52:42Z</time>
      </trkpt>
      <trkpt lat="45.75941" lon="4.33644">
        <ele>557.176</ele>
        <time>2018-06-04T12:52:47Z</time>
      </trkpt>
      <trkpt lat="45.75943" lon="4.33642">
        <ele>557.491</ele>
        <time>2018-06-04T12:52:52Z</time>
      </trkpt>
      <trkpt lat="45.75947" lon="4.33638">
        <ele>557.374</ele>
        <time>2018-06-04T12:52:58Z</time>
      </trkpt>
      <trkpt lat="45.75952" lon="4.33636">
        <ele>557.672</ele>
        <time>2018-06-04T12:53:04Z</time>
      </trkpt>
      <trkpt lat="45.75956" lon="4.33631">
        <ele>558.171</ele>
        <time>2018-06-04T12:53:10Z</time>
      </trkpt>
      <trkpt lat="45.7596" lon="4.33628">
        <ele>558.855</ele>
        <time>2018-06-04T12:53:15Z</time>
      </trkpt>
      <trkpt lat="45.75966" lon="4.33621">
        <ele>559.511</ele>
        <time>2018-06-04T12:53:21Z</time>
      </trkpt>
      <trkpt lat="45.75972" lon="4.33618">
        <ele>559.895</ele>
        <time>2018-06-04T12:53:27Z</time>
      </trkpt>
      <trkpt lat="45.75978" lon="4.33616">
        <ele>560.3</ele>
        <time>2018-06-04T12:53:33Z</time>
      </trkpt>
      <trkpt lat="45.75983" lon="4.33609">
        <ele>560.794</ele>
        <time>2018-06-04T12:53:39Z</time>
      </trkpt>
      <trkpt lat="45.75987" lon="4.33605">
        <ele>561.774</ele>
        <time>2018-06-04T12:53:45Z</time>
      </trkpt>
      <trkpt lat="45.75992" lon="4.33602">
        <ele>563.101</ele>
        <time>2018-06-04T12:53:51Z</time>
      </trkpt>
      <trkpt lat="45.75995" lon="4.33599">
        <ele>563.949</ele>
        <time>2018-06-04T12:53:57Z</time>
      </trkpt>
      <trkpt lat="45.76001" lon="4.33594">
        <ele>564.784</ele>
        <time>2018-06-04T12:54:03Z</time>
      </trkpt>
      <trkpt lat="45.76007" lon="4.33589">
        <ele>565.678</ele>
        <time>2018-06-04T12:54:09Z</time>
      </trkpt>
      <trkpt lat="45.76011" lon="4.33587">
        <ele>566.423</ele>
        <time>2018-06-04T12:54:15Z</time>
      </trkpt>
      <trkpt lat="45.76015" lon="4.33586">
        <ele>567.348</ele>
        <time>2018-06-04T12:54:21Z</time>
      </trkpt>
      <trkpt lat="45.76021" lon="4.33581">
        <ele>567.547</ele>
        <time>2018-06-04T12:54:27Z</time>
      </trkpt>
      <trkpt lat="45.76025" lon="4.33578">
        <ele>567.653</ele>
        <time>2018-06-04T12:54:33Z</time>
      </trkpt>
      <trkpt lat="45.7603" lon="4.33572">
        <ele>567.533</ele>
        <time>2018-06-04T12:54:38Z</time>
      </trkpt>
      <trkpt lat="45.76035" lon="4.33566">
        <ele>567.5</ele>
        <time>2018-06-04T12:54:44Z</time>
      </trkpt>
      <trkpt lat="45.76038" lon="4.33563">
        <ele>567.508</ele>
        <time>2018-06-04T12:54:50Z</time>
      </trkpt>
      <trkpt lat="45.76045" lon="4.33559">
        <ele>567.534</ele>
        <time>2018-06-04T12:54:56Z</time>
      </trkpt>
      <trkpt lat="45.76051" lon="4.33554">
        <ele>568.089</ele>
        <time>2018-06-04T12:55:02Z</time>
      </trkpt>
      <trkpt lat="45.76054" lon="4.3355">
        <ele>568.431</ele>
        <time>2018-06-04T12:55:07Z</time>
      </trkpt>
      <trkpt lat="45.7606" lon="4.33544">
        <ele>568.952</ele>
        <time>2018-06-04T12:55:13Z</time>
      </trkpt>
      <trkpt lat="45.76063" lon="4.33539">
        <ele>569.185</ele>
        <time>2018-06-04T12:55:18Z</time>
      </trkpt>
      <trkpt lat="45.76069" lon="4.33535">
        <ele>569.449</ele>
        <time>2018-06-04T12:55:23Z</time>
      </trkpt>
      <trkpt lat="45.76072" lon="4.33531">
        <ele>569.537</ele>
        <time>2018-06-04T12:55:28Z</time>
      </trkpt>
      <trkpt lat="45.76076" lon="4.33526">
        <ele>570.157</ele>
        <time>2018-06-04T12:55:34Z</time>
      </trkpt>
      <trkpt lat="45.76082" lon="4.33523">
        <ele>570.728</ele>
        <time>2018-06-04T12:55:39Z</time>
      </trkpt>
      <trkpt lat="45.76088" lon="4.3352">
        <ele>571.556</ele>
        <time>2018-06-04T12:55:44Z</time>
      </trkpt>
      <trkpt lat="45.76091" lon="4.33517">
        <ele>572.297</ele>
        <time>2018-06-04T12:55:49Z</time>
      </trkpt>
      <trkpt lat="45.76098" lon="4.33512">
        <ele>573.667</ele>
        <time>2018-06-04T12:55:55Z</time>
      </trkpt>
      <trkpt lat="45.76104" lon="4.33506">
        <ele>575.071</ele>
        <time>2018-06-04T12:56:01Z</time>
      </trkpt>
      <trkpt lat="45.76108" lon="4.335">
        <ele>576.441</ele>
        <time>2018-06-04T12:56:07Z</time>
      </trkpt>
      <trkpt lat="45.76113" lon="4.33496">
        <ele>577.843</ele>
        <time>2018-06-04T12:56:13Z</time>
      </trkpt>
      <trkpt lat="45.76116" lon="4.33491">
        <ele>579.015</ele>
        <time>2018-06-04T12:56:19Z</time>
      </trkpt>
      <trkpt lat="45.76119" lon="4.33486">
        <ele>579.971</ele>
        <time>2018-06-04T12:56:25Z</time>
      </trkpt>
      <trkpt lat="45.76119" lon="4.33484">
        <ele>580.843</ele>
        <time>2018-06-04T12:56:30Z</time>
      </trkpt>
      <trkpt lat="45.76118" lon="4.33482">
        <ele>582.601</ele>
        <time>2018-06-04T12:56:35Z</time>
      </trkpt>
      <trkpt lat="45.76117" lon="4.33483">
        <ele>583.598</ele>
        <time>2018-06-04T12:56:40Z</time>
      </trkpt>
      <trkpt lat="45.76118" lon="4.33483">
        <ele>584.677</ele>
        <time>2018-06-04T12:56:46Z</time>
      </trkpt>
      <trkpt lat="45.76116" lon="4.33482">
        <ele>585.472</ele>
        <time>2018-06-04T12:56:52Z</time>
      </trkpt>
      <trkpt lat="45.76115" lon="4.3348">
        <ele>585.735</ele>
        <time>2018-06-04T12:56:57Z</time>
      </trkpt>
      <trkpt lat="45.76115" lon="4.33481">
        <ele>585.996</ele>
        <time>2018-06-04T12:57:03Z</time>
      </trkpt>
      <trkpt lat="45.76119" lon="4.33483">
        <ele>586.69</ele>
        <time>2018-06-04T12:57:09Z</time>
      </trkpt>
      <trkpt lat="45.76119" lon="4.33483">
        <ele>586.955</ele>
        <time>2018-06-04T12:57:15Z</time>
      </trkpt>
      <trkpt lat="45.76118" lon="4.33486">
        <ele>587.092</ele>
        <time>2018-06-04T12:57:20Z</time>
      </trkpt>
      <trkpt lat="45.76118" lon="4.33486">
        <ele>587.415</ele>
        <time>2018-06-04T12:57:25Z</time>
      </trkpt>
      <trkpt lat="45.76118" lon="4.33487">
        <ele>587.596</ele>
        <time>2018-06-04T12:57:30Z</time>
      </trkpt>
      <trkpt lat="45.76118" lon="4.33487">
        <ele>588.971</ele>
        <time>2018-06-04T12:57:36Z</time>
      </trkpt>
      <trkpt lat="45.76118" lon="4.33486">
        <ele>589.686</ele>
        <time>2018-06-04T12:57:42Z</time>
      </trkpt>
      <trkpt lat="45.76118" lon="4.33486">
        <ele>589.837</ele>
        <time>2018-06-04T12:57:47Z</time>
      </trkpt>
      <trkpt lat="45.76118" lon="4.33486">
        <ele>589.956</ele>
        <time>2018-06-04T12:57:53Z</time>
      </trkpt>
      <trkpt lat="45.76118" lon="4.33486">
        <ele>590.025</ele>
        <time>2018-06-04T12:57:58Z</time>
      </trkpt>
      <trkpt lat="45.76118" lon="4.33486">
        <ele>590.436</ele>
        <time>2018-06-04T12:58:04Z</time>
      </trkpt>
      <trkpt lat="45.76118" lon="4.33486">
        <ele>590.585</ele>
        <time>2018-06-04T12:58:09Z</time>
      </trkpt>
      <trkpt lat="45.76118" lon="4.33486">
        <ele>590.561</ele>
        <time>2018-06-04T12:58:15Z</time>
      </trkpt>
      <trkpt lat="45.76118" lon="4.33486">
        <ele>590.591</ele>
        <time>2018-06-04T12:58:20Z</time>
      </trkpt>
      <trkpt lat="45.76118" lon="4.33486">
        <ele>590.626</ele>
        <time>2018-06-04T12:58:25Z</time>
      </trkpt>
      <trkpt lat="45.76118" lon="4.33486">
        <ele>590.649</ele>
        <time>2018-06-04T12:58:31Z</time>
      </trkpt>
      <trkpt lat="45.76118" lon="4.33486">
        <ele>590.687</ele>
        <time>2018-06-04T12:58:37Z</time>
      </trkpt>
      <trkpt lat="45.76118" lon="4.33486">
        <ele>590.727</ele>
        <time>2018-06-04T12:58:43Z</time>
      </trkpt>
      <trkpt lat="45.76118" lon="4.33486">
        <ele>590.722</ele>
        <time>2018-06-04T12:58:48Z</time>
      </trkpt>
      <trkpt lat="45.76118" lon="4.33486">
        <ele>590.722</ele>
        <time>2018-06-04T12:58:54Z</time>
      </trkpt>
      <trkpt lat="45.76118" lon="4.33486">
        <ele>590.379</ele>
        <time>2018-06-04T12:58:59Z</time>
      </trkpt>
      <trkpt lat="45.76118" lon="4.33486">
        <ele>590.203</ele>
        <time>2018-06-04T12:59:04Z</time>
      </trkpt>
      <trkpt lat="45.76118" lon="4.33486">
        <ele>590.365</ele>
        <time>2018-06-04T12:59:10Z</time>
      </trkpt>
      <trkpt lat="45.76118" lon="4.33486">
        <ele>590.612</ele>
        <time>2018-06-04T12:59:16Z</time>
      </trkpt>
      <trkpt lat="45.76119" lon="4.33489">
        <ele>591.103</ele>
        <time>2018-06-04T12:59:22Z</time>
      </trkpt>
      <trkpt lat="45.76119" lon="4.33489">
        <ele>592.171</ele>
        <time>2018-06-04T12:59:28Z</time>
      </trkpt>
      <trkpt lat="45.76119" lon="4.33489">
        <ele>592.336</ele>
        <time>2018-06-04T12:59:34Z</time>
      </trkpt>
      <trkpt lat="45.76119" lon="4.33489">
        <ele>592.506</ele>
        <time>2018-06-04T12:59:40Z</time>
      </trkpt>
      <trkpt lat="45.76119" lon="4.33489">
        <ele>592.746</ele>
        <time>2018-06-04T12:59:46Z</time>
      </trkpt>
      <trkpt lat="45.76119" lon="4.33489">
        <ele>593.037</ele>
        <time>2018-06-04T12:59:52Z</time>
      </trkpt>
      <trkpt lat="45.76119" lon="4.33489">
        <ele>594.73</ele>
        <time>2018-06-04T12:59:57Z</time>
      </trkpt>
      <trkpt lat="45.7612" lon="4.33488">
        <ele>596.508</ele>
        <time>2018-06-04T13:00:03Z</time>
      </trkpt>
      <trkpt lat="45.76126" lon="4.33486">
        <ele>594.869</ele>
        <time>2018-06-04T13:00:09Z</time>
      </trkpt>
      <trkpt lat="45.76127" lon="4.33485">
        <ele>593.398</ele>
        <time>2018-06-04T13:00:14Z</time>
      </trkpt>
      <trkpt lat="45.76128" lon="4.33486">
        <ele>592.245</ele>
        <time>2018-06-04T13:00:20Z</time>
      </trkpt>
      <trkpt lat="45.76128" lon="4.33488">
        <ele>591.226</ele>
        <time>2018-06-04T13:00:25Z</time>
      </trkpt>
      <trkpt lat="45.7613" lon="4.33496">
        <ele>589.03</ele>
        <time>2018-06-04T13:00:31Z</time>
      </trkpt>
      <trkpt lat="45.76131" lon="4.33503">
        <ele>587.691</ele>
        <time>2018-06-04T13:00:37Z</time>
      </trkpt>
      <trkpt lat="45.7613" lon="4.33507">
        <ele>586.666</ele>
        <time>2018-06-04T13:00:43Z</time>
      </trkpt>
      <trkpt lat="45.7613" lon="4.33517">
        <ele>585.266</ele>
        <time>2018-06-04T13:00:49Z</time>
      </trkpt>
      <trkpt lat="45.76133" lon="4.33528">
        <ele>583.622</ele>
        <time>2018-06-04T13:00:55Z</time>
      </trkpt>
      <trkpt lat="45.76134" lon="4.33533">
        <ele>582.746</ele>
        <time>2018-06-04T13:01:00Z</time>
      </trkpt>
      <trkpt lat="45.76136" lon="4.3354">
        <ele>582.221</ele>
        <time>2018-06-04T13:01:06Z</time>
      </trkpt>
      <trkpt lat="45.76138" lon="4.33548">
        <ele>581.635</ele>
        <time>2018-06-04T13:01:11Z</time>
      </trkpt>
      <trkpt lat="45.7614" lon="4.33556">
        <ele>580.504</ele>
        <time>2018-06-04T13:01:16Z</time>
      </trkpt>
      <trkpt lat="45.76142" lon="4.33561">
        <ele>579.27</ele>
        <time>2018-06-04T13:01:22Z</time>
      </trkpt>
      <trkpt lat="45.76145" lon="4.33564">
        <ele>578.469</ele>
        <time>2018-06-04T13:01:28Z</time>
      </trkpt>
      <trkpt lat="45.76152" lon="4.33567">
        <ele>577.983</ele>
        <time>2018-06-04T13:01:33Z</time>
      </trkpt>
      <trkpt lat="45.76156" lon="4.33569">
        <ele>577.767</ele>
        <time>2018-06-04T13:01:39Z</time>
      </trkpt>
      <trkpt lat="45.76158" lon="4.33571">
        <ele>576.882</ele>
        <time>2018-06-04T13:01:45Z</time>
      </trkpt>
      <trkpt lat="45.76164" lon="4.33575">
        <ele>576.105</ele>
        <time>2018-06-04T13:01:50Z</time>
      </trkpt>
      <trkpt lat="45.76167" lon="4.33578">
        <ele>575.366</ele>
        <time>2018-06-04T13:01:55Z</time>
      </trkpt>
      <trkpt lat="45.76172" lon="4.33582">
        <ele>574.264</ele>
        <time>2018-06-04T13:02:01Z</time>
      </trkpt>
      <trkpt lat="45.76176" lon="4.33586">
        <ele>573.446</ele>
        <time>2018-06-04T13:02:06Z</time>
      </trkpt>
      <trkpt lat="45.76181" lon="4.33592">
        <ele>573.182</ele>
        <time>2018-06-04T13:02:11Z</time>
      </trkpt>
      <trkpt lat="45.76186" lon="4.33597">
        <ele>572.868</ele>
        <time>2018-06-04T13:02:16Z</time>
      </trkpt>
      <trkpt lat="45.76188" lon="4.33601">
        <ele>572.509</ele>
        <time>2018-06-04T13:02:21Z</time>
      </trkpt>
      <trkpt lat="45.76192" lon="4.33606">
        <ele>571.637</ele>
        <time>2018-06-04T13:02:27Z</time>
      </trkpt>
      <trkpt lat="45.76196" lon="4.3361">
        <ele>570.635</ele>
        <time>2018-06-04T13:02:33Z</time>
      </trkpt>
      <trkpt lat="45.76199" lon="4.33613">
        <ele>569.241</ele>
        <time>2018-06-04T13:02:39Z</time>
      </trkpt>
      <trkpt lat="45.76201" lon="4.33617">
        <ele>568.613</ele>
        <time>2018-06-04T13:02:44Z</time>
      </trkpt>
      <trkpt lat="45.76204" lon="4.33619">
        <ele>567.854</ele>
        <time>2018-06-04T13:02:50Z</time>
      </trkpt>
      <trkpt lat="45.76208" lon="4.33624">
        <ele>567.646</ele>
        <time>2018-06-04T13:02:55Z</time>
      </trkpt>
      <trkpt lat="45.7621" lon="4.33629">
        <ele>567.226</ele>
        <time>2018-06-04T13:03:00Z</time>
      </trkpt>
      <trkpt lat="45.76211" lon="4.33636">
        <ele>566.325</ele>
        <time>2018-06-04T13:03:06Z</time>
      </trkpt>
      <trkpt lat="45.76213" lon="4.33647">
        <ele>565.975</ele>
        <time>2018-06-04T13:03:12Z</time>
      </trkpt>
      <trkpt lat="45.76218" lon="4.3366">
        <ele>566.335</ele>
        <time>2018-06-04T13:03:18Z</time>
      </trkpt>
      <trkpt lat="45.76221" lon="4.33665">
        <ele>566.517</ele>
        <time>2018-06-04T13:03:23Z</time>
      </trkpt>
      <trkpt lat="45.76223" lon="4.33671">
        <ele>566.424</ele>
        <time>2018-06-04T13:03:29Z</time>
      </trkpt>
      <trkpt lat="45.76225" lon="4.33676">
        <ele>566.551</ele>
        <time>2018-06-04T13:03:35Z</time>
      </trkpt>
      <trkpt lat="45.76229" lon="4.33685">
        <ele>566.713</ele>
        <time>2018-06-04T13:03:41Z</time>
      </trkpt>
      <trkpt lat="45.76235" lon="4.33688">
        <ele>567.038</ele>
        <time>2018-06-04T13:03:47Z</time>
      </trkpt>
      <trkpt lat="45.76241" lon="4.33685">
        <ele>567.097</ele>
        <time>2018-06-04T13:03:53Z</time>
      </trkpt>
      <trkpt lat="45.76244" lon="4.33677">
        <ele>567.172</ele>
        <time>2018-06-04T13:03:58Z</time>
      </trkpt>
      <trkpt lat="45.76248" lon="4.33672">
        <ele>567.522</ele>
        <time>2018-06-04T13:04:04Z</time>
      </trkpt>
      <trkpt lat="45.76251" lon="4.33664">
        <ele>568.222</ele>
        <time>2018-06-04T13:04:10Z</time>
      </trkpt>
      <trkpt lat="45.76254" lon="4.33658">
        <ele>568.292</ele>
        <time>2018-06-04T13:04:15Z</time>
      </trkpt>
      <trkpt lat="45.76259" lon="4.33654">
        <ele>568.549</ele>
        <time>2018-06-04T13:04:21Z</time>
      </trkpt>
      <trkpt lat="45.76264" lon="4.33651">
        <ele>569.016</ele>
        <time>2018-06-04T13:04:26Z</time>
      </trkpt>
      <trkpt lat="45.7627" lon="4.33646">
        <ele>569.644</ele>
        <time>2018-06-04T13:04:32Z</time>
      </trkpt>
      <trkpt lat="45.76275" lon="4.33643">
        <ele>570.391</ele>
        <time>2018-06-04T13:04:38Z</time>
      </trkpt>
      <trkpt lat="45.76279" lon="4.3364">
        <ele>570.812</ele>
        <time>2018-06-04T13:04:44Z</time>
      </trkpt>
      <trkpt lat="45.76283" lon="4.3364">
        <ele>571.606</ele>
        <time>2018-06-04T13:04:49Z</time>
      </trkpt>
      <trkpt lat="45.76286" lon="4.33638">
        <ele>572.179</ele>
        <time>2018-06-04T13:04:54Z</time>
      </trkpt>
      <trkpt lat="45.76293" lon="4.33637">
        <ele>572.692</ele>
        <time>2018-06-04T13:05:00Z</time>
      </trkpt>
      <trkpt lat="45.76298" lon="4.33636">
        <ele>572.839</ele>
        <time>2018-06-04T13:05:06Z</time>
      </trkpt>
      <trkpt lat="45.76302" lon="4.33635">
        <ele>573.001</ele>
        <time>2018-06-04T13:05:11Z</time>
      </trkpt>
      <trkpt lat="45.76307" lon="4.33631">
        <ele>573.338</ele>
        <time>2018-06-04T13:05:17Z</time>
      </trkpt>
      <trkpt lat="45.76314" lon="4.33628">
        <ele>573.958</ele>
        <time>2018-06-04T13:05:23Z</time>
      </trkpt>
      <trkpt lat="45.76318" lon="4.33626">
        <ele>574.886</ele>
        <time>2018-06-04T13:05:29Z</time>
      </trkpt>
      <trkpt lat="45.76322" lon="4.33625">
        <ele>575.553</ele>
        <time>2018-06-04T13:05:34Z</time>
      </trkpt>
      <trkpt lat="45.76328" lon="4.33621">
        <ele>576.465</ele>
        <time>2018-06-04T13:05:40Z</time>
      </trkpt>
      <trkpt lat="45.76333" lon="4.33619">
        <ele>577.353</ele>
        <time>2018-06-04T13:05:45Z</time>
      </trkpt>
      <trkpt lat="45.76337" lon="4.33618">
        <ele>578.64</ele>
        <time>2018-06-04T13:05:51Z</time>
      </trkpt>
      <trkpt lat="45.76342" lon="4.33617">
        <ele>579.633</ele>
        <time>2018-06-04T13:05:57Z</time>
      </trkpt>
      <trkpt lat="45.76344" lon="4.33615">
        <ele>580.637</ele>
        <time>2018-06-04T13:06:03Z</time>
      </trkpt>
      <trkpt lat="45.76348" lon="4.33614">
        <ele>581.277</ele>
        <time>2018-06-04T13:06:08Z</time>
      </trkpt>
      <trkpt lat="45.76353" lon="4.33612">
        <ele>581.865</ele>
        <time>2018-06-04T13:06:14Z</time>
      </trkpt>
      <trkpt lat="45.76358" lon="4.33609">
        <ele>582.491</ele>
        <time>2018-06-04T13:06:20Z</time>
      </trkpt>
      <trkpt lat="45.76363" lon="4.33603">
        <ele>583.151</ele>
        <time>2018-06-04T13:06:26Z</time>
      </trkpt>
      <trkpt lat="45.76365" lon="4.33598">
        <ele>583.342</ele>
        <time>2018-06-04T13:06:31Z</time>
      </trkpt>
      <trkpt lat="45.76364" lon="4.33588">
        <ele>583.462</ele>
        <time>2018-06-04T13:06:37Z</time>
      </trkpt>
      <trkpt lat="45.76362" lon="4.33584">
        <ele>583.713</ele>
        <time>2018-06-04T13:06:42Z</time>
      </trkpt>
      <trkpt lat="45.76361" lon="4.33581">
        <ele>584.219</ele>
        <time>2018-06-04T13:06:47Z</time>
      </trkpt>
      <trkpt lat="45.76361" lon="4.33577">
        <ele>584.47</ele>
        <time>2018-06-04T13:06:52Z</time>
      </trkpt>
      <trkpt lat="45.76358" lon="4.33568">
        <ele>584.817</ele>
        <time>2018-06-04T13:06:58Z</time>
      </trkpt>
      <trkpt lat="45.76356" lon="4.3356">
        <ele>585.409</ele>
        <time>2018-06-04T13:07:03Z</time>
      </trkpt>
      <trkpt lat="45.76354" lon="4.33551">
        <ele>586.056</ele>
        <time>2018-06-04T13:07:09Z</time>
      </trkpt>
      <trkpt lat="45.76352" lon="4.33544">
        <ele>586.481</ele>
        <time>2018-06-04T13:07:14Z</time>
      </trkpt>
      <trkpt lat="45.76351" lon="4.33537">
        <ele>586.853</ele>
        <time>2018-06-04T13:07:19Z</time>
      </trkpt>
      <trkpt lat="45.76349" lon="4.33529">
        <ele>586.915</ele>
        <time>2018-06-04T13:07:24Z</time>
      </trkpt>
      <trkpt lat="45.76348" lon="4.33519">
        <ele>586.868</ele>
        <time>2018-06-04T13:07:30Z</time>
      </trkpt>
      <trkpt lat="45.76346" lon="4.33512">
        <ele>586.977</ele>
        <time>2018-06-04T13:07:35Z</time>
      </trkpt>
      <trkpt lat="45.76346" lon="4.33503">
        <ele>587.206</ele>
        <time>2018-06-04T13:07:41Z</time>
      </trkpt>
      <trkpt lat="45.76344" lon="4.33496">
        <ele>587.974</ele>
        <time>2018-06-04T13:07:47Z</time>
      </trkpt>
      <trkpt lat="45.76342" lon="4.33489">
        <ele>589.006</ele>
        <time>2018-06-04T13:07:52Z</time>
      </trkpt>
      <trkpt lat="45.76341" lon="4.3348">
        <ele>589.747</ele>
        <time>2018-06-04T13:07:58Z</time>
      </trkpt>
      <trkpt lat="45.7634" lon="4.33472">
        <ele>590.377</ele>
        <time>2018-06-04T13:08:03Z</time>
      </trkpt>
      <trkpt lat="45.76339" lon="4.33462">
        <ele>591.157</ele>
        <time>2018-06-04T13:08:09Z</time>
      </trkpt>
      <trkpt lat="45.76336" lon="4.33455">
        <ele>591.445</ele>
        <time>2018-06-04T13:08:14Z</time>
      </trkpt>
      <trkpt lat="45.76337" lon="4.33445">
        <ele>591.916</ele>
        <time>2018-06-04T13:08:20Z</time>
      </trkpt>
      <trkpt lat="45.76337" lon="4.33438">
        <ele>592.303</ele>
        <time>2018-06-04T13:08:25Z</time>
      </trkpt>
      <trkpt lat="45.76335" lon="4.3343">
        <ele>592.868</ele>
        <time>2018-06-04T13:08:31Z</time>
      </trkpt>
      <trkpt lat="45.76334" lon="4.3342">
        <ele>593.271</ele>
        <time>2018-06-04T13:08:36Z</time>
      </trkpt>
      <trkpt lat="45.76333" lon="4.3341">
        <ele>593.403</ele>
        <time>2018-06-04T13:08:42Z</time>
      </trkpt>
      <trkpt lat="45.76332" lon="4.33404">
        <ele>593.613</ele>
        <time>2018-06-04T13:08:47Z</time>
      </trkpt>
      <trkpt lat="45.76337" lon="4.33398">
        <ele>593.839</ele>
        <time>2018-06-04T13:08:53Z</time>
      </trkpt>
      <trkpt lat="45.76342" lon="4.33395">
        <ele>594.489</ele>
        <time>2018-06-04T13:08:58Z</time>
      </trkpt>
      <trkpt lat="45.76343" lon="4.3339">
        <ele>594.757</ele>
        <time>2018-06-04T13:09:03Z</time>
      </trkpt>
      <trkpt lat="45.76343" lon="4.33386">
        <ele>594.744</ele>
        <time>2018-06-04T13:09:09Z</time>
      </trkpt>
      <trkpt lat="45.76343" lon="4.33386">
        <ele>594.654</ele>
        <time>2018-06-04T13:09:15Z</time>
      </trkpt>
      <trkpt lat="45.76343" lon="4.33386">
        <ele>595.059</ele>
        <time>2018-06-04T13:09:20Z</time>
      </trkpt>
      <trkpt lat="45.76342" lon="4.33386">
        <ele>595.72</ele>
        <time>2018-06-04T13:09:26Z</time>
      </trkpt>
      <trkpt lat="45.76341" lon="4.33385">
        <ele>595.996</ele>
        <time>2018-06-04T13:09:32Z</time>
      </trkpt>
      <trkpt lat="45.7634" lon="4.33385">
        <ele>596.238</ele>
        <time>2018-06-04T13:09:39Z</time>
      </trkpt>
      <trkpt lat="45.7634" lon="4.33383">
        <ele>596.939</ele>
        <time>2018-06-04T13:09:44Z</time>
      </trkpt>
      <trkpt lat="45.76341" lon="4.33384">
        <ele>597.462</ele>
        <time>2018-06-04T13:09:50Z</time>
      </trkpt>
      <trkpt lat="45.76343" lon="4.33383">
        <ele>597.677</ele>
        <time>2018-06-04T13:09:56Z</time>
      </trkpt>
      <trkpt lat="45.76343" lon="4.33384">
        <ele>597.982</ele>
        <time>2018-06-04T13:10:01Z</time>
      </trkpt>
      <trkpt lat="45.76343" lon="4.33385">
        <ele>598.405</ele>
        <time>2018-06-04T13:10:07Z</time>
      </trkpt>
      <trkpt lat="45.76342" lon="4.33386">
        <ele>597.958</ele>
        <time>2018-06-04T13:10:13Z</time>
      </trkpt>
      <trkpt lat="45.76342" lon="4.33386">
        <ele>597.87</ele>
        <time>2018-06-04T13:10:19Z</time>
      </trkpt>
      <trkpt lat="45.76343" lon="4.33384">
        <ele>597.944</ele>
        <time>2018-06-04T13:10:24Z</time>
      </trkpt>
      <trkpt lat="45.76342" lon="4.33384">
        <ele>597.956</ele>
        <time>2018-06-04T13:10:29Z</time>
      </trkpt>
      <trkpt lat="45.76341" lon="4.33386">
        <ele>597.568</ele>
        <time>2018-06-04T13:10:35Z</time>
      </trkpt>
      <trkpt lat="45.76341" lon="4.33385">
        <ele>597.338</ele>
        <time>2018-06-04T13:10:40Z</time>
      </trkpt>
      <trkpt lat="45.76341" lon="4.33386">
        <ele>597.297</ele>
        <time>2018-06-04T13:10:45Z</time>
      </trkpt>
      <trkpt lat="45.76341" lon="4.33387">
        <ele>597.115</ele>
        <time>2018-06-04T13:10:51Z</time>
      </trkpt>
      <trkpt lat="45.7634" lon="4.33384">
        <ele>597.064</ele>
        <time>2018-06-04T13:10:56Z</time>
      </trkpt>
      <trkpt lat="45.7634" lon="4.33385">
        <ele>597.168</ele>
        <time>2018-06-04T13:11:02Z</time>
      </trkpt>
      <trkpt lat="45.76343" lon="4.33386">
        <ele>597.191</ele>
        <time>2018-06-04T13:11:07Z</time>
      </trkpt>
      <trkpt lat="45.76345" lon="4.33385">
        <ele>597.607</ele>
        <time>2018-06-04T13:11:13Z</time>
      </trkpt>
      <trkpt lat="45.76345" lon="4.33385">
        <ele>598.016</ele>
        <time>2018-06-04T13:11:19Z</time>
      </trkpt>
      <trkpt lat="45.76344" lon="4.33385">
        <ele>598.19</ele>
        <time>2018-06-04T13:11:25Z</time>
      </trkpt>
      <trkpt lat="45.76344" lon="4.33385">
        <ele>598.158</ele>
        <time>2018-06-04T13:11:30Z</time>
      </trkpt>
      <trkpt lat="45.76345" lon="4.33385">
        <ele>598.14</ele>
        <time>2018-06-04T13:11:35Z</time>
      </trkpt>
      <trkpt lat="45.76344" lon="4.33386">
        <ele>598.13</ele>
        <time>2018-06-04T13:11:41Z</time>
      </trkpt>
      <trkpt lat="45.76343" lon="4.33386">
        <ele>598.266</ele>
        <time>2018-06-04T13:11:46Z</time>
      </trkpt>
      <trkpt lat="45.76342" lon="4.33385">
        <ele>598.333</ele>
        <time>2018-06-04T13:11:51Z</time>
      </trkpt>
      <trkpt lat="45.76342" lon="4.33385">
        <ele>598.23</ele>
        <time>2018-06-04T13:11:56Z</time>
      </trkpt>
      <trkpt lat="45.76343" lon="4.33385">
        <ele>598.167</ele>
        <time>2018-06-04T13:12:02Z</time>
      </trkpt>
      <trkpt lat="45.76343" lon="4.33385">
        <ele>597.842</ele>
        <time>2018-06-04T13:12:08Z</time>
      </trkpt>
      <trkpt lat="45.76344" lon="4.33385">
        <ele>597.383</ele>
        <time>2018-06-04T13:12:13Z</time>
      </trkpt>
      <trkpt lat="45.76342" lon="4.33389">
        <ele>597.44</ele>
        <time>2018-06-04T13:12:19Z</time>
      </trkpt>
      <trkpt lat="45.76341" lon="4.33389">
        <ele>597.652</ele>
        <time>2018-06-04T13:12:24Z</time>
      </trkpt>
      <trkpt lat="45.76339" lon="4.33388">
        <ele>597.823</ele>
        <time>2018-06-04T13:12:30Z</time>
      </trkpt>
      <trkpt lat="45.76338" lon="4.33378">
        <ele>597.667</ele>
        <time>2018-06-04T13:12:36Z</time>
      </trkpt>
      <trkpt lat="45.76336" lon="4.33369">
        <ele>597.106</ele>
        <time>2018-06-04T13:12:42Z</time>
      </trkpt>
      <trkpt lat="45.76335" lon="4.33366">
        <ele>596.625</ele>
        <time>2018-06-04T13:12:47Z</time>
      </trkpt>
      <trkpt lat="45.76335" lon="4.33365">
        <ele>596.551</ele>
        <time>2018-06-04T13:12:53Z</time>
      </trkpt>
      <trkpt lat="45.76336" lon="4.33363">
        <ele>596.525</ele>
        <time>2018-06-04T13:12:59Z</time>
      </trkpt>
      <trkpt lat="45.76335" lon="4.33362">
        <ele>596.476</ele>
        <time>2018-06-04T13:13:04Z</time>
      </trkpt>
      <trkpt lat="45.76335" lon="4.33364">
        <ele>596.604</ele>
        <time>2018-06-04T13:13:10Z</time>
      </trkpt>
      <trkpt lat="45.76336" lon="4.33363">
        <ele>596.611</ele>
        <time>2018-06-04T13:13:16Z</time>
      </trkpt>
      <trkpt lat="45.76336" lon="4.33364">
        <ele>596.655</ele>
        <time>2018-06-04T13:13:22Z</time>
      </trkpt>
      <trkpt lat="45.76334" lon="4.33362">
        <ele>596.95</ele>
        <time>2018-06-04T13:13:27Z</time>
      </trkpt>
      <trkpt lat="45.7633" lon="4.33355">
        <ele>596.906</ele>
        <time>2018-06-04T13:13:33Z</time>
      </trkpt>
      <trkpt lat="45.76325" lon="4.3335">
        <ele>597.022</ele>
        <time>2018-06-04T13:13:38Z</time>
      </trkpt>
      <trkpt lat="45.76321" lon="4.33345">
        <ele>596.853</ele>
        <time>2018-06-04T13:13:43Z</time>
      </trkpt>
      <trkpt lat="45.76317" lon="4.33339">
        <ele>596.557</ele>
        <time>2018-06-04T13:13:49Z</time>
      </trkpt>
      <trkpt lat="45.76312" lon="4.33333">
        <ele>596.531</ele>
        <time>2018-06-04T13:13:54Z</time>
      </trkpt>
      <trkpt lat="45.76309" lon="4.33327">
        <ele>596.186</ele>
        <time>2018-06-04T13:14:00Z</time>
      </trkpt>
      <trkpt lat="45.76305" lon="4.3332">
        <ele>595.458</ele>
        <time>2018-06-04T13:14:05Z</time>
      </trkpt>
      <trkpt lat="45.76299" lon="4.33312">
        <ele>594.814</ele>
        <time>2018-06-04T13:14:10Z</time>
      </trkpt>
      <trkpt lat="45.76293" lon="4.33305">
        <ele>593.929</ele>
        <time>2018-06-04T13:14:16Z</time>
      </trkpt>
      <trkpt lat="45.76288" lon="4.333">
        <ele>593.504</ele>
        <time>2018-06-04T13:14:21Z</time>
      </trkpt>
      <trkpt lat="45.7628" lon="4.33295">
        <ele>593.171</ele>
        <time>2018-06-04T13:14:26Z</time>
      </trkpt>
      <trkpt lat="45.76272" lon="4.33284">
        <ele>592.695</ele>
        <time>2018-06-04T13:14:32Z</time>
      </trkpt>
      <trkpt lat="45.76267" lon="4.33277">
        <ele>592.719</ele>
        <time>2018-06-04T13:14:38Z</time>
      </trkpt>
      <trkpt lat="45.76261" lon="4.33275">
        <ele>593.303</ele>
        <time>2018-06-04T13:14:43Z</time>
      </trkpt>
      <trkpt lat="45.76257" lon="4.33266">
        <ele>593.853</ele>
        <time>2018-06-04T13:14:49Z</time>
      </trkpt>
      <trkpt lat="45.76256" lon="4.33265">
        <ele>594.027</ele>
        <time>2018-06-04T13:14:54Z</time>
      </trkpt>
      <trkpt lat="45.7625" lon="4.33259">
        <ele>594.912</ele>
        <time>2018-06-04T13:15:00Z</time>
      </trkpt>
      <trkpt lat="45.76246" lon="4.33254">
        <ele>595.504</ele>
        <time>2018-06-04T13:15:06Z</time>
      </trkpt>
      <trkpt lat="45.76243" lon="4.33251">
        <ele>595.859</ele>
        <time>2018-06-04T13:15:11Z</time>
      </trkpt>
      <trkpt lat="45.7624" lon="4.33246">
        <ele>596.031</ele>
        <time>2018-06-04T13:15:17Z</time>
      </trkpt>
      <trkpt lat="45.76232" lon="4.33239">
        <ele>595.871</ele>
        <time>2018-06-04T13:15:23Z</time>
      </trkpt>
      <trkpt lat="45.76229" lon="4.33233">
        <ele>595.718</ele>
        <time>2018-06-04T13:15:28Z</time>
      </trkpt>
      <trkpt lat="45.76223" lon="4.3323">
        <ele>595.039</ele>
        <time>2018-06-04T13:15:33Z</time>
      </trkpt>
      <trkpt lat="45.76217" lon="4.33221">
        <ele>594.512</ele>
        <time>2018-06-04T13:15:38Z</time>
      </trkpt>
      <trkpt lat="45.76211" lon="4.33215">
        <ele>594.328</ele>
        <time>2018-06-04T13:15:44Z</time>
      </trkpt>
      <trkpt lat="45.76204" lon="4.33208">
        <ele>594.303</ele>
        <time>2018-06-04T13:15:49Z</time>
      </trkpt>
      <trkpt lat="45.76199" lon="4.33203">
        <ele>595.066</ele>
        <time>2018-06-04T13:15:55Z</time>
      </trkpt>
      <trkpt lat="45.76193" lon="4.33195">
        <ele>595.616</ele>
        <time>2018-06-04T13:16:01Z</time>
      </trkpt>
      <trkpt lat="45.76188" lon="4.33186">
        <ele>595.988</ele>
        <time>2018-06-04T13:16:07Z</time>
      </trkpt>
      <trkpt lat="45.76184" lon="4.33178">
        <ele>596.107</ele>
        <time>2018-06-04T13:16:12Z</time>
      </trkpt>
      <trkpt lat="45.76182" lon="4.33169">
        <ele>596.04</ele>
        <time>2018-06-04T13:16:18Z</time>
      </trkpt>
      <trkpt lat="45.7618" lon="4.33161">
        <ele>595.907</ele>
        <time>2018-06-04T13:16:24Z</time>
      </trkpt>
      <trkpt lat="45.76176" lon="4.33151">
        <ele>596.005</ele>
        <time>2018-06-04T13:16:30Z</time>
      </trkpt>
      <trkpt lat="45.76172" lon="4.33141">
        <ele>596.457</ele>
        <time>2018-06-04T13:16:36Z</time>
      </trkpt>
      <trkpt lat="45.76169" lon="4.33137">
        <ele>597.154</ele>
        <time>2018-06-04T13:16:41Z</time>
      </trkpt>
      <trkpt lat="45.76164" lon="4.33125">
        <ele>597.863</ele>
        <time>2018-06-04T13:16:47Z</time>
      </trkpt>
      <trkpt lat="45.76163" lon="4.33124">
        <ele>597.949</ele>
        <time>2018-06-04T13:16:52Z</time>
      </trkpt>
      <trkpt lat="45.76163" lon="4.33124">
        <ele>597.963</ele>
        <time>2018-06-04T13:16:58Z</time>
      </trkpt>
      <trkpt lat="45.76163" lon="4.33124">
        <ele>598.035</ele>
        <time>2018-06-04T13:17:04Z</time>
      </trkpt>
      <trkpt lat="45.76163" lon="4.33124">
        <ele>598.185</ele>
        <time>2018-06-04T13:17:09Z</time>
      </trkpt>
      <trkpt lat="45.76161" lon="4.33123">
        <ele>598.742</ele>
        <time>2018-06-04T13:17:15Z</time>
      </trkpt>
      <trkpt lat="45.76159" lon="4.3312">
        <ele>599.167</ele>
        <time>2018-06-04T13:17:21Z</time>
      </trkpt>
      <trkpt lat="45.76156" lon="4.33115">
        <ele>599.391</ele>
        <time>2018-06-04T13:17:26Z</time>
      </trkpt>
      <trkpt lat="45.76154" lon="4.33108">
        <ele>599.34</ele>
        <time>2018-06-04T13:17:32Z</time>
      </trkpt>
      <trkpt lat="45.76149" lon="4.33099">
        <ele>599.319</ele>
        <time>2018-06-04T13:17:38Z</time>
      </trkpt>
      <trkpt lat="45.76145" lon="4.33092">
        <ele>599.356</ele>
        <time>2018-06-04T13:17:44Z</time>
      </trkpt>
      <trkpt lat="45.76143" lon="4.33087">
        <ele>599</ele>
        <time>2018-06-04T13:17:50Z</time>
      </trkpt>
      <trkpt lat="45.7614" lon="4.33079">
        <ele>599.055</ele>
        <time>2018-06-04T13:17:56Z</time>
      </trkpt>
      <trkpt lat="45.76136" lon="4.33071">
        <ele>599.607</ele>
        <time>2018-06-04T13:18:02Z</time>
      </trkpt>
      <trkpt lat="45.76133" lon="4.33061">
        <ele>600.222</ele>
        <time>2018-06-04T13:18:08Z</time>
      </trkpt>
      <trkpt lat="45.7613" lon="4.33054">
        <ele>600.362</ele>
        <time>2018-06-04T13:18:14Z</time>
      </trkpt>
      <trkpt lat="45.76125" lon="4.33044">
        <ele>600.263</ele>
        <time>2018-06-04T13:18:19Z</time>
      </trkpt>
      <trkpt lat="45.76121" lon="4.33038">
        <ele>599.911</ele>
        <time>2018-06-04T13:18:24Z</time>
      </trkpt>
      <trkpt lat="45.76117" lon="4.33033">
        <ele>599.296</ele>
        <time>2018-06-04T13:18:30Z</time>
      </trkpt>
      <trkpt lat="45.76111" lon="4.33027">
        <ele>599.018</ele>
        <time>2018-06-04T13:18:35Z</time>
      </trkpt>
      <trkpt lat="45.76107" lon="4.33022">
        <ele>598.677</ele>
        <time>2018-06-04T13:18:41Z</time>
      </trkpt>
      <trkpt lat="45.76104" lon="4.33015">
        <ele>598.529</ele>
        <time>2018-06-04T13:18:46Z</time>
      </trkpt>
      <trkpt lat="45.76102" lon="4.33007">
        <ele>598.323</ele>
        <time>2018-06-04T13:18:52Z</time>
      </trkpt>
      <trkpt lat="45.76099" lon="4.32998">
        <ele>598.109</ele>
        <time>2018-06-04T13:18:57Z</time>
      </trkpt>
      <trkpt lat="45.76098" lon="4.32991">
        <ele>597.653</ele>
        <time>2018-06-04T13:19:02Z</time>
      </trkpt>
      <trkpt lat="45.76095" lon="4.32982">
        <ele>597.387</ele>
        <time>2018-06-04T13:19:08Z</time>
      </trkpt>
      <trkpt lat="45.76092" lon="4.32974">
        <ele>597.117</ele>
        <time>2018-06-04T13:19:13Z</time>
      </trkpt>
      <trkpt lat="45.76092" lon="4.32966">
        <ele>596.659</ele>
        <time>2018-06-04T13:19:18Z</time>
      </trkpt>
      <trkpt lat="45.7609" lon="4.32955">
        <ele>596.006</ele>
        <time>2018-06-04T13:19:24Z</time>
      </trkpt>
      <trkpt lat="45.76091" lon="4.32947">
        <ele>595.436</ele>
        <time>2018-06-04T13:19:30Z</time>
      </trkpt>
      <trkpt lat="45.76089" lon="4.32938">
        <ele>595.314</ele>
        <time>2018-06-04T13:19:35Z</time>
      </trkpt>
      <trkpt lat="45.76088" lon="4.3293">
        <ele>595.15</ele>
        <time>2018-06-04T13:19:40Z</time>
      </trkpt>
      <trkpt lat="45.76089" lon="4.32924">
        <ele>595.015</ele>
        <time>2018-06-04T13:19:46Z</time>
      </trkpt>
      <trkpt lat="45.76088" lon="4.32913">
        <ele>594.814</ele>
        <time>2018-06-04T13:19:52Z</time>
      </trkpt>
      <trkpt lat="45.76088" lon="4.32905">
        <ele>594.819</ele>
        <time>2018-06-04T13:19:58Z</time>
      </trkpt>
      <trkpt lat="45.76089" lon="4.32898">
        <ele>594.85</ele>
        <time>2018-06-04T13:20:03Z</time>
      </trkpt>
      <trkpt lat="45.7609" lon="4.32891">
        <ele>594.644</ele>
        <time>2018-06-04T13:20:08Z</time>
      </trkpt>
      <trkpt lat="45.76092" lon="4.32884">
        <ele>594.464</ele>
        <time>2018-06-04T13:20:13Z</time>
      </trkpt>
      <trkpt lat="45.76093" lon="4.32875">
        <ele>593.711</ele>
        <time>2018-06-04T13:20:19Z</time>
      </trkpt>
      <trkpt lat="45.76096" lon="4.32866">
        <ele>593.107</ele>
        <time>2018-06-04T13:20:24Z</time>
      </trkpt>
      <trkpt lat="45.76098" lon="4.32859">
        <ele>593.102</ele>
        <time>2018-06-04T13:20:30Z</time>
      </trkpt>
      <trkpt lat="45.76101" lon="4.3285">
        <ele>593.169</ele>
        <time>2018-06-04T13:20:36Z</time>
      </trkpt>
      <trkpt lat="45.76102" lon="4.32843">
        <ele>593.465</ele>
        <time>2018-06-04T13:20:41Z</time>
      </trkpt>
      <trkpt lat="45.76103" lon="4.32834">
        <ele>593.767</ele>
        <time>2018-06-04T13:20:47Z</time>
      </trkpt>
      <trkpt lat="45.76104" lon="4.32829">
        <ele>593.58</ele>
        <time>2018-06-04T13:20:52Z</time>
      </trkpt>
      <trkpt lat="45.76105" lon="4.32821">
        <ele>593.767</ele>
        <time>2018-06-04T13:20:57Z</time>
      </trkpt>
      <trkpt lat="45.76105" lon="4.32814">
        <ele>594.015</ele>
        <time>2018-06-04T13:21:03Z</time>
      </trkpt>
      <trkpt lat="45.76105" lon="4.32806">
        <ele>593.971</ele>
        <time>2018-06-04T13:21:09Z</time>
      </trkpt>
      <trkpt lat="45.76108" lon="4.328">
        <ele>594.211</ele>
        <time>2018-06-04T13:21:14Z</time>
      </trkpt>
      <trkpt lat="45.76109" lon="4.32794">
        <ele>594.322</ele>
        <time>2018-06-04T13:21:19Z</time>
      </trkpt>
      <trkpt lat="45.7611" lon="4.32785">
        <ele>594.651</ele>
        <time>2018-06-04T13:21:25Z</time>
      </trkpt>
      <trkpt lat="45.76112" lon="4.32779">
        <ele>595.127</ele>
        <time>2018-06-04T13:21:31Z</time>
      </trkpt>
      <trkpt lat="45.76114" lon="4.3277">
        <ele>595.956</ele>
        <time>2018-06-04T13:21:37Z</time>
      </trkpt>
      <trkpt lat="45.76115" lon="4.32764">
        <ele>596.565</ele>
        <time>2018-06-04T13:21:42Z</time>
      </trkpt>
      <trkpt lat="45.76116" lon="4.32756">
        <ele>597.286</ele>
        <time>2018-06-04T13:21:48Z</time>
      </trkpt>
      <trkpt lat="45.76117" lon="4.32751">
        <ele>598.042</ele>
        <time>2018-06-04T13:21:53Z</time>
      </trkpt>
      <trkpt lat="45.76119" lon="4.32744">
        <ele>599.318</ele>
        <time>2018-06-04T13:21:59Z</time>
      </trkpt>
      <trkpt lat="45.76118" lon="4.32734">
        <ele>600.577</ele>
        <time>2018-06-04T13:22:05Z</time>
      </trkpt>
      <trkpt lat="45.76117" lon="4.32726">
        <ele>601.673</ele>
        <time>2018-06-04T13:22:11Z</time>
      </trkpt>
      <trkpt lat="45.76115" lon="4.32718">
        <ele>603.138</ele>
        <time>2018-06-04T13:22:17Z</time>
      </trkpt>
      <trkpt lat="45.76116" lon="4.32706">
        <ele>604.409</ele>
        <time>2018-06-04T13:22:23Z</time>
      </trkpt>
      <trkpt lat="45.76116" lon="4.32702">
        <ele>605.664</ele>
        <time>2018-06-04T13:22:28Z</time>
      </trkpt>
      <trkpt lat="45.76117" lon="4.32698">
        <ele>607.034</ele>
        <time>2018-06-04T13:22:34Z</time>
      </trkpt>
      <trkpt lat="45.76116" lon="4.32695">
        <ele>607.798</ele>
        <time>2018-06-04T13:22:39Z</time>
      </trkpt>
      <trkpt lat="45.76117" lon="4.32691">
        <ele>608.889</ele>
        <time>2018-06-04T13:22:45Z</time>
      </trkpt>
      <trkpt lat="45.76117" lon="4.3268">
        <ele>609.508</ele>
        <time>2018-06-04T13:22:51Z</time>
      </trkpt>
      <trkpt lat="45.76115" lon="4.32673">
        <ele>609.91</ele>
        <time>2018-06-04T13:22:57Z</time>
      </trkpt>
      <trkpt lat="45.76114" lon="4.32663">
        <ele>610.03</ele>
        <time>2018-06-04T13:23:03Z</time>
      </trkpt>
      <trkpt lat="45.76115" lon="4.32655">
        <ele>610.245</ele>
        <time>2018-06-04T13:23:08Z</time>
      </trkpt>
      <trkpt lat="45.76114" lon="4.32647">
        <ele>609.999</ele>
        <time>2018-06-04T13:23:14Z</time>
      </trkpt>
      <trkpt lat="45.76112" lon="4.32636">
        <ele>610.374</ele>
        <time>2018-06-04T13:23:20Z</time>
      </trkpt>
      <trkpt lat="45.7611" lon="4.32626">
        <ele>611.13</ele>
        <time>2018-06-04T13:23:26Z</time>
      </trkpt>
      <trkpt lat="45.76106" lon="4.3262">
        <ele>611.499</ele>
        <time>2018-06-04T13:23:31Z</time>
      </trkpt>
      <trkpt lat="45.76103" lon="4.32613">
        <ele>611.881</ele>
        <time>2018-06-04T13:23:36Z</time>
      </trkpt>
      <trkpt lat="45.76097" lon="4.32608">
        <ele>612.05</ele>
        <time>2018-06-04T13:23:42Z</time>
      </trkpt>
      <trkpt lat="45.76093" lon="4.32603">
        <ele>611.94</ele>
        <time>2018-06-04T13:23:47Z</time>
      </trkpt>
      <trkpt lat="45.76088" lon="4.32598">
        <ele>611.589</ele>
        <time>2018-06-04T13:23:53Z</time>
      </trkpt>
      <trkpt lat="45.76084" lon="4.32588">
        <ele>611.165</ele>
        <time>2018-06-04T13:23:59Z</time>
      </trkpt>
      <trkpt lat="45.76082" lon="4.32581">
        <ele>610.396</ele>
        <time>2018-06-04T13:24:05Z</time>
      </trkpt>
      <trkpt lat="45.7608" lon="4.32573">
        <ele>609.504</ele>
        <time>2018-06-04T13:24:11Z</time>
      </trkpt>
      <trkpt lat="45.76076" lon="4.32563">
        <ele>608.741</ele>
        <time>2018-06-04T13:24:17Z</time>
      </trkpt>
      <trkpt lat="45.7607" lon="4.32553">
        <ele>607.681</ele>
        <time>2018-06-04T13:24:23Z</time>
      </trkpt>
      <trkpt lat="45.76065" lon="4.32542">
        <ele>606.443</ele>
        <time>2018-06-04T13:24:29Z</time>
      </trkpt>
      <trkpt lat="45.76061" lon="4.32531">
        <ele>605.395</ele>
        <time>2018-06-04T13:24:35Z</time>
      </trkpt>
      <trkpt lat="45.76059" lon="4.32525">
        <ele>604.521</ele>
        <time>2018-06-04T13:24:41Z</time>
      </trkpt>
      <trkpt lat="45.76057" lon="4.32518">
        <ele>603.367</ele>
        <time>2018-06-04T13:24:47Z</time>
      </trkpt>
      <trkpt lat="45.76055" lon="4.32511">
        <ele>602.529</ele>
        <time>2018-06-04T13:24:52Z</time>
      </trkpt>
      <trkpt lat="45.76048" lon="4.32499">
        <ele>601.072</ele>
        <time>2018-06-04T13:24:58Z</time>
      </trkpt>
      <trkpt lat="45.76044" lon="4.32491">
        <ele>600.306</ele>
        <time>2018-06-04T13:25:03Z</time>
      </trkpt>
      <trkpt lat="45.7604" lon="4.32486">
        <ele>599.123</ele>
        <time>2018-06-04T13:25:09Z</time>
      </trkpt>
      <trkpt lat="45.76033" lon="4.32478">
        <ele>598.431</ele>
        <time>2018-06-04T13:25:15Z</time>
      </trkpt>
      <trkpt lat="45.76029" lon="4.32476">
        <ele>598.173</ele>
        <time>2018-06-04T13:25:20Z</time>
      </trkpt>
      <trkpt lat="45.76022" lon="4.32467">
        <ele>598.153</ele>
        <time>2018-06-04T13:25:26Z</time>
      </trkpt>
      <trkpt lat="45.76017" lon="4.32461">
        <ele>598.524</ele>
        <time>2018-06-04T13:25:32Z</time>
      </trkpt>
      <trkpt lat="45.7601" lon="4.32454">
        <ele>598.576</ele>
        <time>2018-06-04T13:25:38Z</time>
      </trkpt>
      <trkpt lat="45.76003" lon="4.32448">
        <ele>598.469</ele>
        <time>2018-06-04T13:25:44Z</time>
      </trkpt>
      <trkpt lat="45.75998" lon="4.32442">
        <ele>598.304</ele>
        <time>2018-06-04T13:25:50Z</time>
      </trkpt>
      <trkpt lat="45.75992" lon="4.32439">
        <ele>598.106</ele>
        <time>2018-06-04T13:25:56Z</time>
      </trkpt>
      <trkpt lat="45.75985" lon="4.32432">
        <ele>597.674</ele>
        <time>2018-06-04T13:26:02Z</time>
      </trkpt>
      <trkpt lat="45.75979" lon="4.32429">
        <ele>597.529</ele>
        <time>2018-06-04T13:26:08Z</time>
      </trkpt>
      <trkpt lat="45.75971" lon="4.32419">
        <ele>597.131</ele>
        <time>2018-06-04T13:26:14Z</time>
      </trkpt>
      <trkpt lat="45.75969" lon="4.32415">
        <ele>596.475</ele>
        <time>2018-06-04T13:26:19Z</time>
      </trkpt>
      <trkpt lat="45.75964" lon="4.32409">
        <ele>595.691</ele>
        <time>2018-06-04T13:26:25Z</time>
      </trkpt>
      <trkpt lat="45.75959" lon="4.32404">
        <ele>595.15</ele>
        <time>2018-06-04T13:26:31Z</time>
      </trkpt>
      <trkpt lat="45.75954" lon="4.32398">
        <ele>594.588</ele>
        <time>2018-06-04T13:26:36Z</time>
      </trkpt>
      <trkpt lat="45.75948" lon="4.32394">
        <ele>594.355</ele>
        <time>2018-06-04T13:26:42Z</time>
      </trkpt>
      <trkpt lat="45.75941" lon="4.3239">
        <ele>594.234</ele>
        <time>2018-06-04T13:26:47Z</time>
      </trkpt>
      <trkpt lat="45.75932" lon="4.32384">
        <ele>593.808</ele>
        <time>2018-06-04T13:26:53Z</time>
      </trkpt>
      <trkpt lat="45.75925" lon="4.32381">
        <ele>593.374</ele>
        <time>2018-06-04T13:26:58Z</time>
      </trkpt>
      <trkpt lat="45.75921" lon="4.32378">
        <ele>592.99</ele>
        <time>2018-06-04T13:27:04Z</time>
      </trkpt>
      <trkpt lat="45.75915" lon="4.32376">
        <ele>592.776</ele>
        <time>2018-06-04T13:27:09Z</time>
      </trkpt>
      <trkpt lat="45.75908" lon="4.32371">
        <ele>592.626</ele>
        <time>2018-06-04T13:27:15Z</time>
      </trkpt>
      <trkpt lat="45.75904" lon="4.32369">
        <ele>592.325</ele>
        <time>2018-06-04T13:27:21Z</time>
      </trkpt>
      <trkpt lat="45.75902" lon="4.32369">
        <ele>591.76</ele>
        <time>2018-06-04T13:27:27Z</time>
      </trkpt>
      <trkpt lat="45.75903" lon="4.32369">
        <ele>591.603</ele>
        <time>2018-06-04T13:27:33Z</time>
      </trkpt>
      <trkpt lat="45.75904" lon="4.32371">
        <ele>591.558</ele>
        <time>2018-06-04T13:27:39Z</time>
      </trkpt>
      <trkpt lat="45.75904" lon="4.32366">
        <ele>591.222</ele>
        <time>2018-06-04T13:27:44Z</time>
      </trkpt>
      <trkpt lat="45.75904" lon="4.32364">
        <ele>590.513</ele>
        <time>2018-06-04T13:27:49Z</time>
      </trkpt>
      <trkpt lat="45.75905" lon="4.32368">
        <ele>590.313</ele>
        <time>2018-06-04T13:27:55Z</time>
      </trkpt>
      <trkpt lat="45.75905" lon="4.32368">
        <ele>590.209</ele>
        <time>2018-06-04T13:28:01Z</time>
      </trkpt>
      <trkpt lat="45.75904" lon="4.32369">
        <ele>589.941</ele>
        <time>2018-06-04T13:28:06Z</time>
      </trkpt>
      <trkpt lat="45.75905" lon="4.3237">
        <ele>590.017</ele>
        <time>2018-06-04T13:28:11Z</time>
      </trkpt>
      <trkpt lat="45.759" lon="4.32367">
        <ele>590.145</ele>
        <time>2018-06-04T13:28:16Z</time>
      </trkpt>
      <trkpt lat="45.75897" lon="4.32367">
        <ele>590.136</ele>
        <time>2018-06-04T13:28:22Z</time>
      </trkpt>
      <trkpt lat="45.7589" lon="4.32366">
        <ele>590.16</ele>
        <time>2018-06-04T13:28:27Z</time>
      </trkpt>
      <trkpt lat="45.75883" lon="4.32366">
        <ele>589.949</ele>
        <time>2018-06-04T13:28:33Z</time>
      </trkpt>
      <trkpt lat="45.75876" lon="4.32365">
        <ele>589.94</ele>
        <time>2018-06-04T13:28:39Z</time>
      </trkpt>
      <trkpt lat="45.7587" lon="4.32363">
        <ele>589.858</ele>
        <time>2018-06-04T13:28:44Z</time>
      </trkpt>
      <trkpt lat="45.75862" lon="4.32361">
        <ele>589.482</ele>
        <time>2018-06-04T13:28:50Z</time>
      </trkpt>
      <trkpt lat="45.75857" lon="4.3236">
        <ele>589.364</ele>
        <time>2018-06-04T13:28:55Z</time>
      </trkpt>
      <trkpt lat="45.75852" lon="4.32359">
        <ele>589.06</ele>
        <time>2018-06-04T13:29:00Z</time>
      </trkpt>
      <trkpt lat="45.75851" lon="4.3236">
        <ele>588.55</ele>
        <time>2018-06-04T13:29:06Z</time>
      </trkpt>
      <trkpt lat="45.75844" lon="4.3236">
        <ele>587.874</ele>
        <time>2018-06-04T13:29:11Z</time>
      </trkpt>
      <trkpt lat="45.75837" lon="4.3236">
        <ele>586.899</ele>
        <time>2018-06-04T13:29:17Z</time>
      </trkpt>
      <trkpt lat="45.75831" lon="4.32363">
        <ele>585.766</ele>
        <time>2018-06-04T13:29:23Z</time>
      </trkpt>
      <trkpt lat="45.75826" lon="4.32365">
        <ele>585.275</ele>
        <time>2018-06-04T13:29:28Z</time>
      </trkpt>
      <trkpt lat="45.75824" lon="4.32364">
        <ele>584.648</ele>
        <time>2018-06-04T13:29:34Z</time>
      </trkpt>
      <trkpt lat="45.75823" lon="4.32363">
        <ele>584.362</ele>
        <time>2018-06-04T13:29:39Z</time>
      </trkpt>
      <trkpt lat="45.75816" lon="4.32368">
        <ele>584.138</ele>
        <time>2018-06-04T13:29:45Z</time>
      </trkpt>
      <trkpt lat="45.75811" lon="4.32372">
        <ele>584.198</ele>
        <time>2018-06-04T13:29:50Z</time>
      </trkpt>
      <trkpt lat="45.75805" lon="4.32377">
        <ele>584.055</ele>
        <time>2018-06-04T13:29:55Z</time>
      </trkpt>
      <trkpt lat="45.75801" lon="4.32379">
        <ele>583.807</ele>
        <time>2018-06-04T13:30:00Z</time>
      </trkpt>
      <trkpt lat="45.75795" lon="4.32384">
        <ele>583.383</ele>
        <time>2018-06-04T13:30:06Z</time>
      </trkpt>
      <trkpt lat="45.7579" lon="4.32385">
        <ele>583.14</ele>
        <time>2018-06-04T13:30:11Z</time>
      </trkpt>
      <trkpt lat="45.75783" lon="4.32381">
        <ele>582.543</ele>
        <time>2018-06-04T13:30:17Z</time>
      </trkpt>
      <trkpt lat="45.75777" lon="4.32375">
        <ele>581.821</ele>
        <time>2018-06-04T13:30:22Z</time>
      </trkpt>
      <trkpt lat="45.75772" lon="4.32372">
        <ele>581.177</ele>
        <time>2018-06-04T13:30:28Z</time>
      </trkpt>
      <trkpt lat="45.75769" lon="4.32365">
        <ele>580.542</ele>
        <time>2018-06-04T13:30:33Z</time>
      </trkpt>
      <trkpt lat="45.75769" lon="4.32357">
        <ele>579.944</ele>
        <time>2018-06-04T13:30:38Z</time>
      </trkpt>
      <trkpt lat="45.75771" lon="4.32352">
        <ele>579.344</ele>
        <time>2018-06-04T13:30:43Z</time>
      </trkpt>
      <trkpt lat="45.75772" lon="4.32349">
        <ele>578.548</ele>
        <time>2018-06-04T13:30:48Z</time>
      </trkpt>
      <trkpt lat="45.75773" lon="4.32346">
        <ele>578.221</ele>
        <time>2018-06-04T13:30:53Z</time>
      </trkpt>
      <trkpt lat="45.75773" lon="4.32338">
        <ele>577.74</ele>
        <time>2018-06-04T13:30:59Z</time>
      </trkpt>
      <trkpt lat="45.75777" lon="4.32328">
        <ele>577.406</ele>
        <time>2018-06-04T13:31:04Z</time>
      </trkpt>
      <trkpt lat="45.75778" lon="4.32319">
        <ele>576.871</ele>
        <time>2018-06-04T13:31:10Z</time>
      </trkpt>
      <trkpt lat="45.75783" lon="4.32313">
        <ele>576.105</ele>
        <time>2018-06-04T13:31:16Z</time>
      </trkpt>
      <trkpt lat="45.75786" lon="4.32299">
        <ele>575.777</ele>
        <time>2018-06-04T13:31:21Z</time>
      </trkpt>
      <trkpt lat="45.75788" lon="4.32289">
        <ele>575.269</ele>
        <time>2018-06-04T13:31:27Z</time>
      </trkpt>
      <trkpt lat="45.7579" lon="4.32282">
        <ele>575.059</ele>
        <time>2018-06-04T13:31:33Z</time>
      </trkpt>
      <trkpt lat="45.75793" lon="4.32276">
        <ele>575.265</ele>
        <time>2018-06-04T13:31:38Z</time>
      </trkpt>
      <trkpt lat="45.75794" lon="4.32267">
        <ele>575.11</ele>
        <time>2018-06-04T13:31:44Z</time>
      </trkpt>
      <trkpt lat="45.75794" lon="4.32257">
        <ele>575.02</ele>
        <time>2018-06-04T13:31:49Z</time>
      </trkpt>
      <trkpt lat="45.75794" lon="4.32246">
        <ele>574.821</ele>
        <time>2018-06-04T13:31:55Z</time>
      </trkpt>
      <trkpt lat="45.75791" lon="4.32239">
        <ele>574.517</ele>
        <time>2018-06-04T13:32:01Z</time>
      </trkpt>
      <trkpt lat="45.75792" lon="4.32235">
        <ele>574.68</ele>
        <time>2018-06-04T13:32:07Z</time>
      </trkpt>
      <trkpt lat="45.75793" lon="4.32234">
        <ele>573.774</ele>
        <time>2018-06-04T13:32:12Z</time>
      </trkpt>
      <trkpt lat="45.75793" lon="4.32233">
        <ele>573.038</ele>
        <time>2018-06-04T13:32:18Z</time>
      </trkpt>
      <trkpt lat="45.75793" lon="4.32232">
        <ele>572.39</ele>
        <time>2018-06-04T13:32:23Z</time>
      </trkpt>
      <trkpt lat="45.75793" lon="4.32232">
        <ele>572.738</ele>
        <time>2018-06-04T13:32:28Z</time>
      </trkpt>
      <trkpt lat="45.75792" lon="4.32231">
        <ele>573.281</ele>
        <time>2018-06-04T13:32:34Z</time>
      </trkpt>
      <trkpt lat="45.75793" lon="4.32233">
        <ele>573.344</ele>
        <time>2018-06-04T13:32:40Z</time>
      </trkpt>
      <trkpt lat="45.75793" lon="4.32233">
        <ele>573.337</ele>
        <time>2018-06-04T13:32:45Z</time>
      </trkpt>
      <trkpt lat="45.75792" lon="4.32236">
        <ele>573.569</ele>
        <time>2018-06-04T13:32:50Z</time>
      </trkpt>
      <trkpt lat="45.75792" lon="4.32236">
        <ele>573.465</ele>
        <time>2018-06-04T13:32:56Z</time>
      </trkpt>
      <trkpt lat="45.75792" lon="4.32237">
        <ele>573.374</ele>
        <time>2018-06-04T13:33:02Z</time>
      </trkpt>
      <trkpt lat="45.75793" lon="4.32241">
        <ele>573.526</ele>
        <time>2018-06-04T13:33:08Z</time>
      </trkpt>
      <trkpt lat="45.75793" lon="4.32248">
        <ele>573.486</ele>
        <time>2018-06-04T13:33:14Z</time>
      </trkpt>
      <trkpt lat="45.75793" lon="4.32252">
        <ele>573.539</ele>
        <time>2018-06-04T13:33:20Z</time>
      </trkpt>
      <trkpt lat="45.75794" lon="4.32254">
        <ele>574.301</ele>
        <time>2018-06-04T13:33:26Z</time>
      </trkpt>
      <trkpt lat="45.75792" lon="4.32254">
        <ele>575.04</ele>
        <time>2018-06-04T13:33:31Z</time>
      </trkpt>
      <trkpt lat="45.75792" lon="4.32256">
        <ele>575.484</ele>
        <time>2018-06-04T13:33:37Z</time>
      </trkpt>
      <trkpt lat="45.75792" lon="4.32261">
        <ele>576.021</ele>
        <time>2018-06-04T13:33:42Z</time>
      </trkpt>
      <trkpt lat="45.75792" lon="4.32267">
        <ele>576.409</ele>
        <time>2018-06-04T13:33:48Z</time>
      </trkpt>
      <trkpt lat="45.75787" lon="4.32266">
        <ele>576.261</ele>
        <time>2018-06-04T13:33:53Z</time>
      </trkpt>
      <trkpt lat="45.75785" lon="4.32259">
        <ele>576.013</ele>
        <time>2018-06-04T13:33:59Z</time>
      </trkpt>
      <trkpt lat="45.75781" lon="4.32253">
        <ele>576.21</ele>
        <time>2018-06-04T13:34:05Z</time>
      </trkpt>
      <trkpt lat="45.75779" lon="4.32249">
        <ele>575.27</ele>
        <time>2018-06-04T13:34:10Z</time>
      </trkpt>
      <trkpt lat="45.75774" lon="4.32241">
        <ele>574.25</ele>
        <time>2018-06-04T13:34:15Z</time>
      </trkpt>
      <trkpt lat="45.75772" lon="4.32237">
        <ele>573.37</ele>
        <time>2018-06-04T13:34:21Z</time>
      </trkpt>
      <trkpt lat="45.75765" lon="4.32227">
        <ele>572.182</ele>
        <time>2018-06-04T13:34:27Z</time>
      </trkpt>
      <trkpt lat="45.75755" lon="4.3222">
        <ele>571.316</ele>
        <time>2018-06-04T13:34:33Z</time>
      </trkpt>
      <trkpt lat="45.75751" lon="4.32216">
        <ele>570.801</ele>
        <time>2018-06-04T13:34:38Z</time>
      </trkpt>
      <trkpt lat="45.75749" lon="4.32213">
        <ele>570.185</ele>
        <time>2018-06-04T13:34:44Z</time>
      </trkpt>
      <trkpt lat="45.75744" lon="4.32206">
        <ele>569.487</ele>
        <time>2018-06-04T13:34:50Z</time>
      </trkpt>
      <trkpt lat="45.75741" lon="4.32203">
        <ele>569.056</ele>
        <time>2018-06-04T13:34:55Z</time>
      </trkpt>
      <trkpt lat="45.75735" lon="4.322">
        <ele>568.012</ele>
        <time>2018-06-04T13:35:01Z</time>
      </trkpt>
      <trkpt lat="45.75731" lon="4.32197">
        <ele>567.382</ele>
        <time>2018-06-04T13:35:06Z</time>
      </trkpt>
      <trkpt lat="45.75726" lon="4.32191">
        <ele>567.029</ele>
        <time>2018-06-04T13:35:12Z</time>
      </trkpt>
      <trkpt lat="45.7572" lon="4.32186">
        <ele>566.785</ele>
        <time>2018-06-04T13:35:18Z</time>
      </trkpt>
      <trkpt lat="45.75714" lon="4.32181">
        <ele>566.737</ele>
        <time>2018-06-04T13:35:23Z</time>
      </trkpt>
      <trkpt lat="45.75706" lon="4.32178">
        <ele>566.785</ele>
        <time>2018-06-04T13:35:28Z</time>
      </trkpt>
      <trkpt lat="45.75701" lon="4.32176">
        <ele>566.714</ele>
        <time>2018-06-04T13:35:33Z</time>
      </trkpt>
      <trkpt lat="45.75698" lon="4.32174">
        <ele>566.447</ele>
        <time>2018-06-04T13:35:39Z</time>
      </trkpt>
      <trkpt lat="45.75693" lon="4.32171">
        <ele>565.681</ele>
        <time>2018-06-04T13:35:45Z</time>
      </trkpt>
      <trkpt lat="45.75686" lon="4.32169">
        <ele>565.166</ele>
        <time>2018-06-04T13:35:51Z</time>
      </trkpt>
      <trkpt lat="45.75682" lon="4.32168">
        <ele>564.415</ele>
        <time>2018-06-04T13:35:56Z</time>
      </trkpt>
      <trkpt lat="45.75676" lon="4.32168">
        <ele>563.942</ele>
        <time>2018-06-04T13:36:01Z</time>
      </trkpt>
      <trkpt lat="45.75671" lon="4.32168">
        <ele>563.948</ele>
        <time>2018-06-04T13:36:06Z</time>
      </trkpt>
      <trkpt lat="45.75664" lon="4.32164">
        <ele>563.5</ele>
        <time>2018-06-04T13:36:12Z</time>
      </trkpt>
      <trkpt lat="45.75659" lon="4.32163">
        <ele>562.643</ele>
        <time>2018-06-04T13:36:18Z</time>
      </trkpt>
      <trkpt lat="45.75651" lon="4.32162">
        <ele>561.901</ele>
        <time>2018-06-04T13:36:23Z</time>
      </trkpt>
      <trkpt lat="45.75647" lon="4.32161">
        <ele>560.822</ele>
        <time>2018-06-04T13:36:29Z</time>
      </trkpt>
      <trkpt lat="45.75641" lon="4.32157">
        <ele>560.015</ele>
        <time>2018-06-04T13:36:35Z</time>
      </trkpt>
      <trkpt lat="45.75636" lon="4.32154">
        <ele>558.818</ele>
        <time>2018-06-04T13:36:41Z</time>
      </trkpt>
      <trkpt lat="45.75632" lon="4.32151">
        <ele>557.997</ele>
        <time>2018-06-04T13:36:46Z</time>
      </trkpt>
      <trkpt lat="45.7563" lon="4.3215">
        <ele>557.481</ele>
        <time>2018-06-04T13:36:51Z</time>
      </trkpt>
      <trkpt lat="45.7563" lon="4.32149">
        <ele>557.439</ele>
        <time>2018-06-04T13:36:57Z</time>
      </trkpt>
      <trkpt lat="45.75629" lon="4.32146">
        <ele>557.061</ele>
        <time>2018-06-04T13:37:03Z</time>
      </trkpt>
      <trkpt lat="45.75629" lon="4.32145">
        <ele>555.783</ele>
        <time>2018-06-04T13:37:09Z</time>
      </trkpt>
      <trkpt lat="45.75628" lon="4.32146">
        <ele>554.538</ele>
        <time>2018-06-04T13:37:14Z</time>
      </trkpt>
      <trkpt lat="45.75624" lon="4.32145">
        <ele>553.591</ele>
        <time>2018-06-04T13:37:19Z</time>
      </trkpt>
      <trkpt lat="45.7562" lon="4.32141">
        <ele>552.908</ele>
        <time>2018-06-04T13:37:24Z</time>
      </trkpt>
      <trkpt lat="45.75615" lon="4.32137">
        <ele>552.212</ele>
        <time>2018-06-04T13:37:30Z</time>
      </trkpt>
      <trkpt lat="45.7561" lon="4.32135">
        <ele>551.406</ele>
        <time>2018-06-04T13:37:35Z</time>
      </trkpt>
      <trkpt lat="45.75606" lon="4.32132">
        <ele>551.004</ele>
        <time>2018-06-04T13:37:41Z</time>
      </trkpt>
      <trkpt lat="45.75601" lon="4.32128">
        <ele>550.381</ele>
        <time>2018-06-04T13:37:46Z</time>
      </trkpt>
      <trkpt lat="45.75595" lon="4.32127">
        <ele>549.66</ele>
        <time>2018-06-04T13:37:52Z</time>
      </trkpt>
      <trkpt lat="45.75591" lon="4.32127">
        <ele>549.087</ele>
        <time>2018-06-04T13:37:58Z</time>
      </trkpt>
      <trkpt lat="45.75581" lon="4.32132">
        <ele>548.217</ele>
        <time>2018-06-04T13:38:04Z</time>
      </trkpt>
      <trkpt lat="45.75576" lon="4.32133">
        <ele>547.483</ele>
        <time>2018-06-04T13:38:10Z</time>
      </trkpt>
      <trkpt lat="45.75565" lon="4.32135">
        <ele>547.269</ele>
        <time>2018-06-04T13:38:16Z</time>
      </trkpt>
      <trkpt lat="45.75557" lon="4.32138">
        <ele>547.435</ele>
        <time>2018-06-04T13:38:21Z</time>
      </trkpt>
      <trkpt lat="45.75552" lon="4.32139">
        <ele>548.124</ele>
        <time>2018-06-04T13:38:27Z</time>
      </trkpt>
      <trkpt lat="45.75547" lon="4.32139">
        <ele>548.777</ele>
        <time>2018-06-04T13:38:32Z</time>
      </trkpt>
      <trkpt lat="45.75547" lon="4.32139">
        <ele>549.079</ele>
        <time>2018-06-04T13:38:38Z</time>
      </trkpt>
      <trkpt lat="45.75541" lon="4.3214">
        <ele>548.572</ele>
        <time>2018-06-04T13:38:44Z</time>
      </trkpt>
      <trkpt lat="45.75535" lon="4.32144">
        <ele>547.093</ele>
        <time>2018-06-04T13:38:50Z</time>
      </trkpt>
      <trkpt lat="45.75527" lon="4.32142">
        <ele>546.271</ele>
        <time>2018-06-04T13:38:56Z</time>
      </trkpt>
      <trkpt lat="45.75521" lon="4.32143">
        <ele>545.327</ele>
        <time>2018-06-04T13:39:01Z</time>
      </trkpt>
      <trkpt lat="45.75513" lon="4.32143">
        <ele>544.429</ele>
        <time>2018-06-04T13:39:06Z</time>
      </trkpt>
      <trkpt lat="45.75506" lon="4.32148">
        <ele>543.703</ele>
        <time>2018-06-04T13:39:12Z</time>
      </trkpt>
      <trkpt lat="45.75501" lon="4.3215">
        <ele>543.269</ele>
        <time>2018-06-04T13:39:17Z</time>
      </trkpt>
      <trkpt lat="45.75494" lon="4.32153">
        <ele>542.359</ele>
        <time>2018-06-04T13:39:22Z</time>
      </trkpt>
      <trkpt lat="45.75486" lon="4.32151">
        <ele>541.109</ele>
        <time>2018-06-04T13:39:28Z</time>
      </trkpt>
      <trkpt lat="45.75478" lon="4.32147">
        <ele>539.81</ele>
        <time>2018-06-04T13:39:34Z</time>
      </trkpt>
      <trkpt lat="45.75474" lon="4.32147">
        <ele>538.968</ele>
        <time>2018-06-04T13:39:39Z</time>
      </trkpt>
      <trkpt lat="45.75467" lon="4.32146">
        <ele>538.662</ele>
        <time>2018-06-04T13:39:44Z</time>
      </trkpt>
      <trkpt lat="45.75459" lon="4.32138">
        <ele>537.559</ele>
        <time>2018-06-04T13:39:50Z</time>
      </trkpt>
      <trkpt lat="45.75453" lon="4.32136">
        <ele>536.508</ele>
        <time>2018-06-04T13:39:55Z</time>
      </trkpt>
      <trkpt lat="45.75448" lon="4.32132">
        <ele>534.987</ele>
        <time>2018-06-04T13:40:01Z</time>
      </trkpt>
      <trkpt lat="45.75445" lon="4.32125">
        <ele>533.187</ele>
        <time>2018-06-04T13:40:07Z</time>
      </trkpt>
      <trkpt lat="45.7544" lon="4.32119">
        <ele>531.478</ele>
        <time>2018-06-04T13:40:13Z</time>
      </trkpt>
      <trkpt lat="45.7544" lon="4.32123">
        <ele>530.251</ele>
        <time>2018-06-04T13:40:18Z</time>
      </trkpt>
      <trkpt lat="45.75443" lon="4.3213">
        <ele>528.881</ele>
        <time>2018-06-04T13:40:24Z</time>
      </trkpt>
      <trkpt lat="45.75446" lon="4.32137">
        <ele>527.976</ele>
        <time>2018-06-04T13:40:30Z</time>
      </trkpt>
      <trkpt lat="45.75448" lon="4.32143">
        <ele>527.447</ele>
        <time>2018-06-04T13:40:36Z</time>
      </trkpt>
      <trkpt lat="45.75449" lon="4.32148">
        <ele>526.763</ele>
        <time>2018-06-04T13:40:42Z</time>
      </trkpt>
      <trkpt lat="45.75449" lon="4.3216">
        <ele>525.629</ele>
        <time>2018-06-04T13:40:48Z</time>
      </trkpt>
      <trkpt lat="45.75448" lon="4.32168">
        <ele>524.704</ele>
        <time>2018-06-04T13:40:53Z</time>
      </trkpt>
      <trkpt lat="45.75448" lon="4.32177">
        <ele>523.785</ele>
        <time>2018-06-04T13:40:58Z</time>
      </trkpt>
      <trkpt lat="45.75447" lon="4.32187">
        <ele>522.962</ele>
        <time>2018-06-04T13:41:04Z</time>
      </trkpt>
      <trkpt lat="45.75448" lon="4.32195">
        <ele>522.044</ele>
        <time>2018-06-04T13:41:09Z</time>
      </trkpt>
      <trkpt lat="45.75448" lon="4.32201">
        <ele>521.328</ele>
        <time>2018-06-04T13:41:14Z</time>
      </trkpt>
      <trkpt lat="45.75447" lon="4.3221">
        <ele>520.822</ele>
        <time>2018-06-04T13:41:19Z</time>
      </trkpt>
      <trkpt lat="45.75445" lon="4.32214">
        <ele>520.191</ele>
        <time>2018-06-04T13:41:25Z</time>
      </trkpt>
      <trkpt lat="45.75445" lon="4.32223">
        <ele>520.048</ele>
        <time>2018-06-04T13:41:30Z</time>
      </trkpt>
      <trkpt lat="45.75444" lon="4.32234">
        <ele>520.108</ele>
        <time>2018-06-04T13:41:36Z</time>
      </trkpt>
      <trkpt lat="45.75444" lon="4.32245">
        <ele>520.584</ele>
        <time>2018-06-04T13:41:42Z</time>
      </trkpt>
      <trkpt lat="45.75443" lon="4.32253">
        <ele>520.499</ele>
        <time>2018-06-04T13:41:48Z</time>
      </trkpt>
      <trkpt lat="45.75444" lon="4.32262">
        <ele>520.094</ele>
        <time>2018-06-04T13:41:54Z</time>
      </trkpt>
      <trkpt lat="45.75443" lon="4.32265">
        <ele>520.009</ele>
        <time>2018-06-04T13:41:59Z</time>
      </trkpt>
      <trkpt lat="45.75444" lon="4.32271">
        <ele>519.8</ele>
        <time>2018-06-04T13:42:04Z</time>
      </trkpt>
      <trkpt lat="45.75447" lon="4.32279">
        <ele>519.39</ele>
        <time>2018-06-04T13:42:10Z</time>
      </trkpt>
      <trkpt lat="45.75447" lon="4.32286">
        <ele>518.877</ele>
        <time>2018-06-04T13:42:16Z</time>
      </trkpt>
      <trkpt lat="45.75449" lon="4.32294">
        <ele>518.821</ele>
        <time>2018-06-04T13:42:21Z</time>
      </trkpt>
      <trkpt lat="45.75449" lon="4.32299">
        <ele>518.389</ele>
        <time>2018-06-04T13:42:26Z</time>
      </trkpt>
      <trkpt lat="45.75449" lon="4.32309">
        <ele>517.998</ele>
        <time>2018-06-04T13:42:32Z</time>
      </trkpt>
      <trkpt lat="45.75449" lon="4.32314">
        <ele>517.622</ele>
        <time>2018-06-04T13:42:38Z</time>
      </trkpt>
      <trkpt lat="45.75449" lon="4.32321">
        <ele>517.892</ele>
        <time>2018-06-04T13:42:44Z</time>
      </trkpt>
      <trkpt lat="45.75449" lon="4.3233">
        <ele>517.996</ele>
        <time>2018-06-04T13:42:49Z</time>
      </trkpt>
      <trkpt lat="45.75446" lon="4.32342">
        <ele>518.168</ele>
        <time>2018-06-04T13:42:55Z</time>
      </trkpt>
      <trkpt lat="45.75445" lon="4.32349">
        <ele>518.475</ele>
        <time>2018-06-04T13:43:00Z</time>
      </trkpt>
      <trkpt lat="45.75443" lon="4.32354">
        <ele>519.026</ele>
        <time>2018-06-04T13:43:06Z</time>
      </trkpt>
      <trkpt lat="45.75438" lon="4.32361">
        <ele>518.91</ele>
        <time>2018-06-04T13:43:11Z</time>
      </trkpt>
      <trkpt lat="45.75434" lon="4.32369">
        <ele>519.015</ele>
        <time>2018-06-04T13:43:16Z</time>
      </trkpt>
      <trkpt lat="45.75429" lon="4.3238">
        <ele>519.455</ele>
        <time>2018-06-04T13:43:22Z</time>
      </trkpt>
      <trkpt lat="45.75426" lon="4.32387">
        <ele>519.691</ele>
        <time>2018-06-04T13:43:28Z</time>
      </trkpt>
      <trkpt lat="45.75423" lon="4.32397">
        <ele>519.629</ele>
        <time>2018-06-04T13:43:34Z</time>
      </trkpt>
      <trkpt lat="45.7542" lon="4.32402">
        <ele>519.636</ele>
        <time>2018-06-04T13:43:39Z</time>
      </trkpt>
      <trkpt lat="45.75419" lon="4.3241">
        <ele>519.59</ele>
        <time>2018-06-04T13:43:45Z</time>
      </trkpt>
      <trkpt lat="45.75417" lon="4.32415">
        <ele>519.467</ele>
        <time>2018-06-04T13:43:50Z</time>
      </trkpt>
      <trkpt lat="45.75417" lon="4.32423">
        <ele>519.236</ele>
        <time>2018-06-04T13:43:56Z</time>
      </trkpt>
      <trkpt lat="45.75418" lon="4.32428">
        <ele>518.908</ele>
        <time>2018-06-04T13:44:01Z</time>
      </trkpt>
      <trkpt lat="45.75418" lon="4.32438">
        <ele>518.697</ele>
        <time>2018-06-04T13:44:07Z</time>
      </trkpt>
      <trkpt lat="45.75418" lon="4.32448">
        <ele>518.505</ele>
        <time>2018-06-04T13:44:12Z</time>
      </trkpt>
      <trkpt lat="45.75417" lon="4.32455">
        <ele>518.482</ele>
        <time>2018-06-04T13:44:17Z</time>
      </trkpt>
      <trkpt lat="45.75419" lon="4.32463">
        <ele>518.877</ele>
        <time>2018-06-04T13:44:24Z</time>
      </trkpt>
      <trkpt lat="45.75419" lon="4.32473">
        <ele>519.28</ele>
        <time>2018-06-04T13:44:29Z</time>
      </trkpt>
      <trkpt lat="45.75419" lon="4.32479">
        <ele>519.739</ele>
        <time>2018-06-04T13:44:35Z</time>
      </trkpt>
      <trkpt lat="45.75421" lon="4.32484">
        <ele>519.762</ele>
        <time>2018-06-04T13:44:41Z</time>
      </trkpt>
      <trkpt lat="45.75423" lon="4.3249">
        <ele>519.665</ele>
        <time>2018-06-04T13:44:46Z</time>
      </trkpt>
      <trkpt lat="45.75427" lon="4.32498">
        <ele>519.288</ele>
        <time>2018-06-04T13:44:51Z</time>
      </trkpt>
      <trkpt lat="45.75429" lon="4.32505">
        <ele>519.448</ele>
        <time>2018-06-04T13:44:57Z</time>
      </trkpt>
      <trkpt lat="45.7543" lon="4.32513">
        <ele>519.422</ele>
        <time>2018-06-04T13:45:03Z</time>
      </trkpt>
      <trkpt lat="45.75429" lon="4.32516">
        <ele>519.518</ele>
        <time>2018-06-04T13:45:09Z</time>
      </trkpt>
      <trkpt lat="45.75426" lon="4.32518">
        <ele>519.414</ele>
        <time>2018-06-04T13:45:15Z</time>
      </trkpt>
      <trkpt lat="45.75425" lon="4.32518">
        <ele>519.61</ele>
        <time>2018-06-04T13:45:21Z</time>
      </trkpt>
      <trkpt lat="45.75425" lon="4.32518">
        <ele>519.401</ele>
        <time>2018-06-04T13:45:27Z</time>
      </trkpt>
      <trkpt lat="45.75425" lon="4.32516">
        <ele>519.483</ele>
        <time>2018-06-04T13:45:32Z</time>
      </trkpt>
      <trkpt lat="45.75425" lon="4.32519">
        <ele>519.613</ele>
        <time>2018-06-04T13:45:38Z</time>
      </trkpt>
      <trkpt lat="45.75423" lon="4.32529">
        <ele>519.482</ele>
        <time>2018-06-04T13:45:45Z</time>
      </trkpt>
      <trkpt lat="45.75422" lon="4.32539">
        <ele>519.087</ele>
        <time>2018-06-04T13:45:50Z</time>
      </trkpt>
      <trkpt lat="45.75423" lon="4.32551">
        <ele>519.466</ele>
        <time>2018-06-04T13:45:56Z</time>
      </trkpt>
      <trkpt lat="45.75425" lon="4.32565">
        <ele>519.995</ele>
        <time>2018-06-04T13:46:02Z</time>
      </trkpt>
      <trkpt lat="45.75427" lon="4.32574">
        <ele>520.943</ele>
        <time>2018-06-04T13:46:08Z</time>
      </trkpt>
      <trkpt lat="45.75427" lon="4.32584">
        <ele>521.87</ele>
        <time>2018-06-04T13:46:14Z</time>
      </trkpt>
      <trkpt lat="45.75422" lon="4.32599">
        <ele>522.43</ele>
        <time>2018-06-04T13:46:19Z</time>
      </trkpt>
      <trkpt lat="45.75414" lon="4.32612">
        <ele>524.376</ele>
        <time>2018-06-04T13:46:25Z</time>
      </trkpt>
      <trkpt lat="45.75405" lon="4.3263">
        <ele>526.154</ele>
        <time>2018-06-04T13:46:30Z</time>
      </trkpt>
      <trkpt lat="45.75387" lon="4.32642">
        <ele>529.344</ele>
        <time>2018-06-04T13:46:36Z</time>
      </trkpt>
      <trkpt lat="45.75382" lon="4.32641">
        <ele>531.32</ele>
        <time>2018-06-04T13:46:42Z</time>
      </trkpt>
      <trkpt lat="45.75376" lon="4.32638">
        <ele>533.235</ele>
        <time>2018-06-04T13:46:48Z</time>
      </trkpt>
      <trkpt lat="45.75373" lon="4.32639">
        <ele>534.312</ele>
        <time>2018-06-04T13:46:53Z</time>
      </trkpt>
      <trkpt lat="45.75376" lon="4.32639">
        <ele>534.82</ele>
        <time>2018-06-04T13:46:58Z</time>
      </trkpt>
      <trkpt lat="45.75383" lon="4.32636">
        <ele>533.617</ele>
        <time>2018-06-04T13:47:04Z</time>
      </trkpt>
      <trkpt lat="45.75388" lon="4.32633">
        <ele>532.432</ele>
        <time>2018-06-04T13:47:09Z</time>
      </trkpt>
      <trkpt lat="45.75392" lon="4.32642">
        <ele>531.224</ele>
        <time>2018-06-04T13:47:15Z</time>
      </trkpt>
      <trkpt lat="45.75391" lon="4.3265">
        <ele>530.434</ele>
        <time>2018-06-04T13:47:21Z</time>
      </trkpt>
      <trkpt lat="45.75389" lon="4.32662">
        <ele>529.604</ele>
        <time>2018-06-04T13:47:27Z</time>
      </trkpt>
      <trkpt lat="45.75388" lon="4.3267">
        <ele>528.807</ele>
        <time>2018-06-04T13:47:32Z</time>
      </trkpt>
      <trkpt lat="45.75387" lon="4.32682">
        <ele>527.479</ele>
        <time>2018-06-04T13:47:38Z</time>
      </trkpt>
      <trkpt lat="45.75385" lon="4.32692">
        <ele>526.25</ele>
        <time>2018-06-04T13:47:44Z</time>
      </trkpt>
      <trkpt lat="45.75383" lon="4.32702">
        <ele>525.276</ele>
        <time>2018-06-04T13:47:50Z</time>
      </trkpt>
      <trkpt lat="45.75383" lon="4.3271">
        <ele>524.42</ele>
        <time>2018-06-04T13:47:55Z</time>
      </trkpt>
      <trkpt lat="45.75381" lon="4.32725">
        <ele>523.566</ele>
        <time>2018-06-04T13:48:00Z</time>
      </trkpt>
      <trkpt lat="45.75381" lon="4.32733">
        <ele>522.907</ele>
        <time>2018-06-04T13:48:05Z</time>
      </trkpt>
      <trkpt lat="45.7538" lon="4.32745">
        <ele>522.175</ele>
        <time>2018-06-04T13:48:11Z</time>
      </trkpt>
      <trkpt lat="45.75381" lon="4.32754">
        <ele>521.298</ele>
        <time>2018-06-04T13:48:17Z</time>
      </trkpt>
      <trkpt lat="45.75381" lon="4.32763">
        <ele>521.049</ele>
        <time>2018-06-04T13:48:23Z</time>
      </trkpt>
      <trkpt lat="45.75377" lon="4.32767">
        <ele>520.801</ele>
        <time>2018-06-04T13:48:28Z</time>
      </trkpt>
      <trkpt lat="45.75373" lon="4.32773">
        <ele>520.229</ele>
        <time>2018-06-04T13:48:34Z</time>
      </trkpt>
      <trkpt lat="45.7537" lon="4.32779">
        <ele>520.006</ele>
        <time>2018-06-04T13:48:40Z</time>
      </trkpt>
      <trkpt lat="45.75366" lon="4.32786">
        <ele>519.512</ele>
        <time>2018-06-04T13:48:46Z</time>
      </trkpt>
      <trkpt lat="45.75364" lon="4.32794">
        <ele>519.049</ele>
        <time>2018-06-04T13:48:51Z</time>
      </trkpt>
      <trkpt lat="45.75358" lon="4.328">
        <ele>518.555</ele>
        <time>2018-06-04T13:48:57Z</time>
      </trkpt>
      <trkpt lat="45.75352" lon="4.32798">
        <ele>518.237</ele>
        <time>2018-06-04T13:49:03Z</time>
      </trkpt>
      <trkpt lat="45.75347" lon="4.32797">
        <ele>517.887</ele>
        <time>2018-06-04T13:49:08Z</time>
      </trkpt>
      <trkpt lat="45.75339" lon="4.32792">
        <ele>517.301</ele>
        <time>2018-06-04T13:49:14Z</time>
      </trkpt>
      <trkpt lat="45.75332" lon="4.32791">
        <ele>516.591</ele>
        <time>2018-06-04T13:49:19Z</time>
      </trkpt>
      <trkpt lat="45.75325" lon="4.3279">
        <ele>515.805</ele>
        <time>2018-06-04T13:49:25Z</time>
      </trkpt>
      <trkpt lat="45.7532" lon="4.3279">
        <ele>515.322</ele>
        <time>2018-06-04T13:49:31Z</time>
      </trkpt>
      <trkpt lat="45.75319" lon="4.3279">
        <ele>515.066</ele>
        <time>2018-06-04T13:49:37Z</time>
      </trkpt>
      <trkpt lat="45.75319" lon="4.32787">
        <ele>515.136</ele>
        <time>2018-06-04T13:49:42Z</time>
      </trkpt>
      <trkpt lat="45.75316" lon="4.32785">
        <ele>515.183</ele>
        <time>2018-06-04T13:49:47Z</time>
      </trkpt>
      <trkpt lat="45.75313" lon="4.32785">
        <ele>514.545</ele>
        <time>2018-06-04T13:49:52Z</time>
      </trkpt>
      <trkpt lat="45.75304" lon="4.32787">
        <ele>514.193</ele>
        <time>2018-06-04T13:49:58Z</time>
      </trkpt>
      <trkpt lat="45.75296" lon="4.32785">
        <ele>514.019</ele>
        <time>2018-06-04T13:50:04Z</time>
      </trkpt>
      <trkpt lat="45.75293" lon="4.32783">
        <ele>513.839</ele>
        <time>2018-06-04T13:50:09Z</time>
      </trkpt>
      <trkpt lat="45.75285" lon="4.32779">
        <ele>512.934</ele>
        <time>2018-06-04T13:50:15Z</time>
      </trkpt>
      <trkpt lat="45.75279" lon="4.32772">
        <ele>512.344</ele>
        <time>2018-06-04T13:50:21Z</time>
      </trkpt>
      <trkpt lat="45.75273" lon="4.32777">
        <ele>512.578</ele>
        <time>2018-06-04T13:50:26Z</time>
      </trkpt>
      <trkpt lat="45.75273" lon="4.32782">
        <ele>512.794</ele>
        <time>2018-06-04T13:50:32Z</time>
      </trkpt>
      <trkpt lat="45.75274" lon="4.32783">
        <ele>513.024</ele>
        <time>2018-06-04T13:50:38Z</time>
      </trkpt>
      <trkpt lat="45.75274" lon="4.32784">
        <ele>512.961</ele>
        <time>2018-06-04T13:50:43Z</time>
      </trkpt>
      <trkpt lat="45.75274" lon="4.32783">
        <ele>512.928</ele>
        <time>2018-06-04T13:50:48Z</time>
      </trkpt>
      <trkpt lat="45.75273" lon="4.32783">
        <ele>512.91</ele>
        <time>2018-06-04T13:50:54Z</time>
      </trkpt>
      <trkpt lat="45.75273" lon="4.32784">
        <ele>512.93</ele>
        <time>2018-06-04T13:50:59Z</time>
      </trkpt>
      <trkpt lat="45.75274" lon="4.32783">
        <ele>512.885</ele>
        <time>2018-06-04T13:51:05Z</time>
      </trkpt>
      <trkpt lat="45.75274" lon="4.32783">
        <ele>512.818</ele>
        <time>2018-06-04T13:51:10Z</time>
      </trkpt>
      <trkpt lat="45.75274" lon="4.32783">
        <ele>512.67</ele>
        <time>2018-06-04T13:51:15Z</time>
      </trkpt>
      <trkpt lat="45.75274" lon="4.32783">
        <ele>512.553</ele>
        <time>2018-06-04T13:51:21Z</time>
      </trkpt>
      <trkpt lat="45.75274" lon="4.32783">
        <ele>512.475</ele>
        <time>2018-06-04T13:51:26Z</time>
      </trkpt>
      <trkpt lat="45.75274" lon="4.32783">
        <ele>512.492</ele>
        <time>2018-06-04T13:51:32Z</time>
      </trkpt>
      <trkpt lat="45.75274" lon="4.32783">
        <ele>512.61</ele>
        <time>2018-06-04T13:51:38Z</time>
      </trkpt>
      <trkpt lat="45.75274" lon="4.32783">
        <ele>512.638</ele>
        <time>2018-06-04T13:51:43Z</time>
      </trkpt>
      <trkpt lat="45.75274" lon="4.32783">
        <ele>512.614</ele>
        <time>2018-06-04T13:51:48Z</time>
      </trkpt>
      <trkpt lat="45.75274" lon="4.32783">
        <ele>512.533</ele>
        <time>2018-06-04T13:51:53Z</time>
      </trkpt>
      <trkpt lat="45.75274" lon="4.32783">
        <ele>512.494</ele>
        <time>2018-06-04T13:51:59Z</time>
      </trkpt>
      <trkpt lat="45.75274" lon="4.32783">
        <ele>512.538</ele>
        <time>2018-06-04T13:52:05Z</time>
      </trkpt>
      <trkpt lat="45.75274" lon="4.32783">
        <ele>512.541</ele>
        <time>2018-06-04T13:52:10Z</time>
      </trkpt>
      <trkpt lat="45.75274" lon="4.32778">
        <ele>512.476</ele>
        <time>2018-06-04T13:52:16Z</time>
      </trkpt>
      <trkpt lat="45.75273" lon="4.32776">
        <ele>512.085</ele>
        <time>2018-06-04T13:52:21Z</time>
      </trkpt>
      <trkpt lat="45.75275" lon="4.32775">
        <ele>511.715</ele>
        <time>2018-06-04T13:52:27Z</time>
      </trkpt>
      <trkpt lat="45.75277" lon="4.32776">
        <ele>511.668</ele>
        <time>2018-06-04T13:52:32Z</time>
      </trkpt>
      <trkpt lat="45.75277" lon="4.32776">
        <ele>511.686</ele>
        <time>2018-06-04T13:52:38Z</time>
      </trkpt>
      <trkpt lat="45.75277" lon="4.32776">
        <ele>511.667</ele>
        <time>2018-06-04T13:52:43Z</time>
      </trkpt>
      <trkpt lat="45.75277" lon="4.32776">
        <ele>511.68</ele>
        <time>2018-06-04T13:52:49Z</time>
      </trkpt>
      <trkpt lat="45.75277" lon="4.32776">
        <ele>511.706</ele>
        <time>2018-06-04T13:52:54Z</time>
      </trkpt>
      <trkpt lat="45.75274" lon="4.32772">
        <ele>511.484</ele>
        <time>2018-06-04T13:52:59Z</time>
      </trkpt>
      <trkpt lat="45.75268" lon="4.32764">
        <ele>511.414</ele>
        <time>2018-06-04T13:53:04Z</time>
      </trkpt>
      <trkpt lat="45.75263" lon="4.32757">
        <ele>511.312</ele>
        <time>2018-06-04T13:53:10Z</time>
      </trkpt>
      <trkpt lat="45.7526" lon="4.32749">
        <ele>511.003</ele>
        <time>2018-06-04T13:53:16Z</time>
      </trkpt>
      <trkpt lat="45.75258" lon="4.32743">
        <ele>510.706</ele>
        <time>2018-06-04T13:53:21Z</time>
      </trkpt>
      <trkpt lat="45.75253" lon="4.32735">
        <ele>510.453</ele>
        <time>2018-06-04T13:53:27Z</time>
      </trkpt>
      <trkpt lat="45.75249" lon="4.32729">
        <ele>510.462</ele>
        <time>2018-06-04T13:53:33Z</time>
      </trkpt>
      <trkpt lat="45.75246" lon="4.32721">
        <ele>510.439</ele>
        <time>2018-06-04T13:53:39Z</time>
      </trkpt>
      <trkpt lat="45.75244" lon="4.32714">
        <ele>510.513</ele>
        <time>2018-06-04T13:53:44Z</time>
      </trkpt>
      <trkpt lat="45.75241" lon="4.32707">
        <ele>510.781</ele>
        <time>2018-06-04T13:53:50Z</time>
      </trkpt>
      <trkpt lat="45.75237" lon="4.327">
        <ele>511.057</ele>
        <time>2018-06-04T13:53:56Z</time>
      </trkpt>
      <trkpt lat="45.75237" lon="4.32697">
        <ele>511.431</ele>
        <time>2018-06-04T13:54:01Z</time>
      </trkpt>
      <trkpt lat="45.75236" lon="4.32691">
        <ele>511.886</ele>
        <time>2018-06-04T13:54:07Z</time>
      </trkpt>
      <trkpt lat="45.75235" lon="4.32689">
        <ele>512.232</ele>
        <time>2018-06-04T13:54:12Z</time>
      </trkpt>
      <trkpt lat="45.75236" lon="4.32688">
        <ele>512.121</ele>
        <time>2018-06-04T13:54:18Z</time>
      </trkpt>
      <trkpt lat="45.75236" lon="4.32686">
        <ele>511.599</ele>
        <time>2018-06-04T13:54:24Z</time>
      </trkpt>
      <trkpt lat="45.75238" lon="4.32679">
        <ele>511.151</ele>
        <time>2018-06-04T13:54:29Z</time>
      </trkpt>
      <trkpt lat="45.7524" lon="4.32677">
        <ele>511.047</ele>
        <time>2018-06-04T13:54:34Z</time>
      </trkpt>
      <trkpt lat="45.75242" lon="4.32672">
        <ele>511.254</ele>
        <time>2018-06-04T13:54:40Z</time>
      </trkpt>
      <trkpt lat="45.75245" lon="4.32668">
        <ele>511.64</ele>
        <time>2018-06-04T13:54:46Z</time>
      </trkpt>
      <trkpt lat="45.75245" lon="4.32661">
        <ele>511.963</ele>
        <time>2018-06-04T13:54:51Z</time>
      </trkpt>
      <trkpt lat="45.75249" lon="4.32655">
        <ele>512.464</ele>
        <time>2018-06-04T13:54:56Z</time>
      </trkpt>
      <trkpt lat="45.75251" lon="4.32648">
        <ele>512.895</ele>
        <time>2018-06-04T13:55:01Z</time>
      </trkpt>
      <trkpt lat="45.75253" lon="4.32641">
        <ele>513.286</ele>
        <time>2018-06-04T13:55:07Z</time>
      </trkpt>
      <trkpt lat="45.75255" lon="4.32636">
        <ele>513.73</ele>
        <time>2018-06-04T13:55:13Z</time>
      </trkpt>
      <trkpt lat="45.75256" lon="4.32629">
        <ele>514.533</ele>
        <time>2018-06-04T13:55:19Z</time>
      </trkpt>
      <trkpt lat="45.75258" lon="4.32622">
        <ele>515.361</ele>
        <time>2018-06-04T13:55:25Z</time>
      </trkpt>
      <trkpt lat="45.75261" lon="4.32616">
        <ele>515.781</ele>
        <time>2018-06-04T13:55:31Z</time>
      </trkpt>
      <trkpt lat="45.75266" lon="4.32607">
        <ele>515.733</ele>
        <time>2018-06-04T13:55:36Z</time>
      </trkpt>
      <trkpt lat="45.75271" lon="4.32597">
        <ele>515.936</ele>
        <time>2018-06-04T13:55:41Z</time>
      </trkpt>
      <trkpt lat="45.75271" lon="4.32587">
        <ele>516.761</ele>
        <time>2018-06-04T13:55:47Z</time>
      </trkpt>
      <trkpt lat="45.75272" lon="4.32578">
        <ele>517.019</ele>
        <time>2018-06-04T13:55:53Z</time>
      </trkpt>
      <trkpt lat="45.75273" lon="4.32572">
        <ele>517.125</ele>
        <time>2018-06-04T13:55:59Z</time>
      </trkpt>
      <trkpt lat="45.75275" lon="4.32562">
        <ele>517.495</ele>
        <time>2018-06-04T13:56:05Z</time>
      </trkpt>
      <trkpt lat="45.75278" lon="4.32554">
        <ele>517.47</ele>
        <time>2018-06-04T13:56:11Z</time>
      </trkpt>
      <trkpt lat="45.75279" lon="4.32544">
        <ele>517.32</ele>
        <time>2018-06-04T13:56:17Z</time>
      </trkpt>
      <trkpt lat="45.75279" lon="4.32535">
        <ele>517.602</ele>
        <time>2018-06-04T13:56:23Z</time>
      </trkpt>
      <trkpt lat="45.75278" lon="4.32527">
        <ele>517.627</ele>
        <time>2018-06-04T13:56:28Z</time>
      </trkpt>
      <trkpt lat="45.75278" lon="4.32524">
        <ele>517.705</ele>
        <time>2018-06-04T13:56:34Z</time>
      </trkpt>
      <trkpt lat="45.75279" lon="4.3252">
        <ele>517.45</ele>
        <time>2018-06-04T13:56:39Z</time>
      </trkpt>
      <trkpt lat="45.75281" lon="4.32511">
        <ele>517.407</ele>
        <time>2018-06-04T13:56:45Z</time>
      </trkpt>
      <trkpt lat="45.75281" lon="4.32501">
        <ele>517.334</ele>
        <time>2018-06-04T13:56:51Z</time>
      </trkpt>
      <trkpt lat="45.75281" lon="4.32492">
        <ele>517.145</ele>
        <time>2018-06-04T13:56:56Z</time>
      </trkpt>
      <trkpt lat="45.75282" lon="4.32483">
        <ele>517.28</ele>
        <time>2018-06-04T13:57:02Z</time>
      </trkpt>
      <trkpt lat="45.75283" lon="4.32473">
        <ele>516.776</ele>
        <time>2018-06-04T13:57:08Z</time>
      </trkpt>
      <trkpt lat="45.75284" lon="4.32463">
        <ele>516.4</ele>
        <time>2018-06-04T13:57:14Z</time>
      </trkpt>
      <trkpt lat="45.75286" lon="4.32454">
        <ele>516.531</ele>
        <time>2018-06-04T13:57:20Z</time>
      </trkpt>
      <trkpt lat="45.75288" lon="4.32444">
        <ele>516.39</ele>
        <time>2018-06-04T13:57:25Z</time>
      </trkpt>
      <trkpt lat="45.7529" lon="4.32436">
        <ele>516.202</ele>
        <time>2018-06-04T13:57:31Z</time>
      </trkpt>
      <trkpt lat="45.75293" lon="4.32428">
        <ele>516.438</ele>
        <time>2018-06-04T13:57:37Z</time>
      </trkpt>
      <trkpt lat="45.75296" lon="4.32421">
        <ele>516.6</ele>
        <time>2018-06-04T13:57:43Z</time>
      </trkpt>
      <trkpt lat="45.75297" lon="4.32414">
        <ele>516.611</ele>
        <time>2018-06-04T13:57:48Z</time>
      </trkpt>
      <trkpt lat="45.753" lon="4.32405">
        <ele>516.493</ele>
        <time>2018-06-04T13:57:54Z</time>
      </trkpt>
      <trkpt lat="45.75301" lon="4.32395">
        <ele>516.463</ele>
        <time>2018-06-04T13:57:59Z</time>
      </trkpt>
      <trkpt lat="45.75301" lon="4.32387">
        <ele>516.56</ele>
        <time>2018-06-04T13:58:04Z</time>
      </trkpt>
      <trkpt lat="45.75302" lon="4.32378">
        <ele>516.641</ele>
        <time>2018-06-04T13:58:10Z</time>
      </trkpt>
      <trkpt lat="45.75302" lon="4.32372">
        <ele>516.996</ele>
        <time>2018-06-04T13:58:15Z</time>
      </trkpt>
      <trkpt lat="45.75303" lon="4.32364">
        <ele>517.498</ele>
        <time>2018-06-04T13:58:20Z</time>
      </trkpt>
      <trkpt lat="45.75304" lon="4.32352">
        <ele>517.782</ele>
        <time>2018-06-04T13:58:26Z</time>
      </trkpt>
      <trkpt lat="45.75305" lon="4.32343">
        <ele>517.873</ele>
        <time>2018-06-04T13:58:31Z</time>
      </trkpt>
      <trkpt lat="45.75307" lon="4.32335">
        <ele>517.902</ele>
        <time>2018-06-04T13:58:37Z</time>
      </trkpt>
      <trkpt lat="45.75309" lon="4.32327">
        <ele>517.721</ele>
        <time>2018-06-04T13:58:42Z</time>
      </trkpt>
      <trkpt lat="45.75311" lon="4.3232">
        <ele>517.543</ele>
        <time>2018-06-04T13:58:48Z</time>
      </trkpt>
      <trkpt lat="45.75315" lon="4.3231">
        <ele>517.26</ele>
        <time>2018-06-04T13:58:53Z</time>
      </trkpt>
      <trkpt lat="45.75316" lon="4.32304">
        <ele>516.991</ele>
        <time>2018-06-04T13:58:58Z</time>
      </trkpt>
      <trkpt lat="45.7532" lon="4.32293">
        <ele>516.686</ele>
        <time>2018-06-04T13:59:04Z</time>
      </trkpt>
      <trkpt lat="45.75318" lon="4.32284">
        <ele>516.496</ele>
        <time>2018-06-04T13:59:09Z</time>
      </trkpt>
      <trkpt lat="45.75318" lon="4.32274">
        <ele>516.317</ele>
        <time>2018-06-04T13:59:15Z</time>
      </trkpt>
      <trkpt lat="45.75316" lon="4.32265">
        <ele>516.172</ele>
        <time>2018-06-04T13:59:21Z</time>
      </trkpt>
      <trkpt lat="45.75314" lon="4.32258">
        <ele>516.388</ele>
        <time>2018-06-04T13:59:27Z</time>
      </trkpt>
      <trkpt lat="45.75313" lon="4.32251">
        <ele>516.827</ele>
        <time>2018-06-04T13:59:33Z</time>
      </trkpt>
      <trkpt lat="45.75311" lon="4.32244">
        <ele>516.576</ele>
        <time>2018-06-04T13:59:38Z</time>
      </trkpt>
      <trkpt lat="45.75309" lon="4.32237">
        <ele>516.259</ele>
        <time>2018-06-04T13:59:43Z</time>
      </trkpt>
      <trkpt lat="45.75308" lon="4.32227">
        <ele>516.312</ele>
        <time>2018-06-04T13:59:49Z</time>
      </trkpt>
      <trkpt lat="45.75306" lon="4.32222">
        <ele>516.62</ele>
        <time>2018-06-04T13:59:54Z</time>
      </trkpt>
      <trkpt lat="45.75304" lon="4.32211">
        <ele>516.669</ele>
        <time>2018-06-04T14:00:00Z</time>
      </trkpt>
      <trkpt lat="45.75301" lon="4.32198">
        <ele>516.867</ele>
        <time>2018-06-04T14:00:06Z</time>
      </trkpt>
      <trkpt lat="45.75299" lon="4.32189">
        <ele>517.193</ele>
        <time>2018-06-04T14:00:11Z</time>
      </trkpt>
      <trkpt lat="45.75295" lon="4.32178">
        <ele>518.139</ele>
        <time>2018-06-04T14:00:17Z</time>
      </trkpt>
      <trkpt lat="45.75291" lon="4.32168">
        <ele>518.944</ele>
        <time>2018-06-04T14:00:23Z</time>
      </trkpt>
      <trkpt lat="45.75289" lon="4.32159">
        <ele>519.543</ele>
        <time>2018-06-04T14:00:29Z</time>
      </trkpt>
      <trkpt lat="45.75286" lon="4.32148">
        <ele>520.499</ele>
        <time>2018-06-04T14:00:35Z</time>
      </trkpt>
      <trkpt lat="45.75284" lon="4.32139">
        <ele>520.881</ele>
        <time>2018-06-04T14:00:41Z</time>
      </trkpt>
      <trkpt lat="45.75282" lon="4.32129">
        <ele>521.579</ele>
        <time>2018-06-04T14:00:47Z</time>
      </trkpt>
      <trkpt lat="45.7528" lon="4.32121">
        <ele>522.411</ele>
        <time>2018-06-04T14:00:53Z</time>
      </trkpt>
      <trkpt lat="45.75279" lon="4.32112">
        <ele>523.015</ele>
        <time>2018-06-04T14:00:59Z</time>
      </trkpt>
      <trkpt lat="45.75274" lon="4.32105">
        <ele>523.509</ele>
        <time>2018-06-04T14:01:05Z</time>
      </trkpt>
      <trkpt lat="45.75274" lon="4.321">
        <ele>523.898</ele>
        <time>2018-06-04T14:01:11Z</time>
      </trkpt>
      <trkpt lat="45.75273" lon="4.32097">
        <ele>524.206</ele>
        <time>2018-06-04T14:01:17Z</time>
      </trkpt>
      <trkpt lat="45.7527" lon="4.32093">
        <ele>524.227</ele>
        <time>2018-06-04T14:01:22Z</time>
      </trkpt>
      <trkpt lat="45.75267" lon="4.32085">
        <ele>524.462</ele>
        <time>2018-06-04T14:01:28Z</time>
      </trkpt>
      <trkpt lat="45.75264" lon="4.3208">
        <ele>524.992</ele>
        <time>2018-06-04T14:01:33Z</time>
      </trkpt>
      <trkpt lat="45.75258" lon="4.32075">
        <ele>525.284</ele>
        <time>2018-06-04T14:01:39Z</time>
      </trkpt>
      <trkpt lat="45.75255" lon="4.3207">
        <ele>525.231</ele>
        <time>2018-06-04T14:01:45Z</time>
      </trkpt>
      <trkpt lat="45.75253" lon="4.32065">
        <ele>525.67</ele>
        <time>2018-06-04T14:01:51Z</time>
      </trkpt>
      <trkpt lat="45.7525" lon="4.3206">
        <ele>525.812</ele>
        <time>2018-06-04T14:01:56Z</time>
      </trkpt>
      <trkpt lat="45.75247" lon="4.32058">
        <ele>525.762</ele>
        <time>2018-06-04T14:02:01Z</time>
      </trkpt>
      <trkpt lat="45.75244" lon="4.32053">
        <ele>526.11</ele>
        <time>2018-06-04T14:02:07Z</time>
      </trkpt>
      <trkpt lat="45.75243" lon="4.32052">
        <ele>526.611</ele>
        <time>2018-06-04T14:02:13Z</time>
      </trkpt>
      <trkpt lat="45.7524" lon="4.32049">
        <ele>527.405</ele>
        <time>2018-06-04T14:02:19Z</time>
      </trkpt>
      <trkpt lat="45.7523" lon="4.32036">
        <ele>528.414</ele>
        <time>2018-06-04T14:02:25Z</time>
      </trkpt>
      <trkpt lat="45.75226" lon="4.32032">
        <ele>528.502</ele>
        <time>2018-06-04T14:02:30Z</time>
      </trkpt>
      <trkpt lat="45.75224" lon="4.32027">
        <ele>528.498</ele>
        <time>2018-06-04T14:02:35Z</time>
      </trkpt>
      <trkpt lat="45.75222" lon="4.3202">
        <ele>528.742</ele>
        <time>2018-06-04T14:02:40Z</time>
      </trkpt>
      <trkpt lat="45.75218" lon="4.32015">
        <ele>529.222</ele>
        <time>2018-06-04T14:02:45Z</time>
      </trkpt>
      <trkpt lat="45.75214" lon="4.32012">
        <ele>530.435</ele>
        <time>2018-06-04T14:02:51Z</time>
      </trkpt>
      <trkpt lat="45.75214" lon="4.32011">
        <ele>531.838</ele>
        <time>2018-06-04T14:02:56Z</time>
      </trkpt>
      <trkpt lat="45.75214" lon="4.32009">
        <ele>532.821</ele>
        <time>2018-06-04T14:03:01Z</time>
      </trkpt>
      <trkpt lat="45.75214" lon="4.3201">
        <ele>532.869</ele>
        <time>2018-06-04T14:03:06Z</time>
      </trkpt>
      <trkpt lat="45.75213" lon="4.32009">
        <ele>533.068</ele>
        <time>2018-06-04T14:03:11Z</time>
      </trkpt>
      <trkpt lat="45.75213" lon="4.32011">
        <ele>533.726</ele>
        <time>2018-06-04T14:03:17Z</time>
      </trkpt>
      <trkpt lat="45.75209" lon="4.32012">
        <ele>534.382</ele>
        <time>2018-06-04T14:03:23Z</time>
      </trkpt>
      <trkpt lat="45.75209" lon="4.32012">
        <ele>534.59</ele>
        <time>2018-06-04T14:03:29Z</time>
      </trkpt>
      <trkpt lat="45.75209" lon="4.32012">
        <ele>534.526</ele>
        <time>2018-06-04T14:03:34Z</time>
      </trkpt>
      <trkpt lat="45.75209" lon="4.32012">
        <ele>534.403</ele>
        <time>2018-06-04T14:03:39Z</time>
      </trkpt>
      <trkpt lat="45.75209" lon="4.32012">
        <ele>534.275</ele>
        <time>2018-06-04T14:03:44Z</time>
      </trkpt>
      <trkpt lat="45.75209" lon="4.32012">
        <ele>534.284</ele>
        <time>2018-06-04T14:03:50Z</time>
      </trkpt>
      <trkpt lat="45.7521" lon="4.32011">
        <ele>534.15</ele>
        <time>2018-06-04T14:03:56Z</time>
      </trkpt>
      <trkpt lat="45.7521" lon="4.32011">
        <ele>533.965</ele>
        <time>2018-06-04T14:04:02Z</time>
      </trkpt>
      <trkpt lat="45.7521" lon="4.32011">
        <ele>533.868</ele>
        <time>2018-06-04T14:04:07Z</time>
      </trkpt>
      <trkpt lat="45.7521" lon="4.32011">
        <ele>533.841</ele>
        <time>2018-06-04T14:04:13Z</time>
      </trkpt>
      <trkpt lat="45.7521" lon="4.32011">
        <ele>533.82</ele>
        <time>2018-06-04T14:04:19Z</time>
      </trkpt>
      <trkpt lat="45.75211" lon="4.32011">
        <ele>533.733</ele>
        <time>2018-06-04T14:04:25Z</time>
      </trkpt>
      <trkpt lat="45.75211" lon="4.32011">
        <ele>533.014</ele>
        <time>2018-06-04T14:04:31Z</time>
      </trkpt>
      <trkpt lat="45.75211" lon="4.32011">
        <ele>532.81</ele>
        <time>2018-06-04T14:04:37Z</time>
      </trkpt>
      <trkpt lat="45.75211" lon="4.32011">
        <ele>532.824</ele>
        <time>2018-06-04T14:04:43Z</time>
      </trkpt>
      <trkpt lat="45.75212" lon="4.32011">
        <ele>532.761</ele>
        <time>2018-06-04T14:04:49Z</time>
      </trkpt>
      <trkpt lat="45.75212" lon="4.32011">
        <ele>532.604</ele>
        <time>2018-06-04T14:04:55Z</time>
      </trkpt>
      <trkpt lat="45.75211" lon="4.3201">
        <ele>532.209</ele>
        <time>2018-06-04T14:05:01Z</time>
      </trkpt>
      <trkpt lat="45.75211" lon="4.32009">
        <ele>531.542</ele>
        <time>2018-06-04T14:05:07Z</time>
      </trkpt>
      <trkpt lat="45.75207" lon="4.32005">
        <ele>531.886</ele>
        <time>2018-06-04T14:05:13Z</time>
      </trkpt>
      <trkpt lat="45.75205" lon="4.32003">
        <ele>532.08</ele>
        <time>2018-06-04T14:05:19Z</time>
      </trkpt>
      <trkpt lat="45.75201" lon="4.31999">
        <ele>532.04</ele>
        <time>2018-06-04T14:05:25Z</time>
      </trkpt>
      <trkpt lat="45.752" lon="4.31999">
        <ele>532.173</ele>
        <time>2018-06-04T14:05:31Z</time>
      </trkpt>
      <trkpt lat="45.75195" lon="4.31996">
        <ele>533.027</ele>
        <time>2018-06-04T14:05:37Z</time>
      </trkpt>
      <trkpt lat="45.75185" lon="4.31988">
        <ele>534.112</ele>
        <time>2018-06-04T14:05:43Z</time>
      </trkpt>
      <trkpt lat="45.75181" lon="4.31987">
        <ele>535.235</ele>
        <time>2018-06-04T14:05:48Z</time>
      </trkpt>
      <trkpt lat="45.75178" lon="4.31989">
        <ele>535.868</ele>
        <time>2018-06-04T14:05:53Z</time>
      </trkpt>
      <trkpt lat="45.75174" lon="4.31987">
        <ele>536.193</ele>
        <time>2018-06-04T14:05:59Z</time>
      </trkpt>
      <trkpt lat="45.75167" lon="4.31987">
        <ele>536.32</ele>
        <time>2018-06-04T14:06:04Z</time>
      </trkpt>
      <trkpt lat="45.75162" lon="4.31988">
        <ele>536.592</ele>
        <time>2018-06-04T14:06:09Z</time>
      </trkpt>
      <trkpt lat="45.75154" lon="4.3199">
        <ele>536.907</ele>
        <time>2018-06-04T14:06:15Z</time>
      </trkpt>
      <trkpt lat="45.75151" lon="4.3199">
        <ele>537.565</ele>
        <time>2018-06-04T14:06:20Z</time>
      </trkpt>
      <trkpt lat="45.75146" lon="4.3199">
        <ele>538.182</ele>
        <time>2018-06-04T14:06:26Z</time>
      </trkpt>
      <trkpt lat="45.75142" lon="4.31988">
        <ele>538.232</ele>
        <time>2018-06-04T14:06:31Z</time>
      </trkpt>
      <trkpt lat="45.75135" lon="4.31984">
        <ele>538.62</ele>
        <time>2018-06-04T14:06:37Z</time>
      </trkpt>
      <trkpt lat="45.7513" lon="4.31982">
        <ele>538.945</ele>
        <time>2018-06-04T14:06:42Z</time>
      </trkpt>
      <trkpt lat="45.75126" lon="4.31978">
        <ele>539.602</ele>
        <time>2018-06-04T14:06:48Z</time>
      </trkpt>
      <trkpt lat="45.75121" lon="4.31973">
        <ele>540.717</ele>
        <time>2018-06-04T14:06:54Z</time>
      </trkpt>
      <trkpt lat="45.75117" lon="4.31972">
        <ele>541.515</ele>
        <time>2018-06-04T14:07:00Z</time>
      </trkpt>
      <trkpt lat="45.75114" lon="4.31969">
        <ele>541.97</ele>
        <time>2018-06-04T14:07:06Z</time>
      </trkpt>
      <trkpt lat="45.75108" lon="4.31965">
        <ele>542.255</ele>
        <time>2018-06-04T14:07:12Z</time>
      </trkpt>
      <trkpt lat="45.75105" lon="4.31963">
        <ele>543.061</ele>
        <time>2018-06-04T14:07:18Z</time>
      </trkpt>
      <trkpt lat="45.75101" lon="4.31958">
        <ele>543.93</ele>
        <time>2018-06-04T14:07:23Z</time>
      </trkpt>
      <trkpt lat="45.75096" lon="4.31953">
        <ele>544.902</ele>
        <time>2018-06-04T14:07:29Z</time>
      </trkpt>
      <trkpt lat="45.7509" lon="4.31946">
        <ele>546.075</ele>
        <time>2018-06-04T14:07:35Z</time>
      </trkpt>
      <trkpt lat="45.75087" lon="4.31944">
        <ele>546.988</ele>
        <time>2018-06-04T14:07:40Z</time>
      </trkpt>
      <trkpt lat="45.75083" lon="4.31944">
        <ele>548.002</ele>
        <time>2018-06-04T14:07:46Z</time>
      </trkpt>
      <trkpt lat="45.75078" lon="4.31942">
        <ele>548.756</ele>
        <time>2018-06-04T14:07:52Z</time>
      </trkpt>
      <trkpt lat="45.75073" lon="4.3194">
        <ele>549.341</ele>
        <time>2018-06-04T14:07:58Z</time>
      </trkpt>
      <trkpt lat="45.7507" lon="4.31938">
        <ele>549.841</ele>
        <time>2018-06-04T14:08:04Z</time>
      </trkpt>
      <trkpt lat="45.75067" lon="4.31939">
        <ele>550.686</ele>
        <time>2018-06-04T14:08:09Z</time>
      </trkpt>
      <trkpt lat="45.75065" lon="4.31942">
        <ele>552.072</ele>
        <time>2018-06-04T14:08:15Z</time>
      </trkpt>
      <trkpt lat="45.75063" lon="4.3195">
        <ele>552.809</ele>
        <time>2018-06-04T14:08:20Z</time>
      </trkpt>
      <trkpt lat="45.7506" lon="4.31956">
        <ele>553.177</ele>
        <time>2018-06-04T14:08:25Z</time>
      </trkpt>
      <trkpt lat="45.75057" lon="4.31961">
        <ele>553.292</ele>
        <time>2018-06-04T14:08:30Z</time>
      </trkpt>
      <trkpt lat="45.75053" lon="4.31965">
        <ele>553.313</ele>
        <time>2018-06-04T14:08:36Z</time>
      </trkpt>
      <trkpt lat="45.7505" lon="4.3197">
        <ele>553.307</ele>
        <time>2018-06-04T14:08:41Z</time>
      </trkpt>
      <trkpt lat="45.75045" lon="4.31978">
        <ele>553.544</ele>
        <time>2018-06-04T14:08:47Z</time>
      </trkpt>
      <trkpt lat="45.75043" lon="4.31984">
        <ele>553.854</ele>
        <time>2018-06-04T14:08:53Z</time>
      </trkpt>
      <trkpt lat="45.7504" lon="4.31989">
        <ele>553.979</ele>
        <time>2018-06-04T14:08:58Z</time>
      </trkpt>
      <trkpt lat="45.75038" lon="4.31996">
        <ele>554.12</ele>
        <time>2018-06-04T14:09:04Z</time>
      </trkpt>
      <trkpt lat="45.75035" lon="4.32001">
        <ele>554.425</ele>
        <time>2018-06-04T14:09:09Z</time>
      </trkpt>
      <trkpt lat="45.75031" lon="4.32011">
        <ele>554.352</ele>
        <time>2018-06-04T14:09:15Z</time>
      </trkpt>
      <trkpt lat="45.75028" lon="4.32018">
        <ele>553.916</ele>
        <time>2018-06-04T14:09:21Z</time>
      </trkpt>
      <trkpt lat="45.75027" lon="4.32022">
        <ele>553.696</ele>
        <time>2018-06-04T14:09:26Z</time>
      </trkpt>
      <trkpt lat="45.75024" lon="4.32027">
        <ele>553.648</ele>
        <time>2018-06-04T14:09:32Z</time>
      </trkpt>
      <trkpt lat="45.75021" lon="4.32035">
        <ele>553.68</ele>
        <time>2018-06-04T14:09:37Z</time>
      </trkpt>
      <trkpt lat="45.75016" lon="4.32043">
        <ele>554.16</ele>
        <time>2018-06-04T14:09:42Z</time>
      </trkpt>
      <trkpt lat="45.75012" lon="4.32049">
        <ele>554.741</ele>
        <time>2018-06-04T14:09:47Z</time>
      </trkpt>
      <trkpt lat="45.75009" lon="4.32056">
        <ele>555.344</ele>
        <time>2018-06-04T14:09:53Z</time>
      </trkpt>
      <trkpt lat="45.75005" lon="4.32067">
        <ele>556.524</ele>
        <time>2018-06-04T14:09:59Z</time>
      </trkpt>
      <trkpt lat="45.75002" lon="4.32074">
        <ele>557.451</ele>
        <time>2018-06-04T14:10:05Z</time>
      </trkpt>
      <trkpt lat="45.75" lon="4.32078">
        <ele>558.027</ele>
        <time>2018-06-04T14:10:10Z</time>
      </trkpt>
      <trkpt lat="45.74998" lon="4.32087">
        <ele>558.346</ele>
        <time>2018-06-04T14:10:16Z</time>
      </trkpt>
      <trkpt lat="45.74994" lon="4.32096">
        <ele>558.404</ele>
        <time>2018-06-04T14:10:21Z</time>
      </trkpt>
      <trkpt lat="45.74991" lon="4.32105">
        <ele>558.708</ele>
        <time>2018-06-04T14:10:27Z</time>
      </trkpt>
      <trkpt lat="45.74991" lon="4.3211">
        <ele>559.088</ele>
        <time>2018-06-04T14:10:32Z</time>
      </trkpt>
      <trkpt lat="45.74988" lon="4.32118">
        <ele>559.273</ele>
        <time>2018-06-04T14:10:38Z</time>
      </trkpt>
      <trkpt lat="45.74987" lon="4.32124">
        <ele>559.753</ele>
        <time>2018-06-04T14:10:43Z</time>
      </trkpt>
      <trkpt lat="45.74985" lon="4.3213">
        <ele>560.193</ele>
        <time>2018-06-04T14:10:48Z</time>
      </trkpt>
      <trkpt lat="45.74982" lon="4.32139">
        <ele>560.422</ele>
        <time>2018-06-04T14:10:54Z</time>
      </trkpt>
      <trkpt lat="45.74975" lon="4.32148">
        <ele>560.854</ele>
        <time>2018-06-04T14:11:00Z</time>
      </trkpt>
      <trkpt lat="45.74971" lon="4.3215">
        <ele>561.662</ele>
        <time>2018-06-04T14:11:06Z</time>
      </trkpt>
      <trkpt lat="45.74971" lon="4.3215">
        <ele>562.912</ele>
        <time>2018-06-04T14:11:12Z</time>
      </trkpt>
      <trkpt lat="45.74969" lon="4.3215">
        <ele>563.945</ele>
        <time>2018-06-04T14:11:17Z</time>
      </trkpt>
      <trkpt lat="45.74963" lon="4.32152">
        <ele>564.864</ele>
        <time>2018-06-04T14:11:23Z</time>
      </trkpt>
      <trkpt lat="45.74959" lon="4.32149">
        <ele>565.511</ele>
        <time>2018-06-04T14:11:28Z</time>
      </trkpt>
      <trkpt lat="45.74953" lon="4.32148">
        <ele>566.436</ele>
        <time>2018-06-04T14:11:34Z</time>
      </trkpt>
      <trkpt lat="45.74949" lon="4.32148">
        <ele>567.257</ele>
        <time>2018-06-04T14:11:39Z</time>
      </trkpt>
      <trkpt lat="45.74944" lon="4.32145">
        <ele>567.619</ele>
        <time>2018-06-04T14:11:44Z</time>
      </trkpt>
      <trkpt lat="45.74939" lon="4.32143">
        <ele>567.64</ele>
        <time>2018-06-04T14:11:50Z</time>
      </trkpt>
      <trkpt lat="45.74931" lon="4.32144">
        <ele>568.458</ele>
        <time>2018-06-04T14:11:56Z</time>
      </trkpt>
      <trkpt lat="45.74927" lon="4.32147">
        <ele>569.146</ele>
        <time>2018-06-04T14:12:01Z</time>
      </trkpt>
      <trkpt lat="45.74923" lon="4.32151">
        <ele>569.994</ele>
        <time>2018-06-04T14:12:07Z</time>
      </trkpt>
      <trkpt lat="45.7492" lon="4.32157">
        <ele>571.03</ele>
        <time>2018-06-04T14:12:13Z</time>
      </trkpt>
      <trkpt lat="45.74916" lon="4.32162">
        <ele>572.252</ele>
        <time>2018-06-04T14:12:19Z</time>
      </trkpt>
      <trkpt lat="45.7491" lon="4.3217">
        <ele>573.897</ele>
        <time>2018-06-04T14:12:25Z</time>
      </trkpt>
      <trkpt lat="45.74905" lon="4.32177">
        <ele>575.009</ele>
        <time>2018-06-04T14:12:31Z</time>
      </trkpt>
      <trkpt lat="45.74904" lon="4.32179">
        <ele>575.982</ele>
        <time>2018-06-04T14:12:36Z</time>
      </trkpt>
      <trkpt lat="45.74903" lon="4.32187">
        <ele>576.93</ele>
        <time>2018-06-04T14:12:42Z</time>
      </trkpt>
      <trkpt lat="45.74903" lon="4.32194">
        <ele>577.48</ele>
        <time>2018-06-04T14:12:47Z</time>
      </trkpt>
      <trkpt lat="45.74901" lon="4.32205">
        <ele>578.522</ele>
        <time>2018-06-04T14:12:53Z</time>
      </trkpt>
      <trkpt lat="45.74901" lon="4.32212">
        <ele>579.115</ele>
        <time>2018-06-04T14:12:59Z</time>
      </trkpt>
      <trkpt lat="45.74899" lon="4.3222">
        <ele>578.944</ele>
        <time>2018-06-04T14:13:05Z</time>
      </trkpt>
      <trkpt lat="45.74898" lon="4.32226">
        <ele>578.402</ele>
        <time>2018-06-04T14:13:10Z</time>
      </trkpt>
      <trkpt lat="45.74898" lon="4.32233">
        <ele>577.679</ele>
        <time>2018-06-04T14:13:16Z</time>
      </trkpt>
      <trkpt lat="45.749" lon="4.32233">
        <ele>577.969</ele>
        <time>2018-06-04T14:13:22Z</time>
      </trkpt>
      <trkpt lat="45.749" lon="4.32233">
        <ele>578.376</ele>
        <time>2018-06-04T14:13:27Z</time>
      </trkpt>
      <trkpt lat="45.74901" lon="4.32232">
        <ele>578.467</ele>
        <time>2018-06-04T14:13:33Z</time>
      </trkpt>
      <trkpt lat="45.74902" lon="4.32229">
        <ele>578.533</ele>
        <time>2018-06-04T14:13:39Z</time>
      </trkpt>
      <trkpt lat="45.74902" lon="4.32229">
        <ele>578.615</ele>
        <time>2018-06-04T14:13:44Z</time>
      </trkpt>
      <trkpt lat="45.74902" lon="4.32231">
        <ele>578.863</ele>
        <time>2018-06-04T14:13:49Z</time>
      </trkpt>
      <trkpt lat="45.74899" lon="4.32231">
        <ele>578.857</ele>
        <time>2018-06-04T14:13:54Z</time>
      </trkpt>
      <trkpt lat="45.74896" lon="4.32232">
        <ele>579.347</ele>
        <time>2018-06-04T14:14:00Z</time>
      </trkpt>
      <trkpt lat="45.74897" lon="4.32232">
        <ele>579.435</ele>
        <time>2018-06-04T14:14:05Z</time>
      </trkpt>
      <trkpt lat="45.74897" lon="4.32232">
        <ele>579.361</ele>
        <time>2018-06-04T14:14:11Z</time>
      </trkpt>
      <trkpt lat="45.74897" lon="4.32232">
        <ele>579.316</ele>
        <time>2018-06-04T14:14:17Z</time>
      </trkpt>
      <trkpt lat="45.74897" lon="4.32232">
        <ele>579.14</ele>
        <time>2018-06-04T14:14:23Z</time>
      </trkpt>
      <trkpt lat="45.74897" lon="4.32232">
        <ele>578.901</ele>
        <time>2018-06-04T14:14:29Z</time>
      </trkpt>
      <trkpt lat="45.74897" lon="4.32232">
        <ele>578.745</ele>
        <time>2018-06-04T14:14:34Z</time>
      </trkpt>
      <trkpt lat="45.74897" lon="4.32232">
        <ele>578.589</ele>
        <time>2018-06-04T14:14:40Z</time>
      </trkpt>
      <trkpt lat="45.74897" lon="4.32232">
        <ele>578.401</ele>
        <time>2018-06-04T14:14:46Z</time>
      </trkpt>
      <trkpt lat="45.74897" lon="4.32232">
        <ele>578.208</ele>
        <time>2018-06-04T14:14:51Z</time>
      </trkpt>
      <trkpt lat="45.74897" lon="4.32232">
        <ele>578.003</ele>
        <time>2018-06-04T14:14:56Z</time>
      </trkpt>
      <trkpt lat="45.74897" lon="4.32232">
        <ele>577.691</ele>
        <time>2018-06-04T14:15:02Z</time>
      </trkpt>
      <trkpt lat="45.74897" lon="4.32232">
        <ele>577.474</ele>
        <time>2018-06-04T14:15:08Z</time>
      </trkpt>
      <trkpt lat="45.74897" lon="4.32232">
        <ele>577.419</ele>
        <time>2018-06-04T14:15:13Z</time>
      </trkpt>
      <trkpt lat="45.74897" lon="4.32232">
        <ele>577.483</ele>
        <time>2018-06-04T14:15:18Z</time>
      </trkpt>
      <trkpt lat="45.74897" lon="4.32232">
        <ele>577.502</ele>
        <time>2018-06-04T14:15:24Z</time>
      </trkpt>
      <trkpt lat="45.74897" lon="4.32232">
        <ele>577.49</ele>
        <time>2018-06-04T14:15:29Z</time>
      </trkpt>
      <trkpt lat="45.74897" lon="4.32232">
        <ele>577.496</ele>
        <time>2018-06-04T14:15:34Z</time>
      </trkpt>
      <trkpt lat="45.74897" lon="4.32232">
        <ele>577.541</ele>
        <time>2018-06-04T14:15:40Z</time>
      </trkpt>
      <trkpt lat="45.74897" lon="4.32232">
        <ele>577.676</ele>
        <time>2018-06-04T14:15:46Z</time>
      </trkpt>
      <trkpt lat="45.74897" lon="4.32232">
        <ele>577.685</ele>
        <time>2018-06-04T14:15:52Z</time>
      </trkpt>
      <trkpt lat="45.74897" lon="4.32232">
        <ele>577.66</ele>
        <time>2018-06-04T14:15:58Z</time>
      </trkpt>
      <trkpt lat="45.74897" lon="4.32232">
        <ele>577.622</ele>
        <time>2018-06-04T14:16:03Z</time>
      </trkpt>
      <trkpt lat="45.74897" lon="4.32232">
        <ele>576.895</ele>
        <time>2018-06-04T14:16:09Z</time>
      </trkpt>
      <trkpt lat="45.74897" lon="4.3223">
        <ele>575.792</ele>
        <time>2018-06-04T14:16:15Z</time>
      </trkpt>
      <trkpt lat="45.74897" lon="4.3223">
        <ele>575.708</ele>
        <time>2018-06-04T14:16:21Z</time>
      </trkpt>
      <trkpt lat="45.74897" lon="4.3223">
        <ele>575.65</ele>
        <time>2018-06-04T14:16:27Z</time>
      </trkpt>
      <trkpt lat="45.74897" lon="4.3223">
        <ele>575.565</ele>
        <time>2018-06-04T14:16:33Z</time>
      </trkpt>
      <trkpt lat="45.74897" lon="4.3223">
        <ele>575.511</ele>
        <time>2018-06-04T14:16:38Z</time>
      </trkpt>
      <trkpt lat="45.74897" lon="4.3223">
        <ele>575.49</ele>
        <time>2018-06-04T14:16:43Z</time>
      </trkpt>
      <trkpt lat="45.74897" lon="4.3223">
        <ele>575.572</ele>
        <time>2018-06-04T14:16:49Z</time>
      </trkpt>
      <trkpt lat="45.74897" lon="4.3223">
        <ele>575.839</ele>
        <time>2018-06-04T14:16:55Z</time>
      </trkpt>
      <trkpt lat="45.74897" lon="4.3223">
        <ele>576.066</ele>
        <time>2018-06-04T14:17:00Z</time>
      </trkpt>
      <trkpt lat="45.74897" lon="4.3223">
        <ele>576.319</ele>
        <time>2018-06-04T14:17:05Z</time>
      </trkpt>
      <trkpt lat="45.74897" lon="4.3223">
        <ele>576.725</ele>
        <time>2018-06-04T14:17:11Z</time>
      </trkpt>
      <trkpt lat="45.74897" lon="4.3223">
        <ele>576.823</ele>
        <time>2018-06-04T14:17:17Z</time>
      </trkpt>
      <trkpt lat="45.74897" lon="4.3223">
        <ele>576.849</ele>
        <time>2018-06-04T14:17:23Z</time>
      </trkpt>
      <trkpt lat="45.74897" lon="4.3223">
        <ele>576.902</ele>
        <time>2018-06-04T14:17:28Z</time>
      </trkpt>
      <trkpt lat="45.74897" lon="4.3223">
        <ele>577.199</ele>
        <time>2018-06-04T14:17:34Z</time>
      </trkpt>
      <trkpt lat="45.74897" lon="4.3223">
        <ele>577.324</ele>
        <time>2018-06-04T14:17:40Z</time>
      </trkpt>
      <trkpt lat="45.74897" lon="4.3223">
        <ele>577.444</ele>
        <time>2018-06-04T14:17:46Z</time>
      </trkpt>
      <trkpt lat="45.74897" lon="4.3223">
        <ele>577.463</ele>
        <time>2018-06-04T14:17:51Z</time>
      </trkpt>
      <trkpt lat="45.74897" lon="4.3223">
        <ele>577.502</ele>
        <time>2018-06-04T14:17:56Z</time>
      </trkpt>
      <trkpt lat="45.74897" lon="4.3223">
        <ele>577.624</ele>
        <time>2018-06-04T14:18:02Z</time>
      </trkpt>
      <trkpt lat="45.74897" lon="4.3223">
        <ele>578.372</ele>
        <time>2018-06-04T14:18:07Z</time>
      </trkpt>
      <trkpt lat="45.74898" lon="4.32235">
        <ele>579.458</ele>
        <time>2018-06-04T14:18:13Z</time>
      </trkpt>
      <trkpt lat="45.749" lon="4.32243">
        <ele>580.602</ele>
        <time>2018-06-04T14:18:19Z</time>
      </trkpt>
      <trkpt lat="45.74902" lon="4.32249">
        <ele>580.789</ele>
        <time>2018-06-04T14:18:25Z</time>
      </trkpt>
      <trkpt lat="45.74904" lon="4.32256">
        <ele>580.608</ele>
        <time>2018-06-04T14:18:30Z</time>
      </trkpt>
      <trkpt lat="45.74904" lon="4.32266">
        <ele>580.374</ele>
        <time>2018-06-04T14:18:36Z</time>
      </trkpt>
      <trkpt lat="45.74904" lon="4.32276">
        <ele>580.52</ele>
        <time>2018-06-04T14:18:42Z</time>
      </trkpt>
      <trkpt lat="45.74904" lon="4.32284">
        <ele>580.714</ele>
        <time>2018-06-04T14:18:47Z</time>
      </trkpt>
      <trkpt lat="45.74902" lon="4.32292">
        <ele>581.135</ele>
        <time>2018-06-04T14:18:52Z</time>
      </trkpt>
      <trkpt lat="45.74901" lon="4.32298">
        <ele>581.697</ele>
        <time>2018-06-04T14:18:57Z</time>
      </trkpt>
      <trkpt lat="45.74902" lon="4.32305">
        <ele>582.609</ele>
        <time>2018-06-04T14:19:03Z</time>
      </trkpt>
      <trkpt lat="45.74904" lon="4.3231">
        <ele>583.142</ele>
        <time>2018-06-04T14:19:08Z</time>
      </trkpt>
      <trkpt lat="45.74908" lon="4.32323">
        <ele>583.314</ele>
        <time>2018-06-04T14:19:14Z</time>
      </trkpt>
      <trkpt lat="45.74908" lon="4.32331">
        <ele>583.216</ele>
        <time>2018-06-04T14:19:19Z</time>
      </trkpt>
      <trkpt lat="45.74909" lon="4.32339">
        <ele>584.012</ele>
        <time>2018-06-04T14:19:25Z</time>
      </trkpt>
      <trkpt lat="45.74909" lon="4.32346">
        <ele>584.335</ele>
        <time>2018-06-04T14:19:30Z</time>
      </trkpt>
      <trkpt lat="45.7491" lon="4.32352">
        <ele>584.58</ele>
        <time>2018-06-04T14:19:36Z</time>
      </trkpt>
      <trkpt lat="45.7491" lon="4.32362">
        <ele>584.793</ele>
        <time>2018-06-04T14:19:41Z</time>
      </trkpt>
      <trkpt lat="45.7491" lon="4.3237">
        <ele>585.015</ele>
        <time>2018-06-04T14:19:47Z</time>
      </trkpt>
      <trkpt lat="45.74909" lon="4.32379">
        <ele>585.239</ele>
        <time>2018-06-04T14:19:53Z</time>
      </trkpt>
      <trkpt lat="45.7491" lon="4.3239">
        <ele>585.418</ele>
        <time>2018-06-04T14:19:59Z</time>
      </trkpt>
      <trkpt lat="45.7491" lon="4.32397">
        <ele>585.94</ele>
        <time>2018-06-04T14:20:05Z</time>
      </trkpt>
      <trkpt lat="45.74911" lon="4.32405">
        <ele>586.305</ele>
        <time>2018-06-04T14:20:10Z</time>
      </trkpt>
      <trkpt lat="45.74912" lon="4.32413">
        <ele>586.489</ele>
        <time>2018-06-04T14:20:16Z</time>
      </trkpt>
      <trkpt lat="45.74913" lon="4.3242">
        <ele>586.584</ele>
        <time>2018-06-04T14:20:21Z</time>
      </trkpt>
      <trkpt lat="45.74915" lon="4.32428">
        <ele>586.638</ele>
        <time>2018-06-04T14:20:26Z</time>
      </trkpt>
      <trkpt lat="45.74917" lon="4.32436">
        <ele>587.237</ele>
        <time>2018-06-04T14:20:32Z</time>
      </trkpt>
      <trkpt lat="45.74918" lon="4.32441">
        <ele>588.024</ele>
        <time>2018-06-04T14:20:37Z</time>
      </trkpt>
      <trkpt lat="45.7492" lon="4.32449">
        <ele>588.891</ele>
        <time>2018-06-04T14:20:42Z</time>
      </trkpt>
      <trkpt lat="45.74924" lon="4.32459">
        <ele>589.44</ele>
        <time>2018-06-04T14:20:48Z</time>
      </trkpt>
      <trkpt lat="45.74924" lon="4.32462">
        <ele>589.824</ele>
        <time>2018-06-04T14:20:53Z</time>
      </trkpt>
      <trkpt lat="45.74926" lon="4.32468">
        <ele>589.942</ele>
        <time>2018-06-04T14:20:59Z</time>
      </trkpt>
      <trkpt lat="45.74931" lon="4.32478">
        <ele>590.047</ele>
        <time>2018-06-04T14:21:05Z</time>
      </trkpt>
      <trkpt lat="45.74935" lon="4.32481">
        <ele>589.629</ele>
        <time>2018-06-04T14:21:10Z</time>
      </trkpt>
      <trkpt lat="45.74939" lon="4.32488">
        <ele>589.513</ele>
        <time>2018-06-04T14:21:15Z</time>
      </trkpt>
      <trkpt lat="45.74944" lon="4.32494">
        <ele>589.384</ele>
        <time>2018-06-04T14:21:21Z</time>
      </trkpt>
      <trkpt lat="45.74948" lon="4.32499">
        <ele>589.464</ele>
        <time>2018-06-04T14:21:26Z</time>
      </trkpt>
      <trkpt lat="45.74952" lon="4.32508">
        <ele>589.43</ele>
        <time>2018-06-04T14:21:32Z</time>
      </trkpt>
      <trkpt lat="45.74954" lon="4.32514">
        <ele>589.158</ele>
        <time>2018-06-04T14:21:37Z</time>
      </trkpt>
      <trkpt lat="45.74954" lon="4.32521">
        <ele>589.101</ele>
        <time>2018-06-04T14:21:43Z</time>
      </trkpt>
      <trkpt lat="45.74955" lon="4.32526">
        <ele>588.781</ele>
        <time>2018-06-04T14:21:48Z</time>
      </trkpt>
      <trkpt lat="45.74957" lon="4.32532">
        <ele>588.305</ele>
        <time>2018-06-04T14:21:53Z</time>
      </trkpt>
      <trkpt lat="45.74957" lon="4.32538">
        <ele>587.766</ele>
        <time>2018-06-04T14:21:59Z</time>
      </trkpt>
      <trkpt lat="45.74959" lon="4.32542">
        <ele>587.337</ele>
        <time>2018-06-04T14:22:05Z</time>
      </trkpt>
      <trkpt lat="45.74961" lon="4.32553">
        <ele>586.646</ele>
        <time>2018-06-04T14:22:11Z</time>
      </trkpt>
      <trkpt lat="45.74961" lon="4.32562">
        <ele>585.487</ele>
        <time>2018-06-04T14:22:17Z</time>
      </trkpt>
      <trkpt lat="45.74962" lon="4.32568">
        <ele>584.456</ele>
        <time>2018-06-04T14:22:23Z</time>
      </trkpt>
      <trkpt lat="45.74963" lon="4.32572">
        <ele>583.195</ele>
        <time>2018-06-04T14:22:29Z</time>
      </trkpt>
      <trkpt lat="45.74962" lon="4.32575">
        <ele>581.652</ele>
        <time>2018-06-04T14:22:34Z</time>
      </trkpt>
      <trkpt lat="45.74962" lon="4.32579">
        <ele>580.658</ele>
        <time>2018-06-04T14:22:40Z</time>
      </trkpt>
      <trkpt lat="45.74962" lon="4.3258">
        <ele>579.493</ele>
        <time>2018-06-04T14:22:45Z</time>
      </trkpt>
      <trkpt lat="45.74962" lon="4.32585">
        <ele>578.369</ele>
        <time>2018-06-04T14:22:51Z</time>
      </trkpt>
      <trkpt lat="45.74963" lon="4.32587">
        <ele>577.546</ele>
        <time>2018-06-04T14:22:57Z</time>
      </trkpt>
      <trkpt lat="45.74964" lon="4.32587">
        <ele>576.742</ele>
        <time>2018-06-04T14:23:02Z</time>
      </trkpt>
      <trkpt lat="45.74965" lon="4.32593">
        <ele>576.42</ele>
        <time>2018-06-04T14:23:07Z</time>
      </trkpt>
      <trkpt lat="45.74965" lon="4.32596">
        <ele>576.139</ele>
        <time>2018-06-04T14:23:13Z</time>
      </trkpt>
      <trkpt lat="45.74965" lon="4.32597">
        <ele>575.426</ele>
        <time>2018-06-04T14:23:18Z</time>
      </trkpt>
      <trkpt lat="45.74966" lon="4.32608">
        <ele>574.843</ele>
        <time>2018-06-04T14:23:24Z</time>
      </trkpt>
      <trkpt lat="45.74963" lon="4.32615">
        <ele>573.79</ele>
        <time>2018-06-04T14:23:29Z</time>
      </trkpt>
      <trkpt lat="45.7496" lon="4.32616">
        <ele>573.657</ele>
        <time>2018-06-04T14:23:35Z</time>
      </trkpt>
      <trkpt lat="45.74961" lon="4.32615">
        <ele>573.633</ele>
        <time>2018-06-04T14:23:40Z</time>
      </trkpt>
      <trkpt lat="45.74959" lon="4.32612">
        <ele>573.487</ele>
        <time>2018-06-04T14:23:47Z</time>
      </trkpt>
      <trkpt lat="45.74958" lon="4.32613">
        <ele>573.501</ele>
        <time>2018-06-04T14:23:53Z</time>
      </trkpt>
      <trkpt lat="45.74957" lon="4.32615">
        <ele>574.143</ele>
        <time>2018-06-04T14:23:58Z</time>
      </trkpt>
      <trkpt lat="45.74957" lon="4.32615">
        <ele>574.262</ele>
        <time>2018-06-04T14:24:04Z</time>
      </trkpt>
      <trkpt lat="45.74956" lon="4.32615">
        <ele>574.309</ele>
        <time>2018-06-04T14:24:10Z</time>
      </trkpt>
      <trkpt lat="45.74958" lon="4.32612">
        <ele>574.19</ele>
        <time>2018-06-04T14:24:15Z</time>
      </trkpt>
      <trkpt lat="45.74959" lon="4.32615">
        <ele>573.624</ele>
        <time>2018-06-04T14:24:20Z</time>
      </trkpt>
      <trkpt lat="45.74962" lon="4.32618">
        <ele>572.748</ele>
        <time>2018-06-04T14:24:26Z</time>
      </trkpt>
      <trkpt lat="45.74968" lon="4.3263">
        <ele>572.282</ele>
        <time>2018-06-04T14:24:32Z</time>
      </trkpt>
      <trkpt lat="45.74971" lon="4.32634">
        <ele>572.169</ele>
        <time>2018-06-04T14:24:37Z</time>
      </trkpt>
      <trkpt lat="45.74972" lon="4.32638">
        <ele>571.653</ele>
        <time>2018-06-04T14:24:43Z</time>
      </trkpt>
      <trkpt lat="45.74974" lon="4.32645">
        <ele>570.985</ele>
        <time>2018-06-04T14:24:48Z</time>
      </trkpt>
      <trkpt lat="45.74977" lon="4.3265">
        <ele>569.96</ele>
        <time>2018-06-04T14:24:53Z</time>
      </trkpt>
      <trkpt lat="45.74978" lon="4.32654">
        <ele>568.831</ele>
        <time>2018-06-04T14:24:59Z</time>
      </trkpt>
      <trkpt lat="45.74981" lon="4.3266">
        <ele>568.365</ele>
        <time>2018-06-04T14:25:04Z</time>
      </trkpt>
      <trkpt lat="45.74983" lon="4.32665">
        <ele>567.463</ele>
        <time>2018-06-04T14:25:10Z</time>
      </trkpt>
      <trkpt lat="45.74984" lon="4.32666">
        <ele>566.279</ele>
        <time>2018-06-04T14:25:16Z</time>
      </trkpt>
      <trkpt lat="45.74984" lon="4.32673">
        <ele>564.588</ele>
        <time>2018-06-04T14:25:22Z</time>
      </trkpt>
      <trkpt lat="45.74984" lon="4.32677">
        <ele>563.562</ele>
        <time>2018-06-04T14:25:28Z</time>
      </trkpt>
      <trkpt lat="45.74987" lon="4.32685">
        <ele>562.579</ele>
        <time>2018-06-04T14:25:33Z</time>
      </trkpt>
      <trkpt lat="45.74993" lon="4.32687">
        <ele>561.607</ele>
        <time>2018-06-04T14:25:39Z</time>
      </trkpt>
      <trkpt lat="45.74995" lon="4.32688">
        <ele>560.863</ele>
        <time>2018-06-04T14:25:44Z</time>
      </trkpt>
      <trkpt lat="45.74996" lon="4.3269">
        <ele>560.527</ele>
        <time>2018-06-04T14:25:50Z</time>
      </trkpt>
      <trkpt lat="45.75" lon="4.32692">
        <ele>559.651</ele>
        <time>2018-06-04T14:25:55Z</time>
      </trkpt>
      <trkpt lat="45.75002" lon="4.32698">
        <ele>558.44</ele>
        <time>2018-06-04T14:26:00Z</time>
      </trkpt>
      <trkpt lat="45.75005" lon="4.32703">
        <ele>557.244</ele>
        <time>2018-06-04T14:26:06Z</time>
      </trkpt>
      <trkpt lat="45.75006" lon="4.32707">
        <ele>556.136</ele>
        <time>2018-06-04T14:26:11Z</time>
      </trkpt>
      <trkpt lat="45.7501" lon="4.32717">
        <ele>554.99</ele>
        <time>2018-06-04T14:26:17Z</time>
      </trkpt>
      <trkpt lat="45.75011" lon="4.32726">
        <ele>554.623</ele>
        <time>2018-06-04T14:26:22Z</time>
      </trkpt>
      <trkpt lat="45.75014" lon="4.32732">
        <ele>553.983</ele>
        <time>2018-06-04T14:26:28Z</time>
      </trkpt>
      <trkpt lat="45.75016" lon="4.32737">
        <ele>553.639</ele>
        <time>2018-06-04T14:26:33Z</time>
      </trkpt>
      <trkpt lat="45.75021" lon="4.32744">
        <ele>552.828</ele>
        <time>2018-06-04T14:26:39Z</time>
      </trkpt>
      <trkpt lat="45.75024" lon="4.3275">
        <ele>552.127</ele>
        <time>2018-06-04T14:26:44Z</time>
      </trkpt>
      <trkpt lat="45.75029" lon="4.32757">
        <ele>550.896</ele>
        <time>2018-06-04T14:26:50Z</time>
      </trkpt>
      <trkpt lat="45.75033" lon="4.32763">
        <ele>550.076</ele>
        <time>2018-06-04T14:26:56Z</time>
      </trkpt>
      <trkpt lat="45.75037" lon="4.32768">
        <ele>549.257</ele>
        <time>2018-06-04T14:27:01Z</time>
      </trkpt>
      <trkpt lat="45.75042" lon="4.32773">
        <ele>548.556</ele>
        <time>2018-06-04T14:27:06Z</time>
      </trkpt>
      <trkpt lat="45.75046" lon="4.32775">
        <ele>547.475</ele>
        <time>2018-06-04T14:27:12Z</time>
      </trkpt>
      <trkpt lat="45.75049" lon="4.32778">
        <ele>546.321</ele>
        <time>2018-06-04T14:27:17Z</time>
      </trkpt>
      <trkpt lat="45.75054" lon="4.32782">
        <ele>545.299</ele>
        <time>2018-06-04T14:27:23Z</time>
      </trkpt>
      <trkpt lat="45.75059" lon="4.32786">
        <ele>544.606</ele>
        <time>2018-06-04T14:27:29Z</time>
      </trkpt>
      <trkpt lat="45.75065" lon="4.32791">
        <ele>544.285</ele>
        <time>2018-06-04T14:27:34Z</time>
      </trkpt>
      <trkpt lat="45.75068" lon="4.32794">
        <ele>543.319</ele>
        <time>2018-06-04T14:27:40Z</time>
      </trkpt>
      <trkpt lat="45.75073" lon="4.32797">
        <ele>542.354</ele>
        <time>2018-06-04T14:27:45Z</time>
      </trkpt>
      <trkpt lat="45.75075" lon="4.32799">
        <ele>541.752</ele>
        <time>2018-06-04T14:27:51Z</time>
      </trkpt>
      <trkpt lat="45.75073" lon="4.32802">
        <ele>541.04</ele>
        <time>2018-06-04T14:27:56Z</time>
      </trkpt>
      <trkpt lat="45.75073" lon="4.32803">
        <ele>540.423</ele>
        <time>2018-06-04T14:28:01Z</time>
      </trkpt>
      <trkpt lat="45.75073" lon="4.32806">
        <ele>539.752</ele>
        <time>2018-06-04T14:28:06Z</time>
      </trkpt>
      <trkpt lat="45.75073" lon="4.32807">
        <ele>539.425</ele>
        <time>2018-06-04T14:28:12Z</time>
      </trkpt>
      <trkpt lat="45.75072" lon="4.32806">
        <ele>539.402</ele>
        <time>2018-06-04T14:28:17Z</time>
      </trkpt>
      <trkpt lat="45.75069" lon="4.32807">
        <ele>539.751</ele>
        <time>2018-06-04T14:28:22Z</time>
      </trkpt>
      <trkpt lat="45.75067" lon="4.32808">
        <ele>539.542</ele>
        <time>2018-06-04T14:28:28Z</time>
      </trkpt>
      <trkpt lat="45.75068" lon="4.32807">
        <ele>539.149</ele>
        <time>2018-06-04T14:28:33Z</time>
      </trkpt>
      <trkpt lat="45.75068" lon="4.32806">
        <ele>537.93</ele>
        <time>2018-06-04T14:28:38Z</time>
      </trkpt>
      <trkpt lat="45.75069" lon="4.32805">
        <ele>537.405</ele>
        <time>2018-06-04T14:28:44Z</time>
      </trkpt>
      <trkpt lat="45.75069" lon="4.32803">
        <ele>536.556</ele>
        <time>2018-06-04T14:28:49Z</time>
      </trkpt>
      <trkpt lat="45.75071" lon="4.32802">
        <ele>536.167</ele>
        <time>2018-06-04T14:28:55Z</time>
      </trkpt>
      <trkpt lat="45.75072" lon="4.32802">
        <ele>536.027</ele>
        <time>2018-06-04T14:29:01Z</time>
      </trkpt>
      <trkpt lat="45.75073" lon="4.32803">
        <ele>535.315</ele>
        <time>2018-06-04T14:29:07Z</time>
      </trkpt>
      <trkpt lat="45.75073" lon="4.328">
        <ele>534.922</ele>
        <time>2018-06-04T14:29:13Z</time>
      </trkpt>
      <trkpt lat="45.75073" lon="4.328">
        <ele>534.885</ele>
        <time>2018-06-04T14:29:18Z</time>
      </trkpt>
      <trkpt lat="45.75073" lon="4.328">
        <ele>534.771</ele>
        <time>2018-06-04T14:29:24Z</time>
      </trkpt>
      <trkpt lat="45.75073" lon="4.328">
        <ele>534.683</ele>
        <time>2018-06-04T14:29:29Z</time>
      </trkpt>
      <trkpt lat="45.75073" lon="4.328">
        <ele>534.503</ele>
        <time>2018-06-04T14:29:35Z</time>
      </trkpt>
      <trkpt lat="45.7507" lon="4.32799">
        <ele>533.932</ele>
        <time>2018-06-04T14:29:41Z</time>
      </trkpt>
      <trkpt lat="45.7507" lon="4.32799">
        <ele>533.659</ele>
        <time>2018-06-04T14:29:47Z</time>
      </trkpt>
      <trkpt lat="45.75068" lon="4.32801">
        <ele>533.446</ele>
        <time>2018-06-04T14:29:52Z</time>
      </trkpt>
      <trkpt lat="45.75066" lon="4.32802">
        <ele>532.642</ele>
        <time>2018-06-04T14:29:58Z</time>
      </trkpt>
      <trkpt lat="45.75062" lon="4.32799">
        <ele>532.031</ele>
        <time>2018-06-04T14:30:03Z</time>
      </trkpt>
      <trkpt lat="45.75061" lon="4.328">
        <ele>531.317</ele>
        <time>2018-06-04T14:30:09Z</time>
      </trkpt>
      <trkpt lat="45.75058" lon="4.32808">
        <ele>530.059</ele>
        <time>2018-06-04T14:30:15Z</time>
      </trkpt>
      <trkpt lat="45.75057" lon="4.32814">
        <ele>529.827</ele>
        <time>2018-06-04T14:30:20Z</time>
      </trkpt>
      <trkpt lat="45.75057" lon="4.32814">
        <ele>529.394</ele>
        <time>2018-06-04T14:30:26Z</time>
      </trkpt>
      <trkpt lat="45.75055" lon="4.32822">
        <ele>529.023</ele>
        <time>2018-06-04T14:30:31Z</time>
      </trkpt>
      <trkpt lat="45.75054" lon="4.32829">
        <ele>529.012</ele>
        <time>2018-06-04T14:30:37Z</time>
      </trkpt>
      <trkpt lat="45.75051" lon="4.32835">
        <ele>528.826</ele>
        <time>2018-06-04T14:30:43Z</time>
      </trkpt>
      <trkpt lat="45.75049" lon="4.32845">
        <ele>528.656</ele>
        <time>2018-06-04T14:30:48Z</time>
      </trkpt>
      <trkpt lat="45.75048" lon="4.32854">
        <ele>528.692</ele>
        <time>2018-06-04T14:30:54Z</time>
      </trkpt>
      <trkpt lat="45.75046" lon="4.32864">
        <ele>528.453</ele>
        <time>2018-06-04T14:31:00Z</time>
      </trkpt>
      <trkpt lat="45.75042" lon="4.32875">
        <ele>527.779</ele>
        <time>2018-06-04T14:31:05Z</time>
      </trkpt>
      <trkpt lat="45.75039" lon="4.32882">
        <ele>526.991</ele>
        <time>2018-06-04T14:31:11Z</time>
      </trkpt>
      <trkpt lat="45.75038" lon="4.32889">
        <ele>526.232</ele>
        <time>2018-06-04T14:31:17Z</time>
      </trkpt>
      <trkpt lat="45.75036" lon="4.32901">
        <ele>525.347</ele>
        <time>2018-06-04T14:31:23Z</time>
      </trkpt>
      <trkpt lat="45.75035" lon="4.32911">
        <ele>524.284</ele>
        <time>2018-06-04T14:31:29Z</time>
      </trkpt>
      <trkpt lat="45.75036" lon="4.32915">
        <ele>523.516</ele>
        <time>2018-06-04T14:31:34Z</time>
      </trkpt>
      <trkpt lat="45.75036" lon="4.32918">
        <ele>522.95</ele>
        <time>2018-06-04T14:31:39Z</time>
      </trkpt>
      <trkpt lat="45.75035" lon="4.32921">
        <ele>522.458</ele>
        <time>2018-06-04T14:31:45Z</time>
      </trkpt>
      <trkpt lat="45.75033" lon="4.32927">
        <ele>521.507</ele>
        <time>2018-06-04T14:31:51Z</time>
      </trkpt>
      <trkpt lat="45.75033" lon="4.32935">
        <ele>520.959</ele>
        <time>2018-06-04T14:31:56Z</time>
      </trkpt>
      <trkpt lat="45.75031" lon="4.32941">
        <ele>520.659</ele>
        <time>2018-06-04T14:32:02Z</time>
      </trkpt>
      <trkpt lat="45.7503" lon="4.32946">
        <ele>520.298</ele>
        <time>2018-06-04T14:32:07Z</time>
      </trkpt>
      <trkpt lat="45.7503" lon="4.32955">
        <ele>519.694</ele>
        <time>2018-06-04T14:32:13Z</time>
      </trkpt>
      <trkpt lat="45.75029" lon="4.32961">
        <ele>519.666</ele>
        <time>2018-06-04T14:32:18Z</time>
      </trkpt>
      <trkpt lat="45.75025" lon="4.32971">
        <ele>520.055</ele>
        <time>2018-06-04T14:32:23Z</time>
      </trkpt>
      <trkpt lat="45.75025" lon="4.32977">
        <ele>520.287</ele>
        <time>2018-06-04T14:32:29Z</time>
      </trkpt>
      <trkpt lat="45.75025" lon="4.32983">
        <ele>520.742</ele>
        <time>2018-06-04T14:32:35Z</time>
      </trkpt>
      <trkpt lat="45.75027" lon="4.32993">
        <ele>520.998</ele>
        <time>2018-06-04T14:32:41Z</time>
      </trkpt>
      <trkpt lat="45.75028" lon="4.33004">
        <ele>521.504</ele>
        <time>2018-06-04T14:32:47Z</time>
      </trkpt>
      <trkpt lat="45.7503" lon="4.33012">
        <ele>522.146</ele>
        <time>2018-06-04T14:32:53Z</time>
      </trkpt>
      <trkpt lat="45.7503" lon="4.3302">
        <ele>523.13</ele>
        <time>2018-06-04T14:32:59Z</time>
      </trkpt>
      <trkpt lat="45.7503" lon="4.33024">
        <ele>523.788</ele>
        <time>2018-06-04T14:33:05Z</time>
      </trkpt>
      <trkpt lat="45.75029" lon="4.33027">
        <ele>524.844</ele>
        <time>2018-06-04T14:33:11Z</time>
      </trkpt>
      <trkpt lat="45.7503" lon="4.33031">
        <ele>525.712</ele>
        <time>2018-06-04T14:33:17Z</time>
      </trkpt>
      <trkpt lat="45.75031" lon="4.33038">
        <ele>526.185</ele>
        <time>2018-06-04T14:33:22Z</time>
      </trkpt>
      <trkpt lat="45.75034" lon="4.33044">
        <ele>526.863</ele>
        <time>2018-06-04T14:33:28Z</time>
      </trkpt>
      <trkpt lat="45.75035" lon="4.3305">
        <ele>527.343</ele>
        <time>2018-06-04T14:33:33Z</time>
      </trkpt>
      <trkpt lat="45.75039" lon="4.3306">
        <ele>527.876</ele>
        <time>2018-06-04T14:33:39Z</time>
      </trkpt>
      <trkpt lat="45.7504" lon="4.33066">
        <ele>527.925</ele>
        <time>2018-06-04T14:33:45Z</time>
      </trkpt>
      <trkpt lat="45.75043" lon="4.33072">
        <ele>528.37</ele>
        <time>2018-06-04T14:33:51Z</time>
      </trkpt>
      <trkpt lat="45.75047" lon="4.33079">
        <ele>528.887</ele>
        <time>2018-06-04T14:33:57Z</time>
      </trkpt>
      <trkpt lat="45.75049" lon="4.33085">
        <ele>529.283</ele>
        <time>2018-06-04T14:34:02Z</time>
      </trkpt>
      <trkpt lat="45.75052" lon="4.33094">
        <ele>529.98</ele>
        <time>2018-06-04T14:34:08Z</time>
      </trkpt>
      <trkpt lat="45.75054" lon="4.33106">
        <ele>530.621</ele>
        <time>2018-06-04T14:34:14Z</time>
      </trkpt>
      <trkpt lat="45.75055" lon="4.33113">
        <ele>531.119</ele>
        <time>2018-06-04T14:34:19Z</time>
      </trkpt>
      <trkpt lat="45.75055" lon="4.3312">
        <ele>531.835</ele>
        <time>2018-06-04T14:34:25Z</time>
      </trkpt>
      <trkpt lat="45.75055" lon="4.33129">
        <ele>532.513</ele>
        <time>2018-06-04T14:34:30Z</time>
      </trkpt>
      <trkpt lat="45.75054" lon="4.33138">
        <ele>532.763</ele>
        <time>2018-06-04T14:34:36Z</time>
      </trkpt>
      <trkpt lat="45.75054" lon="4.33147">
        <ele>533.055</ele>
        <time>2018-06-04T14:34:41Z</time>
      </trkpt>
      <trkpt lat="45.75055" lon="4.33155">
        <ele>533.372</ele>
        <time>2018-06-04T14:34:47Z</time>
      </trkpt>
      <trkpt lat="45.75054" lon="4.33163">
        <ele>533.873</ele>
        <time>2018-06-04T14:34:53Z</time>
      </trkpt>
      <trkpt lat="45.75053" lon="4.33174">
        <ele>534.441</ele>
        <time>2018-06-04T14:34:59Z</time>
      </trkpt>
      <trkpt lat="45.75052" lon="4.33183">
        <ele>535.146</ele>
        <time>2018-06-04T14:35:05Z</time>
      </trkpt>
      <trkpt lat="45.75051" lon="4.33193">
        <ele>535.783</ele>
        <time>2018-06-04T14:35:11Z</time>
      </trkpt>
      <trkpt lat="45.7505" lon="4.332">
        <ele>536.527</ele>
        <time>2018-06-04T14:35:17Z</time>
      </trkpt>
      <trkpt lat="45.7505" lon="4.3321">
        <ele>537.264</ele>
        <time>2018-06-04T14:35:23Z</time>
      </trkpt>
      <trkpt lat="45.75048" lon="4.33218">
        <ele>537.973</ele>
        <time>2018-06-04T14:35:29Z</time>
      </trkpt>
      <trkpt lat="45.75046" lon="4.33222">
        <ele>538.161</ele>
        <time>2018-06-04T14:35:34Z</time>
      </trkpt>
      <trkpt lat="45.75045" lon="4.33223">
        <ele>537.971</ele>
        <time>2018-06-04T14:35:40Z</time>
      </trkpt>
      <trkpt lat="45.75044" lon="4.33227">
        <ele>538.409</ele>
        <time>2018-06-04T14:35:46Z</time>
      </trkpt>
      <trkpt lat="45.75044" lon="4.3323">
        <ele>538.954</ele>
        <time>2018-06-04T14:35:52Z</time>
      </trkpt>
      <trkpt lat="45.75045" lon="4.33229">
        <ele>539.077</ele>
        <time>2018-06-04T14:35:57Z</time>
      </trkpt>
      <trkpt lat="45.75045" lon="4.33227">
        <ele>539.32</ele>
        <time>2018-06-04T14:36:03Z</time>
      </trkpt>
      <trkpt lat="45.75045" lon="4.33227">
        <ele>539.324</ele>
        <time>2018-06-04T14:36:09Z</time>
      </trkpt>
      <trkpt lat="45.75046" lon="4.33226">
        <ele>539.105</ele>
        <time>2018-06-04T14:36:14Z</time>
      </trkpt>
      <trkpt lat="45.75045" lon="4.33224">
        <ele>539.166</ele>
        <time>2018-06-04T14:36:20Z</time>
      </trkpt>
      <trkpt lat="45.75044" lon="4.33224">
        <ele>539.334</ele>
        <time>2018-06-04T14:36:26Z</time>
      </trkpt>
      <trkpt lat="45.75043" lon="4.33224">
        <ele>539.259</ele>
        <time>2018-06-04T14:36:31Z</time>
      </trkpt>
      <trkpt lat="45.75044" lon="4.33226">
        <ele>539.26</ele>
        <time>2018-06-04T14:36:36Z</time>
      </trkpt>
      <trkpt lat="45.75046" lon="4.33228">
        <ele>539.193</ele>
        <time>2018-06-04T14:36:43Z</time>
      </trkpt>
      <trkpt lat="45.75046" lon="4.33228">
        <ele>539.216</ele>
        <time>2018-06-04T14:36:48Z</time>
      </trkpt>
      <trkpt lat="45.75046" lon="4.33228">
        <ele>539.352</ele>
        <time>2018-06-04T14:36:53Z</time>
      </trkpt>
      <trkpt lat="45.75047" lon="4.33228">
        <ele>539.462</ele>
        <time>2018-06-04T14:36:59Z</time>
      </trkpt>
      <trkpt lat="45.75048" lon="4.33228">
        <ele>539.416</ele>
        <time>2018-06-04T14:37:04Z</time>
      </trkpt>
      <trkpt lat="45.75048" lon="4.33228">
        <ele>539.828</ele>
        <time>2018-06-04T14:37:10Z</time>
      </trkpt>
      <trkpt lat="45.75049" lon="4.33229">
        <ele>540.028</ele>
        <time>2018-06-04T14:37:15Z</time>
      </trkpt>
      <trkpt lat="45.75048" lon="4.33227">
        <ele>540</ele>
        <time>2018-06-04T14:37:21Z</time>
      </trkpt>
      <trkpt lat="45.75045" lon="4.33224">
        <ele>540.028</ele>
        <time>2018-06-04T14:37:26Z</time>
      </trkpt>
      <trkpt lat="45.75043" lon="4.33225">
        <ele>540.02</ele>
        <time>2018-06-04T14:37:32Z</time>
      </trkpt>
      <trkpt lat="45.75043" lon="4.33225">
        <ele>539.953</ele>
        <time>2018-06-04T14:37:37Z</time>
      </trkpt>
      <trkpt lat="45.75044" lon="4.33225">
        <ele>539.776</ele>
        <time>2018-06-04T14:37:43Z</time>
      </trkpt>
      <trkpt lat="45.75044" lon="4.33227">
        <ele>539.82</ele>
        <time>2018-06-04T14:37:49Z</time>
      </trkpt>
      <trkpt lat="45.75042" lon="4.3323">
        <ele>539.864</ele>
        <time>2018-06-04T14:37:54Z</time>
      </trkpt>
      <trkpt lat="45.75042" lon="4.33229">
        <ele>539.939</ele>
        <time>2018-06-04T14:37:59Z</time>
      </trkpt>
      <trkpt lat="45.75043" lon="4.33228">
        <ele>540.09</ele>
        <time>2018-06-04T14:38:05Z</time>
      </trkpt>
      <trkpt lat="45.75044" lon="4.33227">
        <ele>540.141</ele>
        <time>2018-06-04T14:38:11Z</time>
      </trkpt>
      <trkpt lat="45.75045" lon="4.33228">
        <ele>540.24</ele>
        <time>2018-06-04T14:38:17Z</time>
      </trkpt>
      <trkpt lat="45.75045" lon="4.33227">
        <ele>540.343</ele>
        <time>2018-06-04T14:38:22Z</time>
      </trkpt>
      <trkpt lat="45.75045" lon="4.33226">
        <ele>541.585</ele>
        <time>2018-06-04T14:38:28Z</time>
      </trkpt>
      <trkpt lat="45.75045" lon="4.33227">
        <ele>541.709</ele>
        <time>2018-06-04T14:38:33Z</time>
      </trkpt>
      <trkpt lat="45.75045" lon="4.33228">
        <ele>541.703</ele>
        <time>2018-06-04T14:38:38Z</time>
      </trkpt>
      <trkpt lat="45.75045" lon="4.33229">
        <ele>541.694</ele>
        <time>2018-06-04T14:38:43Z</time>
      </trkpt>
      <trkpt lat="45.75045" lon="4.33228">
        <ele>541.678</ele>
        <time>2018-06-04T14:38:49Z</time>
      </trkpt>
      <trkpt lat="45.75046" lon="4.33227">
        <ele>541.637</ele>
        <time>2018-06-04T14:38:54Z</time>
      </trkpt>
      <trkpt lat="45.75046" lon="4.33227">
        <ele>541.628</ele>
        <time>2018-06-04T14:39:00Z</time>
      </trkpt>
      <trkpt lat="45.75046" lon="4.33227">
        <ele>541.657</ele>
        <time>2018-06-04T14:39:06Z</time>
      </trkpt>
      <trkpt lat="45.75046" lon="4.33227">
        <ele>541.692</ele>
        <time>2018-06-04T14:39:13Z</time>
      </trkpt>
      <trkpt lat="45.75046" lon="4.33227">
        <ele>541.679</ele>
        <time>2018-06-04T14:39:19Z</time>
      </trkpt>
      <trkpt lat="45.75046" lon="4.33227">
        <ele>541.676</ele>
        <time>2018-06-04T14:39:24Z</time>
      </trkpt>
      <trkpt lat="45.75046" lon="4.33227">
        <ele>541.668</ele>
        <time>2018-06-04T14:39:30Z</time>
      </trkpt>
      <trkpt lat="45.75046" lon="4.33227">
        <ele>541.659</ele>
        <time>2018-06-04T14:39:36Z</time>
      </trkpt>
      <trkpt lat="45.75046" lon="4.33227">
        <ele>541.664</ele>
        <time>2018-06-04T14:39:41Z</time>
      </trkpt>
      <trkpt lat="45.75046" lon="4.33227">
        <ele>541.644</ele>
        <time>2018-06-04T14:39:46Z</time>
      </trkpt>
      <trkpt lat="45.75046" lon="4.33227">
        <ele>541.635</ele>
        <time>2018-06-04T14:39:52Z</time>
      </trkpt>
      <trkpt lat="45.75046" lon="4.33227">
        <ele>541.601</ele>
        <time>2018-06-04T14:39:58Z</time>
      </trkpt>
      <trkpt lat="45.75045" lon="4.33229">
        <ele>541.65</ele>
        <time>2018-06-04T14:40:03Z</time>
      </trkpt>
      <trkpt lat="45.75042" lon="4.33236">
        <ele>542.234</ele>
        <time>2018-06-04T14:40:09Z</time>
      </trkpt>
      <trkpt lat="45.7504" lon="4.33242">
        <ele>542.458</ele>
        <time>2018-06-04T14:40:14Z</time>
      </trkpt>
      <trkpt lat="45.75039" lon="4.33248">
        <ele>543.125</ele>
        <time>2018-06-04T14:40:20Z</time>
      </trkpt>
      <trkpt lat="45.75035" lon="4.33258">
        <ele>543.809</ele>
        <time>2018-06-04T14:40:26Z</time>
      </trkpt>
      <trkpt lat="45.75032" lon="4.33267">
        <ele>544.311</ele>
        <time>2018-06-04T14:40:32Z</time>
      </trkpt>
      <trkpt lat="45.75027" lon="4.33274">
        <ele>544.826</ele>
        <time>2018-06-04T14:40:38Z</time>
      </trkpt>
      <trkpt lat="45.75025" lon="4.3328">
        <ele>544.99</ele>
        <time>2018-06-04T14:40:44Z</time>
      </trkpt>
      <trkpt lat="45.75021" lon="4.33286">
        <ele>545.404</ele>
        <time>2018-06-04T14:40:50Z</time>
      </trkpt>
      <trkpt lat="45.7502" lon="4.33292">
        <ele>545.628</ele>
        <time>2018-06-04T14:40:56Z</time>
      </trkpt>
      <trkpt lat="45.75017" lon="4.33298">
        <ele>545.591</ele>
        <time>2018-06-04T14:41:01Z</time>
      </trkpt>
      <trkpt lat="45.75012" lon="4.33304">
        <ele>545.738</ele>
        <time>2018-06-04T14:41:07Z</time>
      </trkpt>
      <trkpt lat="45.75009" lon="4.33311">
        <ele>546.081</ele>
        <time>2018-06-04T14:41:12Z</time>
      </trkpt>
      <trkpt lat="45.75005" lon="4.3332">
        <ele>546.194</ele>
        <time>2018-06-04T14:41:18Z</time>
      </trkpt>
      <trkpt lat="45.75003" lon="4.33323">
        <ele>546.452</ele>
        <time>2018-06-04T14:41:23Z</time>
      </trkpt>
      <trkpt lat="45.75001" lon="4.33326">
        <ele>546.719</ele>
        <time>2018-06-04T14:41:28Z</time>
      </trkpt>
      <trkpt lat="45.74997" lon="4.33333">
        <ele>547.139</ele>
        <time>2018-06-04T14:41:34Z</time>
      </trkpt>
      <trkpt lat="45.74993" lon="4.33338">
        <ele>547.671</ele>
        <time>2018-06-04T14:41:39Z</time>
      </trkpt>
      <trkpt lat="45.74989" lon="4.33344">
        <ele>548.503</ele>
        <time>2018-06-04T14:41:44Z</time>
      </trkpt>
      <trkpt lat="45.74984" lon="4.3335">
        <ele>548.987</ele>
        <time>2018-06-04T14:41:49Z</time>
      </trkpt>
      <trkpt lat="45.7498" lon="4.33357">
        <ele>549.235</ele>
        <time>2018-06-04T14:41:54Z</time>
      </trkpt>
      <trkpt lat="45.74979" lon="4.33361">
        <ele>549.422</ele>
        <time>2018-06-04T14:41:59Z</time>
      </trkpt>
      <trkpt lat="45.74976" lon="4.33368">
        <ele>549.573</ele>
        <time>2018-06-04T14:42:05Z</time>
      </trkpt>
      <trkpt lat="45.74971" lon="4.33373">
        <ele>549.895</ele>
        <time>2018-06-04T14:42:10Z</time>
      </trkpt>
      <trkpt lat="45.74965" lon="4.33378">
        <ele>550.528</ele>
        <time>2018-06-04T14:42:16Z</time>
      </trkpt>
      <trkpt lat="45.74961" lon="4.33383">
        <ele>550.951</ele>
        <time>2018-06-04T14:42:22Z</time>
      </trkpt>
      <trkpt lat="45.74958" lon="4.33387">
        <ele>551.467</ele>
        <time>2018-06-04T14:42:27Z</time>
      </trkpt>
      <trkpt lat="45.74954" lon="4.33393">
        <ele>551.968</ele>
        <time>2018-06-04T14:42:33Z</time>
      </trkpt>
      <trkpt lat="45.74952" lon="4.33398">
        <ele>552.608</ele>
        <time>2018-06-04T14:42:38Z</time>
      </trkpt>
      <trkpt lat="45.74947" lon="4.33403">
        <ele>553.187</ele>
        <time>2018-06-04T14:42:44Z</time>
      </trkpt>
      <trkpt lat="45.74942" lon="4.33408">
        <ele>553.371</ele>
        <time>2018-06-04T14:42:49Z</time>
      </trkpt>
      <trkpt lat="45.74939" lon="4.33415">
        <ele>553.619</ele>
        <time>2018-06-04T14:42:55Z</time>
      </trkpt>
      <trkpt lat="45.74936" lon="4.33421">
        <ele>553.976</ele>
        <time>2018-06-04T14:43:00Z</time>
      </trkpt>
      <trkpt lat="45.74933" lon="4.33428">
        <ele>554.459</ele>
        <time>2018-06-04T14:43:06Z</time>
      </trkpt>
      <trkpt lat="45.74931" lon="4.33432">
        <ele>555.231</ele>
        <time>2018-06-04T14:43:11Z</time>
      </trkpt>
      <trkpt lat="45.74928" lon="4.33439">
        <ele>555.861</ele>
        <time>2018-06-04T14:43:17Z</time>
      </trkpt>
      <trkpt lat="45.74924" lon="4.33446">
        <ele>556.525</ele>
        <time>2018-06-04T14:43:23Z</time>
      </trkpt>
      <trkpt lat="45.74921" lon="4.3345">
        <ele>556.854</ele>
        <time>2018-06-04T14:43:28Z</time>
      </trkpt>
      <trkpt lat="45.74918" lon="4.33454">
        <ele>557.405</ele>
        <time>2018-06-04T14:43:34Z</time>
      </trkpt>
      <trkpt lat="45.74914" lon="4.33461">
        <ele>558.248</ele>
        <time>2018-06-04T14:43:40Z</time>
      </trkpt>
      <trkpt lat="45.74911" lon="4.33466">
        <ele>558.926</ele>
        <time>2018-06-04T14:43:46Z</time>
      </trkpt>
      <trkpt lat="45.74911" lon="4.33465">
        <ele>559.402</ele>
        <time>2018-06-04T14:43:51Z</time>
      </trkpt>
      <trkpt lat="45.74911" lon="4.33467">
        <ele>560.12</ele>
        <time>2018-06-04T14:43:57Z</time>
      </trkpt>
      <trkpt lat="45.74911" lon="4.33468">
        <ele>560.941</ele>
        <time>2018-06-04T14:44:03Z</time>
      </trkpt>
      <trkpt lat="45.7491" lon="4.33468">
        <ele>561.287</ele>
        <time>2018-06-04T14:44:08Z</time>
      </trkpt>
      <trkpt lat="45.7491" lon="4.33468">
        <ele>561.617</ele>
        <time>2018-06-04T14:44:14Z</time>
      </trkpt>
      <trkpt lat="45.7491" lon="4.33468">
        <ele>561.993</ele>
        <time>2018-06-04T14:44:19Z</time>
      </trkpt>
      <trkpt lat="45.74911" lon="4.33469">
        <ele>561.569</ele>
        <time>2018-06-04T14:44:24Z</time>
      </trkpt>
      <trkpt lat="45.7491" lon="4.33469">
        <ele>560.677</ele>
        <time>2018-06-04T14:44:30Z</time>
      </trkpt>
      <trkpt lat="45.74907" lon="4.33472">
        <ele>560.175</ele>
        <time>2018-06-04T14:44:36Z</time>
      </trkpt>
      <trkpt lat="45.74907" lon="4.33473">
        <ele>560.08</ele>
        <time>2018-06-04T14:44:41Z</time>
      </trkpt>
      <trkpt lat="45.74906" lon="4.33476">
        <ele>559.443</ele>
        <time>2018-06-04T14:44:47Z</time>
      </trkpt>
      <trkpt lat="45.74905" lon="4.33478">
        <ele>559.214</ele>
        <time>2018-06-04T14:44:53Z</time>
      </trkpt>
      <trkpt lat="45.74903" lon="4.33481">
        <ele>559.411</ele>
        <time>2018-06-04T14:44:58Z</time>
      </trkpt>
      <trkpt lat="45.749" lon="4.33487">
        <ele>559.496</ele>
        <time>2018-06-04T14:45:04Z</time>
      </trkpt>
      <trkpt lat="45.74895" lon="4.33495">
        <ele>559.578</ele>
        <time>2018-06-04T14:45:10Z</time>
      </trkpt>
      <trkpt lat="45.74891" lon="4.33502">
        <ele>560.026</ele>
        <time>2018-06-04T14:45:15Z</time>
      </trkpt>
      <trkpt lat="45.74888" lon="4.33511">
        <ele>560.55</ele>
        <time>2018-06-04T14:45:21Z</time>
      </trkpt>
      <trkpt lat="45.74883" lon="4.33521">
        <ele>561.003</ele>
        <time>2018-06-04T14:45:27Z</time>
      </trkpt>
      <trkpt lat="45.74879" lon="4.33529">
        <ele>561.36</ele>
        <time>2018-06-04T14:45:32Z</time>
      </trkpt>
      <trkpt lat="45.74874" lon="4.33536">
        <ele>561.942</ele>
        <time>2018-06-04T14:45:38Z</time>
      </trkpt>
      <trkpt lat="45.74869" lon="4.33547">
        <ele>562.905</ele>
        <time>2018-06-04T14:45:44Z</time>
      </trkpt>
      <trkpt lat="45.74865" lon="4.33554">
        <ele>563.391</ele>
        <time>2018-06-04T14:45:49Z</time>
      </trkpt>
      <trkpt lat="45.74864" lon="4.33557">
        <ele>564.019</ele>
        <time>2018-06-04T14:45:54Z</time>
      </trkpt>
      <trkpt lat="45.74862" lon="4.33563">
        <ele>564.689</ele>
        <time>2018-06-04T14:46:00Z</time>
      </trkpt>
      <trkpt lat="45.74858" lon="4.33572">
        <ele>565.406</ele>
        <time>2018-06-04T14:46:06Z</time>
      </trkpt>
      <trkpt lat="45.74855" lon="4.3358">
        <ele>565.586</ele>
        <time>2018-06-04T14:46:12Z</time>
      </trkpt>
      <trkpt lat="45.7485" lon="4.3359">
        <ele>566.041</ele>
        <time>2018-06-04T14:46:17Z</time>
      </trkpt>
      <trkpt lat="45.74847" lon="4.33597">
        <ele>566.57</ele>
        <time>2018-06-04T14:46:22Z</time>
      </trkpt>
      <trkpt lat="45.74846" lon="4.336">
        <ele>567.662</ele>
        <time>2018-06-04T14:46:27Z</time>
      </trkpt>
      <trkpt lat="45.74844" lon="4.33606">
        <ele>568.348</ele>
        <time>2018-06-04T14:46:32Z</time>
      </trkpt>
      <trkpt lat="45.74843" lon="4.33613">
        <ele>568.996</ele>
        <time>2018-06-04T14:46:38Z</time>
      </trkpt>
      <trkpt lat="45.74841" lon="4.33619">
        <ele>569.534</ele>
        <time>2018-06-04T14:46:44Z</time>
      </trkpt>
      <trkpt lat="45.74839" lon="4.33619">
        <ele>569.772</ele>
        <time>2018-06-04T14:46:49Z</time>
      </trkpt>
      <trkpt lat="45.74838" lon="4.33621">
        <ele>570.22</ele>
        <time>2018-06-04T14:46:55Z</time>
      </trkpt>
      <trkpt lat="45.74838" lon="4.33621">
        <ele>570.592</ele>
        <time>2018-06-04T14:47:00Z</time>
      </trkpt>
      <trkpt lat="45.74838" lon="4.33619">
        <ele>570.481</ele>
        <time>2018-06-04T14:47:05Z</time>
      </trkpt>
      <trkpt lat="45.74838" lon="4.3362">
        <ele>570.559</ele>
        <time>2018-06-04T14:47:11Z</time>
      </trkpt>
      <trkpt lat="45.74837" lon="4.33621">
        <ele>571.133</ele>
        <time>2018-06-04T14:47:16Z</time>
      </trkpt>
      <trkpt lat="45.74837" lon="4.33622">
        <ele>572.008</ele>
        <time>2018-06-04T14:47:22Z</time>
      </trkpt>
      <trkpt lat="45.74835" lon="4.33625">
        <ele>573.074</ele>
        <time>2018-06-04T14:47:28Z</time>
      </trkpt>
      <trkpt lat="45.74832" lon="4.33633">
        <ele>573.07</ele>
        <time>2018-06-04T14:47:33Z</time>
      </trkpt>
      <trkpt lat="45.74831" lon="4.33638">
        <ele>573.027</ele>
        <time>2018-06-04T14:47:38Z</time>
      </trkpt>
      <trkpt lat="45.7483" lon="4.33642">
        <ele>572.995</ele>
        <time>2018-06-04T14:47:43Z</time>
      </trkpt>
      <trkpt lat="45.74827" lon="4.3365">
        <ele>573.535</ele>
        <time>2018-06-04T14:47:48Z</time>
      </trkpt>
      <trkpt lat="45.74826" lon="4.33658">
        <ele>574.227</ele>
        <time>2018-06-04T14:47:54Z</time>
      </trkpt>
      <trkpt lat="45.74824" lon="4.33664">
        <ele>574.558</ele>
        <time>2018-06-04T14:47:59Z</time>
      </trkpt>
      <trkpt lat="45.74822" lon="4.33672">
        <ele>574.813</ele>
        <time>2018-06-04T14:48:05Z</time>
      </trkpt>
      <trkpt lat="45.7482" lon="4.3368">
        <ele>575.067</ele>
        <time>2018-06-04T14:48:10Z</time>
      </trkpt>
      <trkpt lat="45.74818" lon="4.33688">
        <ele>575.347</ele>
        <time>2018-06-04T14:48:16Z</time>
      </trkpt>
      <trkpt lat="45.74817" lon="4.33696">
        <ele>575.269</ele>
        <time>2018-06-04T14:48:21Z</time>
      </trkpt>
      <trkpt lat="45.74817" lon="4.33707">
        <ele>575.537</ele>
        <time>2018-06-04T14:48:27Z</time>
      </trkpt>
      <trkpt lat="45.74815" lon="4.33719">
        <ele>575.62</ele>
        <time>2018-06-04T14:48:32Z</time>
      </trkpt>
      <trkpt lat="45.74814" lon="4.3373">
        <ele>575.719</ele>
        <time>2018-06-04T14:48:37Z</time>
      </trkpt>
      <trkpt lat="45.74812" lon="4.33738">
        <ele>575.36</ele>
        <time>2018-06-04T14:48:43Z</time>
      </trkpt>
      <trkpt lat="45.7481" lon="4.33745">
        <ele>574.755</ele>
        <time>2018-06-04T14:48:49Z</time>
      </trkpt>
      <trkpt lat="45.74806" lon="4.33757">
        <ele>574.342</ele>
        <time>2018-06-04T14:48:55Z</time>
      </trkpt>
      <trkpt lat="45.74805" lon="4.33762">
        <ele>574.061</ele>
        <time>2018-06-04T14:49:00Z</time>
      </trkpt>
      <trkpt lat="45.74802" lon="4.33773">
        <ele>573.927</ele>
        <time>2018-06-04T14:49:06Z</time>
      </trkpt>
      <trkpt lat="45.74799" lon="4.3378">
        <ele>573.632</ele>
        <time>2018-06-04T14:49:11Z</time>
      </trkpt>
      <trkpt lat="45.74797" lon="4.33788">
        <ele>572.996</ele>
        <time>2018-06-04T14:49:17Z</time>
      </trkpt>
      <trkpt lat="45.74793" lon="4.33798">
        <ele>572.417</ele>
        <time>2018-06-04T14:49:23Z</time>
      </trkpt>
      <trkpt lat="45.74789" lon="4.33806">
        <ele>572.245</ele>
        <time>2018-06-04T14:49:28Z</time>
      </trkpt>
      <trkpt lat="45.74784" lon="4.33812">
        <ele>571.959</ele>
        <time>2018-06-04T14:49:33Z</time>
      </trkpt>
      <trkpt lat="45.74778" lon="4.33818">
        <ele>571.817</ele>
        <time>2018-06-04T14:49:38Z</time>
      </trkpt>
      <trkpt lat="45.74773" lon="4.33822">
        <ele>571.608</ele>
        <time>2018-06-04T14:49:43Z</time>
      </trkpt>
      <trkpt lat="45.74766" lon="4.33826">
        <ele>571.809</ele>
        <time>2018-06-04T14:49:49Z</time>
      </trkpt>
      <trkpt lat="45.7476" lon="4.33829">
        <ele>571.844</ele>
        <time>2018-06-04T14:49:55Z</time>
      </trkpt>
      <trkpt lat="45.74751" lon="4.33829">
        <ele>571.966</ele>
        <time>2018-06-04T14:50:01Z</time>
      </trkpt>
      <trkpt lat="45.74745" lon="4.33832">
        <ele>572.273</ele>
        <time>2018-06-04T14:50:06Z</time>
      </trkpt>
      <trkpt lat="45.74742" lon="4.33837">
        <ele>572.579</ele>
        <time>2018-06-04T14:50:11Z</time>
      </trkpt>
      <trkpt lat="45.74741" lon="4.33843">
        <ele>573.123</ele>
        <time>2018-06-04T14:50:17Z</time>
      </trkpt>
      <trkpt lat="45.74739" lon="4.33851">
        <ele>574.134</ele>
        <time>2018-06-04T14:50:23Z</time>
      </trkpt>
      <trkpt lat="45.74738" lon="4.33859">
        <ele>575.014</ele>
        <time>2018-06-04T14:50:29Z</time>
      </trkpt>
      <trkpt lat="45.74737" lon="4.33863">
        <ele>575.25</ele>
        <time>2018-06-04T14:50:35Z</time>
      </trkpt>
      <trkpt lat="45.74737" lon="4.33865">
        <ele>575.151</ele>
        <time>2018-06-04T14:50:41Z</time>
      </trkpt>
      <trkpt lat="45.74734" lon="4.33875">
        <ele>575.23</ele>
        <time>2018-06-04T14:50:47Z</time>
      </trkpt>
      <trkpt lat="45.74731" lon="4.33881">
        <ele>575.706</ele>
        <time>2018-06-04T14:50:53Z</time>
      </trkpt>
      <trkpt lat="45.74728" lon="4.3389">
        <ele>576.086</ele>
        <time>2018-06-04T14:50:59Z</time>
      </trkpt>
      <trkpt lat="45.74724" lon="4.33898">
        <ele>576.436</ele>
        <time>2018-06-04T14:51:04Z</time>
      </trkpt>
      <trkpt lat="45.7472" lon="4.33903">
        <ele>577.038</ele>
        <time>2018-06-04T14:51:09Z</time>
      </trkpt>
      <trkpt lat="45.74714" lon="4.33912">
        <ele>577.76</ele>
        <time>2018-06-04T14:51:15Z</time>
      </trkpt>
      <trkpt lat="45.74709" lon="4.33917">
        <ele>578.432</ele>
        <time>2018-06-04T14:51:20Z</time>
      </trkpt>
      <trkpt lat="45.74703" lon="4.33924">
        <ele>579.388</ele>
        <time>2018-06-04T14:51:26Z</time>
      </trkpt>
      <trkpt lat="45.74699" lon="4.33928">
        <ele>580.162</ele>
        <time>2018-06-04T14:51:31Z</time>
      </trkpt>
      <trkpt lat="45.74692" lon="4.33932">
        <ele>581.081</ele>
        <time>2018-06-04T14:51:37Z</time>
      </trkpt>
      <trkpt lat="45.74685" lon="4.33938">
        <ele>581.847</ele>
        <time>2018-06-04T14:51:43Z</time>
      </trkpt>
      <trkpt lat="45.74681" lon="4.33942">
        <ele>582.776</ele>
        <time>2018-06-04T14:51:48Z</time>
      </trkpt>
      <trkpt lat="45.74676" lon="4.33947">
        <ele>583.763</ele>
        <time>2018-06-04T14:51:53Z</time>
      </trkpt>
      <trkpt lat="45.7467" lon="4.33953">
        <ele>584.554</ele>
        <time>2018-06-04T14:51:58Z</time>
      </trkpt>
      <trkpt lat="45.74665" lon="4.3396">
        <ele>585.289</ele>
        <time>2018-06-04T14:52:04Z</time>
      </trkpt>
      <trkpt lat="45.7466" lon="4.33967">
        <ele>585.938</ele>
        <time>2018-06-04T14:52:10Z</time>
      </trkpt>
      <trkpt lat="45.74656" lon="4.33972">
        <ele>586.586</ele>
        <time>2018-06-04T14:52:15Z</time>
      </trkpt>
      <trkpt lat="45.74649" lon="4.33979">
        <ele>587.223</ele>
        <time>2018-06-04T14:52:21Z</time>
      </trkpt>
      <trkpt lat="45.74645" lon="4.33985">
        <ele>587.825</ele>
        <time>2018-06-04T14:52:27Z</time>
      </trkpt>
      <trkpt lat="45.74641" lon="4.3399">
        <ele>588.788</ele>
        <time>2018-06-04T14:52:33Z</time>
      </trkpt>
      <trkpt lat="45.74636" lon="4.33994">
        <ele>589.265</ele>
        <time>2018-06-04T14:52:39Z</time>
      </trkpt>
      <trkpt lat="45.74631" lon="4.34">
        <ele>589.77</ele>
        <time>2018-06-04T14:52:44Z</time>
      </trkpt>
      <trkpt lat="45.74626" lon="4.34004">
        <ele>590.379</ele>
        <time>2018-06-04T14:52:50Z</time>
      </trkpt>
      <trkpt lat="45.7462" lon="4.3401">
        <ele>590.958</ele>
        <time>2018-06-04T14:52:56Z</time>
      </trkpt>
      <trkpt lat="45.74616" lon="4.34014">
        <ele>591.281</ele>
        <time>2018-06-04T14:53:02Z</time>
      </trkpt>
      <trkpt lat="45.74609" lon="4.34021">
        <ele>591.744</ele>
        <time>2018-06-04T14:53:08Z</time>
      </trkpt>
      <trkpt lat="45.74605" lon="4.34029">
        <ele>592.388</ele>
        <time>2018-06-04T14:53:14Z</time>
      </trkpt>
      <trkpt lat="45.746" lon="4.34035">
        <ele>593.052</ele>
        <time>2018-06-04T14:53:20Z</time>
      </trkpt>
      <trkpt lat="45.74597" lon="4.34039">
        <ele>593.541</ele>
        <time>2018-06-04T14:53:25Z</time>
      </trkpt>
      <trkpt lat="45.74592" lon="4.34045">
        <ele>593.955</ele>
        <time>2018-06-04T14:53:30Z</time>
      </trkpt>
      <trkpt lat="45.74587" lon="4.34052">
        <ele>594.466</ele>
        <time>2018-06-04T14:53:35Z</time>
      </trkpt>
      <trkpt lat="45.74582" lon="4.34057">
        <ele>594.986</ele>
        <time>2018-06-04T14:53:41Z</time>
      </trkpt>
      <trkpt lat="45.74576" lon="4.34064">
        <ele>595.68</ele>
        <time>2018-06-04T14:53:47Z</time>
      </trkpt>
      <trkpt lat="45.74573" lon="4.34069">
        <ele>596.227</ele>
        <time>2018-06-04T14:53:52Z</time>
      </trkpt>
      <trkpt lat="45.74568" lon="4.34075">
        <ele>596.915</ele>
        <time>2018-06-04T14:53:58Z</time>
      </trkpt>
      <trkpt lat="45.74563" lon="4.34084">
        <ele>597.595</ele>
        <time>2018-06-04T14:54:04Z</time>
      </trkpt>
      <trkpt lat="45.74559" lon="4.3409">
        <ele>598.566</ele>
        <time>2018-06-04T14:54:10Z</time>
      </trkpt>
      <trkpt lat="45.74555" lon="4.34099">
        <ele>599.459</ele>
        <time>2018-06-04T14:54:15Z</time>
      </trkpt>
      <trkpt lat="45.74553" lon="4.34104">
        <ele>600.357</ele>
        <time>2018-06-04T14:54:21Z</time>
      </trkpt>
      <trkpt lat="45.7455" lon="4.3411">
        <ele>600.903</ele>
        <time>2018-06-04T14:54:26Z</time>
      </trkpt>
      <trkpt lat="45.74547" lon="4.34116">
        <ele>601.515</ele>
        <time>2018-06-04T14:54:32Z</time>
      </trkpt>
      <trkpt lat="45.74546" lon="4.34119">
        <ele>602.145</ele>
        <time>2018-06-04T14:54:37Z</time>
      </trkpt>
      <trkpt lat="45.74548" lon="4.34121">
        <ele>603.135</ele>
        <time>2018-06-04T14:54:43Z</time>
      </trkpt>
      <trkpt lat="45.74545" lon="4.34126">
        <ele>604.099</ele>
        <time>2018-06-04T14:54:48Z</time>
      </trkpt>
      <trkpt lat="45.74543" lon="4.34134">
        <ele>604.652</ele>
        <time>2018-06-04T14:54:53Z</time>
      </trkpt>
      <trkpt lat="45.74539" lon="4.34142">
        <ele>605.084</ele>
        <time>2018-06-04T14:54:58Z</time>
      </trkpt>
      <trkpt lat="45.74537" lon="4.34149">
        <ele>605.597</ele>
        <time>2018-06-04T14:55:04Z</time>
      </trkpt>
      <trkpt lat="45.74534" lon="4.34156">
        <ele>605.894</ele>
        <time>2018-06-04T14:55:10Z</time>
      </trkpt>
      <trkpt lat="45.74533" lon="4.34167">
        <ele>606.154</ele>
        <time>2018-06-04T14:55:16Z</time>
      </trkpt>
      <trkpt lat="45.74532" lon="4.34175">
        <ele>606.258</ele>
        <time>2018-06-04T14:55:21Z</time>
      </trkpt>
      <trkpt lat="45.74531" lon="4.34181">
        <ele>606.329</ele>
        <time>2018-06-04T14:55:26Z</time>
      </trkpt>
      <trkpt lat="45.7453" lon="4.34192">
        <ele>606.65</ele>
        <time>2018-06-04T14:55:32Z</time>
      </trkpt>
      <trkpt lat="45.74529" lon="4.34202">
        <ele>607.053</ele>
        <time>2018-06-04T14:55:38Z</time>
      </trkpt>
      <trkpt lat="45.74528" lon="4.34211">
        <ele>607.604</ele>
        <time>2018-06-04T14:55:44Z</time>
      </trkpt>
      <trkpt lat="45.74527" lon="4.34221">
        <ele>607.684</ele>
        <time>2018-06-04T14:55:49Z</time>
      </trkpt>
      <trkpt lat="45.74527" lon="4.34231">
        <ele>608.153</ele>
        <time>2018-06-04T14:55:55Z</time>
      </trkpt>
      <trkpt lat="45.74527" lon="4.3424">
        <ele>608.535</ele>
        <time>2018-06-04T14:56:01Z</time>
      </trkpt>
      <trkpt lat="45.74526" lon="4.34248">
        <ele>608.92</ele>
        <time>2018-06-04T14:56:07Z</time>
      </trkpt>
      <trkpt lat="45.74526" lon="4.34253">
        <ele>609.557</ele>
        <time>2018-06-04T14:56:13Z</time>
      </trkpt>
      <trkpt lat="45.74524" lon="4.34256">
        <ele>609.836</ele>
        <time>2018-06-04T14:56:18Z</time>
      </trkpt>
      <trkpt lat="45.74523" lon="4.34256">
        <ele>610.121</ele>
        <time>2018-06-04T14:56:23Z</time>
      </trkpt>
      <trkpt lat="45.74524" lon="4.34255">
        <ele>610.277</ele>
        <time>2018-06-04T14:56:28Z</time>
      </trkpt>
      <trkpt lat="45.74521" lon="4.34256">
        <ele>610.048</ele>
        <time>2018-06-04T14:56:33Z</time>
      </trkpt>
      <trkpt lat="45.7452" lon="4.34257">
        <ele>610.129</ele>
        <time>2018-06-04T14:56:39Z</time>
      </trkpt>
      <trkpt lat="45.74521" lon="4.34259">
        <ele>610.711</ele>
        <time>2018-06-04T14:56:45Z</time>
      </trkpt>
      <trkpt lat="45.74523" lon="4.34258">
        <ele>611.053</ele>
        <time>2018-06-04T14:56:50Z</time>
      </trkpt>
      <trkpt lat="45.74524" lon="4.34258">
        <ele>611.052</ele>
        <time>2018-06-04T14:56:55Z</time>
      </trkpt>
      <trkpt lat="45.74524" lon="4.34259">
        <ele>611.009</ele>
        <time>2018-06-04T14:57:01Z</time>
      </trkpt>
      <trkpt lat="45.74525" lon="4.34258">
        <ele>611.226</ele>
        <time>2018-06-04T14:57:07Z</time>
      </trkpt>
      <trkpt lat="45.74529" lon="4.34258">
        <ele>611.349</ele>
        <time>2018-06-04T14:57:13Z</time>
      </trkpt>
      <trkpt lat="45.74529" lon="4.34257">
        <ele>611.42</ele>
        <time>2018-06-04T14:57:18Z</time>
      </trkpt>
      <trkpt lat="45.74529" lon="4.34256">
        <ele>611.673</ele>
        <time>2018-06-04T14:57:24Z</time>
      </trkpt>
      <trkpt lat="45.74528" lon="4.34256">
        <ele>611.743</ele>
        <time>2018-06-04T14:57:30Z</time>
      </trkpt>
      <trkpt lat="45.74526" lon="4.34254">
        <ele>611.811</ele>
        <time>2018-06-04T14:57:36Z</time>
      </trkpt>
      <trkpt lat="45.74524" lon="4.34253">
        <ele>611.852</ele>
        <time>2018-06-04T14:57:41Z</time>
      </trkpt>
      <trkpt lat="45.74523" lon="4.34253">
        <ele>611.874</ele>
        <time>2018-06-04T14:57:47Z</time>
      </trkpt>
      <trkpt lat="45.74522" lon="4.34253">
        <ele>611.879</ele>
        <time>2018-06-04T14:57:52Z</time>
      </trkpt>
      <trkpt lat="45.74523" lon="4.34252">
        <ele>611.887</ele>
        <time>2018-06-04T14:57:58Z</time>
      </trkpt>
      <trkpt lat="45.74523" lon="4.34252">
        <ele>611.904</ele>
        <time>2018-06-04T14:58:03Z</time>
      </trkpt>
      <trkpt lat="45.74524" lon="4.34252">
        <ele>612.179</ele>
        <time>2018-06-04T14:58:09Z</time>
      </trkpt>
      <trkpt lat="45.74523" lon="4.34252">
        <ele>612.325</ele>
        <time>2018-06-04T14:58:15Z</time>
      </trkpt>
      <trkpt lat="45.74522" lon="4.34251">
        <ele>612.356</ele>
        <time>2018-06-04T14:58:20Z</time>
      </trkpt>
      <trkpt lat="45.74523" lon="4.34248">
        <ele>612.641</ele>
        <time>2018-06-04T14:58:25Z</time>
      </trkpt>
      <trkpt lat="45.74525" lon="4.34252">
        <ele>612.556</ele>
        <time>2018-06-04T14:58:31Z</time>
      </trkpt>
      <trkpt lat="45.74526" lon="4.34255">
        <ele>612.484</ele>
        <time>2018-06-04T14:58:37Z</time>
      </trkpt>
      <trkpt lat="45.74526" lon="4.34256">
        <ele>612.476</ele>
        <time>2018-06-04T14:58:43Z</time>
      </trkpt>
      <trkpt lat="45.74526" lon="4.34254">
        <ele>612.553</ele>
        <time>2018-06-04T14:58:49Z</time>
      </trkpt>
      <trkpt lat="45.74526" lon="4.34253">
        <ele>612.776</ele>
        <time>2018-06-04T14:58:54Z</time>
      </trkpt>
      <trkpt lat="45.74527" lon="4.34252">
        <ele>613.431</ele>
        <time>2018-06-04T14:59:01Z</time>
      </trkpt>
      <trkpt lat="45.74526" lon="4.34252">
        <ele>613.507</ele>
        <time>2018-06-04T14:59:06Z</time>
      </trkpt>
      <trkpt lat="45.74525" lon="4.34254">
        <ele>614.537</ele>
        <time>2018-06-04T14:59:12Z</time>
      </trkpt>
      <trkpt lat="45.74524" lon="4.34254">
        <ele>614.778</ele>
        <time>2018-06-04T14:59:17Z</time>
      </trkpt>
      <trkpt lat="45.74525" lon="4.34255">
        <ele>614.657</ele>
        <time>2018-06-04T14:59:23Z</time>
      </trkpt>
      <trkpt lat="45.74525" lon="4.34253">
        <ele>614.719</ele>
        <time>2018-06-04T14:59:28Z</time>
      </trkpt>
      <trkpt lat="45.74525" lon="4.34252">
        <ele>614.914</ele>
        <time>2018-06-04T14:59:34Z</time>
      </trkpt>
      <trkpt lat="45.74525" lon="4.34251">
        <ele>614.899</ele>
        <time>2018-06-04T14:59:39Z</time>
      </trkpt>
      <trkpt lat="45.74525" lon="4.34252">
        <ele>614.97</ele>
        <time>2018-06-04T14:59:45Z</time>
      </trkpt>
      <trkpt lat="45.74524" lon="4.34254">
        <ele>615.165</ele>
        <time>2018-06-04T14:59:51Z</time>
      </trkpt>
      <trkpt lat="45.74524" lon="4.34254">
        <ele>615.238</ele>
        <time>2018-06-04T14:59:57Z</time>
      </trkpt>
      <trkpt lat="45.74524" lon="4.34252">
        <ele>615.42</ele>
        <time>2018-06-04T15:00:03Z</time>
      </trkpt>
      <trkpt lat="45.74524" lon="4.34251">
        <ele>615.684</ele>
        <time>2018-06-04T15:00:09Z</time>
      </trkpt>
      <trkpt lat="45.74524" lon="4.34251">
        <ele>615.706</ele>
        <time>2018-06-04T15:00:14Z</time>
      </trkpt>
      <trkpt lat="45.74524" lon="4.34252">
        <ele>615.568</ele>
        <time>2018-06-04T15:00:20Z</time>
      </trkpt>
      <trkpt lat="45.74525" lon="4.34252">
        <ele>615.574</ele>
        <time>2018-06-04T15:00:25Z</time>
      </trkpt>
      <trkpt lat="45.74525" lon="4.34253">
        <ele>615.579</ele>
        <time>2018-06-04T15:00:31Z</time>
      </trkpt>
      <trkpt lat="45.74525" lon="4.34256">
        <ele>615.495</ele>
        <time>2018-06-04T15:00:37Z</time>
      </trkpt>
      <trkpt lat="45.74525" lon="4.34258">
        <ele>615.169</ele>
        <time>2018-06-04T15:00:43Z</time>
      </trkpt>
      <trkpt lat="45.74525" lon="4.34257">
        <ele>614.824</ele>
        <time>2018-06-04T15:00:48Z</time>
      </trkpt>
      <trkpt lat="45.74525" lon="4.34257">
        <ele>614.401</ele>
        <time>2018-06-04T15:00:53Z</time>
      </trkpt>
      <trkpt lat="45.74525" lon="4.34257">
        <ele>613.849</ele>
        <time>2018-06-04T15:00:58Z</time>
      </trkpt>
      <trkpt lat="45.74526" lon="4.34255">
        <ele>613.749</ele>
        <time>2018-06-04T15:01:04Z</time>
      </trkpt>
      <trkpt lat="45.74527" lon="4.34255">
        <ele>613.549</ele>
        <time>2018-06-04T15:01:10Z</time>
      </trkpt>
      <trkpt lat="45.74526" lon="4.34255">
        <ele>613.498</ele>
        <time>2018-06-04T15:01:16Z</time>
      </trkpt>
      <trkpt lat="45.74526" lon="4.34255">
        <ele>613.36</ele>
        <time>2018-06-04T15:01:21Z</time>
      </trkpt>
      <trkpt lat="45.74525" lon="4.34254">
        <ele>613.24</ele>
        <time>2018-06-04T15:01:27Z</time>
      </trkpt>
      <trkpt lat="45.74526" lon="4.34254">
        <ele>613.428</ele>
        <time>2018-06-04T15:01:32Z</time>
      </trkpt>
      <trkpt lat="45.74527" lon="4.34254">
        <ele>613.498</ele>
        <time>2018-06-04T15:01:38Z</time>
      </trkpt>
      <trkpt lat="45.74526" lon="4.34254">
        <ele>613.551</ele>
        <time>2018-06-04T15:01:44Z</time>
      </trkpt>
      <trkpt lat="45.74525" lon="4.34254">
        <ele>613.593</ele>
        <time>2018-06-04T15:01:50Z</time>
      </trkpt>
      <trkpt lat="45.74523" lon="4.34255">
        <ele>613.684</ele>
        <time>2018-06-04T15:01:56Z</time>
      </trkpt>
      <trkpt lat="45.74526" lon="4.34257">
        <ele>613.775</ele>
        <time>2018-06-04T15:02:01Z</time>
      </trkpt>
      <trkpt lat="45.74529" lon="4.34257">
        <ele>613.868</ele>
        <time>2018-06-04T15:02:06Z</time>
      </trkpt>
      <trkpt lat="45.7453" lon="4.34257">
        <ele>613.909</ele>
        <time>2018-06-04T15:02:11Z</time>
      </trkpt>
      <trkpt lat="45.7453" lon="4.34257">
        <ele>614.06</ele>
        <time>2018-06-04T15:02:17Z</time>
      </trkpt>
      <trkpt lat="45.74533" lon="4.34257">
        <ele>614.334</ele>
        <time>2018-06-04T15:02:23Z</time>
      </trkpt>
      <trkpt lat="45.74536" lon="4.34255">
        <ele>614.145</ele>
        <time>2018-06-04T15:02:28Z</time>
      </trkpt>
      <trkpt lat="45.7454" lon="4.34255">
        <ele>613.446</ele>
        <time>2018-06-04T15:02:34Z</time>
      </trkpt>
      <trkpt lat="45.74542" lon="4.34255">
        <ele>612.988</ele>
        <time>2018-06-04T15:02:39Z</time>
      </trkpt>
      <trkpt lat="45.74547" lon="4.34254">
        <ele>613.159</ele>
        <time>2018-06-04T15:02:45Z</time>
      </trkpt>
      <trkpt lat="45.74552" lon="4.34252">
        <ele>613.179</ele>
        <time>2018-06-04T15:02:51Z</time>
      </trkpt>
      <trkpt lat="45.74553" lon="4.34251">
        <ele>612.846</ele>
        <time>2018-06-04T15:02:56Z</time>
      </trkpt>
      <trkpt lat="45.74556" lon="4.34251">
        <ele>612.548</ele>
        <time>2018-06-04T15:03:02Z</time>
      </trkpt>
      <trkpt lat="45.74561" lon="4.34252">
        <ele>612.021</ele>
        <time>2018-06-04T15:03:08Z</time>
      </trkpt>
      <trkpt lat="45.74565" lon="4.34252">
        <ele>611.668</ele>
        <time>2018-06-04T15:03:13Z</time>
      </trkpt>
      <trkpt lat="45.7457" lon="4.34251">
        <ele>611.323</ele>
        <time>2018-06-04T15:03:18Z</time>
      </trkpt>
      <trkpt lat="45.74574" lon="4.34252">
        <ele>611.132</ele>
        <time>2018-06-04T15:03:24Z</time>
      </trkpt>
      <trkpt lat="45.7458" lon="4.3425">
        <ele>611.256</ele>
        <time>2018-06-04T15:03:30Z</time>
      </trkpt>
      <trkpt lat="45.74586" lon="4.34249">
        <ele>611.238</ele>
        <time>2018-06-04T15:03:36Z</time>
      </trkpt>
      <trkpt lat="45.74594" lon="4.34248">
        <ele>611.491</ele>
        <time>2018-06-04T15:03:42Z</time>
      </trkpt>
      <trkpt lat="45.74601" lon="4.34246">
        <ele>611.652</ele>
        <time>2018-06-04T15:03:48Z</time>
      </trkpt>
      <trkpt lat="45.74607" lon="4.34246">
        <ele>611.712</ele>
        <time>2018-06-04T15:03:53Z</time>
      </trkpt>
      <trkpt lat="45.74615" lon="4.34246">
        <ele>611.843</ele>
        <time>2018-06-04T15:03:59Z</time>
      </trkpt>
      <trkpt lat="45.74622" lon="4.34245">
        <ele>612.09</ele>
        <time>2018-06-04T15:04:05Z</time>
      </trkpt>
      <trkpt lat="45.74628" lon="4.34244">
        <ele>612.105</ele>
        <time>2018-06-04T15:04:10Z</time>
      </trkpt>
      <trkpt lat="45.74634" lon="4.34245">
        <ele>612.149</ele>
        <time>2018-06-04T15:04:15Z</time>
      </trkpt>
      <trkpt lat="45.74635" lon="4.34253">
        <ele>611.918</ele>
        <time>2018-06-04T15:04:21Z</time>
      </trkpt>
      <trkpt lat="45.74636" lon="4.34263">
        <ele>611.954</ele>
        <time>2018-06-04T15:04:27Z</time>
      </trkpt>
      <trkpt lat="45.74635" lon="4.34275">
        <ele>612.122</ele>
        <time>2018-06-04T15:04:33Z</time>
      </trkpt>
      <trkpt lat="45.74635" lon="4.34284">
        <ele>612.034</ele>
        <time>2018-06-04T15:04:38Z</time>
      </trkpt>
      <trkpt lat="45.74635" lon="4.34291">
        <ele>611.941</ele>
        <time>2018-06-04T15:04:43Z</time>
      </trkpt>
      <trkpt lat="45.74634" lon="4.34299">
        <ele>611.441</ele>
        <time>2018-06-04T15:04:49Z</time>
      </trkpt>
      <trkpt lat="45.7463" lon="4.34304">
        <ele>611.142</ele>
        <time>2018-06-04T15:04:54Z</time>
      </trkpt>
      <trkpt lat="45.74624" lon="4.3431">
        <ele>611.34</ele>
        <time>2018-06-04T15:05:00Z</time>
      </trkpt>
      <trkpt lat="45.74619" lon="4.34313">
        <ele>611.165</ele>
        <time>2018-06-04T15:05:06Z</time>
      </trkpt>
      <trkpt lat="45.74614" lon="4.34317">
        <ele>611.022</ele>
        <time>2018-06-04T15:05:12Z</time>
      </trkpt>
      <trkpt lat="45.7461" lon="4.34321">
        <ele>610.787</ele>
        <time>2018-06-04T15:05:17Z</time>
      </trkpt>
      <trkpt lat="45.74604" lon="4.34325">
        <ele>610.422</ele>
        <time>2018-06-04T15:05:22Z</time>
      </trkpt>
      <trkpt lat="45.74599" lon="4.34328">
        <ele>610.128</ele>
        <time>2018-06-04T15:05:28Z</time>
      </trkpt>
      <trkpt lat="45.74594" lon="4.34332">
        <ele>609.436</ele>
        <time>2018-06-04T15:05:33Z</time>
      </trkpt>
      <trkpt lat="45.74589" lon="4.34337">
        <ele>608.735</ele>
        <time>2018-06-04T15:05:39Z</time>
      </trkpt>
      <trkpt lat="45.74584" lon="4.34341">
        <ele>608.814</ele>
        <time>2018-06-04T15:05:44Z</time>
      </trkpt>
      <trkpt lat="45.74577" lon="4.34343">
        <ele>609.073</ele>
        <time>2018-06-04T15:05:49Z</time>
      </trkpt>
      <trkpt lat="45.74568" lon="4.34345">
        <ele>609.668</ele>
        <time>2018-06-04T15:05:55Z</time>
      </trkpt>
      <trkpt lat="45.74564" lon="4.34347">
        <ele>609.934</ele>
        <time>2018-06-04T15:06:00Z</time>
      </trkpt>
      <trkpt lat="45.74556" lon="4.34352">
        <ele>610.074</ele>
        <time>2018-06-04T15:06:06Z</time>
      </trkpt>
      <trkpt lat="45.74548" lon="4.34357">
        <ele>609.776</ele>
        <time>2018-06-04T15:06:12Z</time>
      </trkpt>
      <trkpt lat="45.74543" lon="4.34363">
        <ele>609.543</ele>
        <time>2018-06-04T15:06:18Z</time>
      </trkpt>
      <trkpt lat="45.7454" lon="4.34369">
        <ele>609.093</ele>
        <time>2018-06-04T15:06:24Z</time>
      </trkpt>
      <trkpt lat="45.7454" lon="4.3437">
        <ele>608.736</ele>
        <time>2018-06-04T15:06:29Z</time>
      </trkpt>
      <trkpt lat="45.74537" lon="4.34384">
        <ele>608.441</ele>
        <time>2018-06-04T15:06:35Z</time>
      </trkpt>
      <trkpt lat="45.74534" lon="4.3439">
        <ele>608.194</ele>
        <time>2018-06-04T15:06:40Z</time>
      </trkpt>
      <trkpt lat="45.74532" lon="4.34397">
        <ele>607.854</ele>
        <time>2018-06-04T15:06:45Z</time>
      </trkpt>
      <trkpt lat="45.7453" lon="4.34406">
        <ele>607.456</ele>
        <time>2018-06-04T15:06:51Z</time>
      </trkpt>
      <trkpt lat="45.74531" lon="4.34414">
        <ele>607.155</ele>
        <time>2018-06-04T15:06:57Z</time>
      </trkpt>
      <trkpt lat="45.7453" lon="4.34422">
        <ele>606.936</ele>
        <time>2018-06-04T15:07:03Z</time>
      </trkpt>
      <trkpt lat="45.7453" lon="4.34432">
        <ele>606.386</ele>
        <time>2018-06-04T15:07:09Z</time>
      </trkpt>
      <trkpt lat="45.74531" lon="4.3444">
        <ele>605.999</ele>
        <time>2018-06-04T15:07:15Z</time>
      </trkpt>
      <trkpt lat="45.74531" lon="4.34448">
        <ele>605.698</ele>
        <time>2018-06-04T15:07:20Z</time>
      </trkpt>
      <trkpt lat="45.74532" lon="4.34456">
        <ele>605.69</ele>
        <time>2018-06-04T15:07:26Z</time>
      </trkpt>
      <trkpt lat="45.74533" lon="4.34466">
        <ele>605.681</ele>
        <time>2018-06-04T15:07:32Z</time>
      </trkpt>
      <trkpt lat="45.74534" lon="4.34476">
        <ele>605.551</ele>
        <time>2018-06-04T15:07:38Z</time>
      </trkpt>
      <trkpt lat="45.74536" lon="4.34485">
        <ele>605.404</ele>
        <time>2018-06-04T15:07:44Z</time>
      </trkpt>
      <trkpt lat="45.74539" lon="4.34492">
        <ele>605.253</ele>
        <time>2018-06-04T15:07:50Z</time>
      </trkpt>
      <trkpt lat="45.74547" lon="4.3449">
        <ele>604.257</ele>
        <time>2018-06-04T15:07:57Z</time>
      </trkpt>
      <trkpt lat="45.74549" lon="4.3449">
        <ele>603.595</ele>
        <time>2018-06-04T15:08:02Z</time>
      </trkpt>
      <trkpt lat="45.74555" lon="4.34487">
        <ele>602.649</ele>
        <time>2018-06-04T15:08:08Z</time>
      </trkpt>
      <trkpt lat="45.74562" lon="4.34482">
        <ele>602.356</ele>
        <time>2018-06-04T15:08:14Z</time>
      </trkpt>
      <trkpt lat="45.74567" lon="4.34481">
        <ele>601.427</ele>
        <time>2018-06-04T15:08:20Z</time>
      </trkpt>
      <trkpt lat="45.74573" lon="4.3448">
        <ele>600.535</ele>
        <time>2018-06-04T15:08:26Z</time>
      </trkpt>
      <trkpt lat="45.7458" lon="4.34477">
        <ele>600.051</ele>
        <time>2018-06-04T15:08:32Z</time>
      </trkpt>
      <trkpt lat="45.74588" lon="4.34476">
        <ele>599.181</ele>
        <time>2018-06-04T15:08:38Z</time>
      </trkpt>
      <trkpt lat="45.74595" lon="4.34478">
        <ele>598.433</ele>
        <time>2018-06-04T15:08:43Z</time>
      </trkpt>
      <trkpt lat="45.74602" lon="4.34477">
        <ele>597.472</ele>
        <time>2018-06-04T15:08:49Z</time>
      </trkpt>
      <trkpt lat="45.74609" lon="4.34475">
        <ele>596.436</ele>
        <time>2018-06-04T15:08:54Z</time>
      </trkpt>
      <trkpt lat="45.74614" lon="4.34473">
        <ele>595.367</ele>
        <time>2018-06-04T15:09:00Z</time>
      </trkpt>
      <trkpt lat="45.74621" lon="4.34471">
        <ele>594.776</ele>
        <time>2018-06-04T15:09:06Z</time>
      </trkpt>
      <trkpt lat="45.74627" lon="4.3447">
        <ele>594.218</ele>
        <time>2018-06-04T15:09:11Z</time>
      </trkpt>
      <trkpt lat="45.74633" lon="4.3447">
        <ele>593.363</ele>
        <time>2018-06-04T15:09:17Z</time>
      </trkpt>
      <trkpt lat="45.74639" lon="4.34473">
        <ele>592.683</ele>
        <time>2018-06-04T15:09:22Z</time>
      </trkpt>
      <trkpt lat="45.74646" lon="4.34475">
        <ele>591.967</ele>
        <time>2018-06-04T15:09:28Z</time>
      </trkpt>
      <trkpt lat="45.74652" lon="4.34475">
        <ele>591.335</ele>
        <time>2018-06-04T15:09:34Z</time>
      </trkpt>
      <trkpt lat="45.74662" lon="4.34476">
        <ele>590.728</ele>
        <time>2018-06-04T15:09:40Z</time>
      </trkpt>
      <trkpt lat="45.74668" lon="4.34477">
        <ele>589.996</ele>
        <time>2018-06-04T15:09:45Z</time>
      </trkpt>
      <trkpt lat="45.74674" lon="4.34476">
        <ele>589.217</ele>
        <time>2018-06-04T15:09:51Z</time>
      </trkpt>
      <trkpt lat="45.7468" lon="4.34473">
        <ele>588.774</ele>
        <time>2018-06-04T15:09:57Z</time>
      </trkpt>
      <trkpt lat="45.74685" lon="4.34466">
        <ele>587.582</ele>
        <time>2018-06-04T15:10:03Z</time>
      </trkpt>
      <trkpt lat="45.74691" lon="4.34464">
        <ele>585.877</ele>
        <time>2018-06-04T15:10:09Z</time>
      </trkpt>
      <trkpt lat="45.74696" lon="4.34459">
        <ele>584.461</ele>
        <time>2018-06-04T15:10:15Z</time>
      </trkpt>
      <trkpt lat="45.74701" lon="4.34457">
        <ele>583.461</ele>
        <time>2018-06-04T15:10:20Z</time>
      </trkpt>
      <trkpt lat="45.7471" lon="4.34457">
        <ele>582.636</ele>
        <time>2018-06-04T15:10:26Z</time>
      </trkpt>
      <trkpt lat="45.74714" lon="4.34457">
        <ele>582.033</ele>
        <time>2018-06-04T15:10:31Z</time>
      </trkpt>
      <trkpt lat="45.7472" lon="4.34459">
        <ele>581.743</ele>
        <time>2018-06-04T15:10:37Z</time>
      </trkpt>
      <trkpt lat="45.74727" lon="4.34461">
        <ele>582.022</ele>
        <time>2018-06-04T15:10:42Z</time>
      </trkpt>
      <trkpt lat="45.74732" lon="4.34464">
        <ele>582.289</ele>
        <time>2018-06-04T15:10:47Z</time>
      </trkpt>
      <trkpt lat="45.74739" lon="4.34467">
        <ele>582.391</ele>
        <time>2018-06-04T15:10:53Z</time>
      </trkpt>
      <trkpt lat="45.74747" lon="4.3447">
        <ele>582.616</ele>
        <time>2018-06-04T15:10:59Z</time>
      </trkpt>
      <trkpt lat="45.7475" lon="4.34473">
        <ele>582.821</ele>
        <time>2018-06-04T15:11:05Z</time>
      </trkpt>
      <trkpt lat="45.7476" lon="4.34479">
        <ele>582.917</ele>
        <time>2018-06-04T15:11:10Z</time>
      </trkpt>
      <trkpt lat="45.74766" lon="4.34483">
        <ele>582.757</ele>
        <time>2018-06-04T15:11:15Z</time>
      </trkpt>
      <trkpt lat="45.74773" lon="4.34489">
        <ele>582.601</ele>
        <time>2018-06-04T15:11:21Z</time>
      </trkpt>
      <trkpt lat="45.74779" lon="4.3449">
        <ele>582.511</ele>
        <time>2018-06-04T15:11:27Z</time>
      </trkpt>
      <trkpt lat="45.74784" lon="4.34491">
        <ele>581.8</ele>
        <time>2018-06-04T15:11:32Z</time>
      </trkpt>
      <trkpt lat="45.74791" lon="4.34494">
        <ele>580.676</ele>
        <time>2018-06-04T15:11:38Z</time>
      </trkpt>
      <trkpt lat="45.74794" lon="4.34497">
        <ele>579.474</ele>
        <time>2018-06-04T15:11:43Z</time>
      </trkpt>
      <trkpt lat="45.748" lon="4.34501">
        <ele>578.252</ele>
        <time>2018-06-04T15:11:49Z</time>
      </trkpt>
      <trkpt lat="45.74811" lon="4.34501">
        <ele>577.485</ele>
        <time>2018-06-04T15:11:54Z</time>
      </trkpt>
      <trkpt lat="45.74823" lon="4.34502">
        <ele>576.833</ele>
        <time>2018-06-04T15:12:00Z</time>
      </trkpt>
      <trkpt lat="45.74831" lon="4.345">
        <ele>576.53</ele>
        <time>2018-06-04T15:12:06Z</time>
      </trkpt>
      <trkpt lat="45.74835" lon="4.34498">
        <ele>576.283</ele>
        <time>2018-06-04T15:12:11Z</time>
      </trkpt>
      <trkpt lat="45.74839" lon="4.34499">
        <ele>576.261</ele>
        <time>2018-06-04T15:12:17Z</time>
      </trkpt>
      <trkpt lat="45.74849" lon="4.34496">
        <ele>576.422</ele>
        <time>2018-06-04T15:12:22Z</time>
      </trkpt>
      <trkpt lat="45.74853" lon="4.34494">
        <ele>576.465</ele>
        <time>2018-06-04T15:12:28Z</time>
      </trkpt>
      <trkpt lat="45.74861" lon="4.34496">
        <ele>576.034</ele>
        <time>2018-06-04T15:12:33Z</time>
      </trkpt>
      <trkpt lat="45.74867" lon="4.34499">
        <ele>575.679</ele>
        <time>2018-06-04T15:12:39Z</time>
      </trkpt>
      <trkpt lat="45.74877" lon="4.34502">
        <ele>575.377</ele>
        <time>2018-06-04T15:12:45Z</time>
      </trkpt>
      <trkpt lat="45.74886" lon="4.34503">
        <ele>575.056</ele>
        <time>2018-06-04T15:12:50Z</time>
      </trkpt>
      <trkpt lat="45.74893" lon="4.34504">
        <ele>575.083</ele>
        <time>2018-06-04T15:12:56Z</time>
      </trkpt>
      <trkpt lat="45.74901" lon="4.34505">
        <ele>575.002</ele>
        <time>2018-06-04T15:13:02Z</time>
      </trkpt>
      <trkpt lat="45.74909" lon="4.34508">
        <ele>574.692</ele>
        <time>2018-06-04T15:13:08Z</time>
      </trkpt>
      <trkpt lat="45.74917" lon="4.3451">
        <ele>574.661</ele>
        <time>2018-06-04T15:13:13Z</time>
      </trkpt>
      <trkpt lat="45.74924" lon="4.34514">
        <ele>574.406</ele>
        <time>2018-06-04T15:13:19Z</time>
      </trkpt>
      <trkpt lat="45.74929" lon="4.34516">
        <ele>573.862</ele>
        <time>2018-06-04T15:13:24Z</time>
      </trkpt>
      <trkpt lat="45.74937" lon="4.34521">
        <ele>573.401</ele>
        <time>2018-06-04T15:13:30Z</time>
      </trkpt>
      <trkpt lat="45.74943" lon="4.34524">
        <ele>572.891</ele>
        <time>2018-06-04T15:13:36Z</time>
      </trkpt>
      <trkpt lat="45.74949" lon="4.34524">
        <ele>572.323</ele>
        <time>2018-06-04T15:13:41Z</time>
      </trkpt>
      <trkpt lat="45.74957" lon="4.34522">
        <ele>571.814</ele>
        <time>2018-06-04T15:13:47Z</time>
      </trkpt>
      <trkpt lat="45.74964" lon="4.34524">
        <ele>571.622</ele>
        <time>2018-06-04T15:13:52Z</time>
      </trkpt>
      <trkpt lat="45.74969" lon="4.34519">
        <ele>571.02</ele>
        <time>2018-06-04T15:13:58Z</time>
      </trkpt>
      <trkpt lat="45.74973" lon="4.34512">
        <ele>570.579</ele>
        <time>2018-06-04T15:14:03Z</time>
      </trkpt>
      <trkpt lat="45.7498" lon="4.34502">
        <ele>570.451</ele>
        <time>2018-06-04T15:14:09Z</time>
      </trkpt>
      <trkpt lat="45.74986" lon="4.34493">
        <ele>570.683</ele>
        <time>2018-06-04T15:14:14Z</time>
      </trkpt>
      <trkpt lat="45.74991" lon="4.34486">
        <ele>571.06</ele>
        <time>2018-06-04T15:14:20Z</time>
      </trkpt>
      <trkpt lat="45.74995" lon="4.34482">
        <ele>571.236</ele>
        <time>2018-06-04T15:14:25Z</time>
      </trkpt>
      <trkpt lat="45.75001" lon="4.34474">
        <ele>571.64</ele>
        <time>2018-06-04T15:14:31Z</time>
      </trkpt>
      <trkpt lat="45.75008" lon="4.34468">
        <ele>571.707</ele>
        <time>2018-06-04T15:14:37Z</time>
      </trkpt>
      <trkpt lat="45.75013" lon="4.34462">
        <ele>571.608</ele>
        <time>2018-06-04T15:14:42Z</time>
      </trkpt>
      <trkpt lat="45.75015" lon="4.34456">
        <ele>571.771</ele>
        <time>2018-06-04T15:14:49Z</time>
      </trkpt>
      <trkpt lat="45.75016" lon="4.34454">
        <ele>571.922</ele>
        <time>2018-06-04T15:14:54Z</time>
      </trkpt>
      <trkpt lat="45.75015" lon="4.34453">
        <ele>571.995</ele>
        <time>2018-06-04T15:15:00Z</time>
      </trkpt>
      <trkpt lat="45.75015" lon="4.34452">
        <ele>571.872</ele>
        <time>2018-06-04T15:15:05Z</time>
      </trkpt>
      <trkpt lat="45.75017" lon="4.34451">
        <ele>571.451</ele>
        <time>2018-06-04T15:15:10Z</time>
      </trkpt>
      <trkpt lat="45.75018" lon="4.34452">
        <ele>571.084</ele>
        <time>2018-06-04T15:15:16Z</time>
      </trkpt>
      <trkpt lat="45.75017" lon="4.34453">
        <ele>571.211</ele>
        <time>2018-06-04T15:15:21Z</time>
      </trkpt>
      <trkpt lat="45.75019" lon="4.34454">
        <ele>571.533</ele>
        <time>2018-06-04T15:15:27Z</time>
      </trkpt>
      <trkpt lat="45.75019" lon="4.34454">
        <ele>572.219</ele>
        <time>2018-06-04T15:15:32Z</time>
      </trkpt>
      <trkpt lat="45.75018" lon="4.34454">
        <ele>572.229</ele>
        <time>2018-06-04T15:15:38Z</time>
      </trkpt>
      <trkpt lat="45.75018" lon="4.34454">
        <ele>572.209</ele>
        <time>2018-06-04T15:15:44Z</time>
      </trkpt>
      <trkpt lat="45.7502" lon="4.34453">
        <ele>572.045</ele>
        <time>2018-06-04T15:15:50Z</time>
      </trkpt>
      <trkpt lat="45.7502" lon="4.34453">
        <ele>571.978</ele>
        <time>2018-06-04T15:15:55Z</time>
      </trkpt>
      <trkpt lat="45.7502" lon="4.34453">
        <ele>571.765</ele>
        <time>2018-06-04T15:16:01Z</time>
      </trkpt>
      <trkpt lat="45.7502" lon="4.34452">
        <ele>571.067</ele>
        <time>2018-06-04T15:16:06Z</time>
      </trkpt>
      <trkpt lat="45.7502" lon="4.34452">
        <ele>570.622</ele>
        <time>2018-06-04T15:16:12Z</time>
      </trkpt>
      <trkpt lat="45.7502" lon="4.34452">
        <ele>570.615</ele>
        <time>2018-06-04T15:16:17Z</time>
      </trkpt>
      <trkpt lat="45.7502" lon="4.34452">
        <ele>570.729</ele>
        <time>2018-06-04T15:16:23Z</time>
      </trkpt>
      <trkpt lat="45.7502" lon="4.34452">
        <ele>570.807</ele>
        <time>2018-06-04T15:16:29Z</time>
      </trkpt>
      <trkpt lat="45.7502" lon="4.34452">
        <ele>570.831</ele>
        <time>2018-06-04T15:16:34Z</time>
      </trkpt>
      <trkpt lat="45.7502" lon="4.34452">
        <ele>570.957</ele>
        <time>2018-06-04T15:16:39Z</time>
      </trkpt>
      <trkpt lat="45.7502" lon="4.34452">
        <ele>571.066</ele>
        <time>2018-06-04T15:16:44Z</time>
      </trkpt>
      <trkpt lat="45.7502" lon="4.34452">
        <ele>571.411</ele>
        <time>2018-06-04T15:16:50Z</time>
      </trkpt>
      <trkpt lat="45.7502" lon="4.34453">
        <ele>571.766</ele>
        <time>2018-06-04T15:16:56Z</time>
      </trkpt>
      <trkpt lat="45.7502" lon="4.34454">
        <ele>571.92</ele>
        <time>2018-06-04T15:17:01Z</time>
      </trkpt>
      <trkpt lat="45.75022" lon="4.34454">
        <ele>571.637</ele>
        <time>2018-06-04T15:17:07Z</time>
      </trkpt>
      <trkpt lat="45.75022" lon="4.34452">
        <ele>571.26</ele>
        <time>2018-06-04T15:17:13Z</time>
      </trkpt>
      <trkpt lat="45.75022" lon="4.34452">
        <ele>571.376</ele>
        <time>2018-06-04T15:17:18Z</time>
      </trkpt>
      <trkpt lat="45.75022" lon="4.34452">
        <ele>571.691</ele>
        <time>2018-06-04T15:17:23Z</time>
      </trkpt>
      <trkpt lat="45.75022" lon="4.34452">
        <ele>571.846</ele>
        <time>2018-06-04T15:17:29Z</time>
      </trkpt>
      <trkpt lat="45.75022" lon="4.34452">
        <ele>572.604</ele>
        <time>2018-06-04T15:17:35Z</time>
      </trkpt>
      <trkpt lat="45.75022" lon="4.34452">
        <ele>574.248</ele>
        <time>2018-06-04T15:17:41Z</time>
      </trkpt>
      <trkpt lat="45.75029" lon="4.34447">
        <ele>575.216</ele>
        <time>2018-06-04T15:17:47Z</time>
      </trkpt>
      <trkpt lat="45.75031" lon="4.34445">
        <ele>575.469</ele>
        <time>2018-06-04T15:17:52Z</time>
      </trkpt>
      <trkpt lat="45.75031" lon="4.34444">
        <ele>575.605</ele>
        <time>2018-06-04T15:17:58Z</time>
      </trkpt>
      <trkpt lat="45.75031" lon="4.34444">
        <ele>575.533</ele>
        <time>2018-06-04T15:18:03Z</time>
      </trkpt>
      <trkpt lat="45.75031" lon="4.34444">
        <ele>575.203</ele>
        <time>2018-06-04T15:18:08Z</time>
      </trkpt>
      <trkpt lat="45.75034" lon="4.34437">
        <ele>574.812</ele>
        <time>2018-06-04T15:18:14Z</time>
      </trkpt>
      <trkpt lat="45.7504" lon="4.3443">
        <ele>573.879</ele>
        <time>2018-06-04T15:18:20Z</time>
      </trkpt>
      <trkpt lat="45.75046" lon="4.34427">
        <ele>573.117</ele>
        <time>2018-06-04T15:18:26Z</time>
      </trkpt>
      <trkpt lat="45.75051" lon="4.34425">
        <ele>572.474</ele>
        <time>2018-06-04T15:18:32Z</time>
      </trkpt>
      <trkpt lat="45.75058" lon="4.34423">
        <ele>571.927</ele>
        <time>2018-06-04T15:18:37Z</time>
      </trkpt>
      <trkpt lat="45.75065" lon="4.34426">
        <ele>570.764</ele>
        <time>2018-06-04T15:18:42Z</time>
      </trkpt>
      <trkpt lat="45.7507" lon="4.34428">
        <ele>568.92</ele>
        <time>2018-06-04T15:18:48Z</time>
      </trkpt>
      <trkpt lat="45.75075" lon="4.34432">
        <ele>567.133</ele>
        <time>2018-06-04T15:18:54Z</time>
      </trkpt>
      <trkpt lat="45.75078" lon="4.34437">
        <ele>565.749</ele>
        <time>2018-06-04T15:19:00Z</time>
      </trkpt>
      <trkpt lat="45.75084" lon="4.34443">
        <ele>564.587</ele>
        <time>2018-06-04T15:19:06Z</time>
      </trkpt>
      <trkpt lat="45.75092" lon="4.34455">
        <ele>563.235</ele>
        <time>2018-06-04T15:19:12Z</time>
      </trkpt>
      <trkpt lat="45.75098" lon="4.34461">
        <ele>562.47</ele>
        <time>2018-06-04T15:19:17Z</time>
      </trkpt>
      <trkpt lat="45.75101" lon="4.34465">
        <ele>562.112</ele>
        <time>2018-06-04T15:19:23Z</time>
      </trkpt>
      <trkpt lat="45.75107" lon="4.34469">
        <ele>561.809</ele>
        <time>2018-06-04T15:19:29Z</time>
      </trkpt>
      <trkpt lat="45.75114" lon="4.34476">
        <ele>561.885</ele>
        <time>2018-06-04T15:19:34Z</time>
      </trkpt>
      <trkpt lat="45.75125" lon="4.34483">
        <ele>561.762</ele>
        <time>2018-06-04T15:19:40Z</time>
      </trkpt>
      <trkpt lat="45.75132" lon="4.34489">
        <ele>561.141</ele>
        <time>2018-06-04T15:19:45Z</time>
      </trkpt>
      <trkpt lat="45.75136" lon="4.34491">
        <ele>560.4</ele>
        <time>2018-06-04T15:19:50Z</time>
      </trkpt>
      <trkpt lat="45.75142" lon="4.34491">
        <ele>559.877</ele>
        <time>2018-06-04T15:19:56Z</time>
      </trkpt>
      <trkpt lat="45.75149" lon="4.3449">
        <ele>559.199</ele>
        <time>2018-06-04T15:20:02Z</time>
      </trkpt>
      <trkpt lat="45.75154" lon="4.3449">
        <ele>558.293</ele>
        <time>2018-06-04T15:20:07Z</time>
      </trkpt>
      <trkpt lat="45.75162" lon="4.34488">
        <ele>557.554</ele>
        <time>2018-06-04T15:20:12Z</time>
      </trkpt>
      <trkpt lat="45.75169" lon="4.34482">
        <ele>556.608</ele>
        <time>2018-06-04T15:20:18Z</time>
      </trkpt>
      <trkpt lat="45.75176" lon="4.34481">
        <ele>555.559</ele>
        <time>2018-06-04T15:20:24Z</time>
      </trkpt>
      <trkpt lat="45.75178" lon="4.3448">
        <ele>554.778</ele>
        <time>2018-06-04T15:20:30Z</time>
      </trkpt>
      <trkpt lat="45.75178" lon="4.34478">
        <ele>554.158</ele>
        <time>2018-06-04T15:20:35Z</time>
      </trkpt>
      <trkpt lat="45.75182" lon="4.34477">
        <ele>553.286</ele>
        <time>2018-06-04T15:20:41Z</time>
      </trkpt>
      <trkpt lat="45.75189" lon="4.34476">
        <ele>551.265</ele>
        <time>2018-06-04T15:20:47Z</time>
      </trkpt>
      <trkpt lat="45.75197" lon="4.34486">
        <ele>549.288</ele>
        <time>2018-06-04T15:20:53Z</time>
      </trkpt>
      <trkpt lat="45.75198" lon="4.34486">
        <ele>547.21</ele>
        <time>2018-06-04T15:20:59Z</time>
      </trkpt>
      <trkpt lat="45.75202" lon="4.34482">
        <ele>545.225</ele>
        <time>2018-06-04T15:21:05Z</time>
      </trkpt>
      <trkpt lat="45.75206" lon="4.34483">
        <ele>543.355</ele>
        <time>2018-06-04T15:21:11Z</time>
      </trkpt>
      <trkpt lat="45.75207" lon="4.34484">
        <ele>541.951</ele>
        <time>2018-06-04T15:21:16Z</time>
      </trkpt>
      <trkpt lat="45.75207" lon="4.34485">
        <ele>539.707</ele>
        <time>2018-06-04T15:21:22Z</time>
      </trkpt>
      <trkpt lat="45.7521" lon="4.3448">
        <ele>537.417</ele>
        <time>2018-06-04T15:21:27Z</time>
      </trkpt>
      <trkpt lat="45.75212" lon="4.3448">
        <ele>536.295</ele>
        <time>2018-06-04T15:21:32Z</time>
      </trkpt>
      <trkpt lat="45.75216" lon="4.34483">
        <ele>535.505</ele>
        <time>2018-06-04T15:21:37Z</time>
      </trkpt>
      <trkpt lat="45.75222" lon="4.34486">
        <ele>535.975</ele>
        <time>2018-06-04T15:21:43Z</time>
      </trkpt>
      <trkpt lat="45.75226" lon="4.34488">
        <ele>536.708</ele>
        <time>2018-06-04T15:21:48Z</time>
      </trkpt>
      <trkpt lat="45.7523" lon="4.34489">
        <ele>537.751</ele>
        <time>2018-06-04T15:21:53Z</time>
      </trkpt>
      <trkpt lat="45.75234" lon="4.34489">
        <ele>539.862</ele>
        <time>2018-06-04T15:21:59Z</time>
      </trkpt>
      <trkpt lat="45.7524" lon="4.34487">
        <ele>541.592</ele>
        <time>2018-06-04T15:22:04Z</time>
      </trkpt>
      <trkpt lat="45.75246" lon="4.34485">
        <ele>543.095</ele>
        <time>2018-06-04T15:22:10Z</time>
      </trkpt>
      <trkpt lat="45.7525" lon="4.34484">
        <ele>543.829</ele>
        <time>2018-06-04T15:22:16Z</time>
      </trkpt>
      <trkpt lat="45.75254" lon="4.34483">
        <ele>543.971</ele>
        <time>2018-06-04T15:22:22Z</time>
      </trkpt>
      <trkpt lat="45.7526" lon="4.34481">
        <ele>543.624</ele>
        <time>2018-06-04T15:22:28Z</time>
      </trkpt>
      <trkpt lat="45.75266" lon="4.3448">
        <ele>543.736</ele>
        <time>2018-06-04T15:22:34Z</time>
      </trkpt>
      <trkpt lat="45.75272" lon="4.3448">
        <ele>544.008</ele>
        <time>2018-06-04T15:22:40Z</time>
      </trkpt>
      <trkpt lat="45.75279" lon="4.34476">
        <ele>544.664</ele>
        <time>2018-06-04T15:22:46Z</time>
      </trkpt>
      <trkpt lat="45.75284" lon="4.34475">
        <ele>545.373</ele>
        <time>2018-06-04T15:22:51Z</time>
      </trkpt>
      <trkpt lat="45.75289" lon="4.34473">
        <ele>545.796</ele>
        <time>2018-06-04T15:22:56Z</time>
      </trkpt>
      <trkpt lat="45.75297" lon="4.34474">
        <ele>546.417</ele>
        <time>2018-06-04T15:23:02Z</time>
      </trkpt>
      <trkpt lat="45.75303" lon="4.34471">
        <ele>547.5</ele>
        <time>2018-06-04T15:23:08Z</time>
      </trkpt>
      <trkpt lat="45.75311" lon="4.34467">
        <ele>548.655</ele>
        <time>2018-06-04T15:23:14Z</time>
      </trkpt>
      <trkpt lat="45.75314" lon="4.34467">
        <ele>550.209</ele>
        <time>2018-06-04T15:23:19Z</time>
      </trkpt>
      <trkpt lat="45.75315" lon="4.34465">
        <ele>552.576</ele>
        <time>2018-06-04T15:23:25Z</time>
      </trkpt>
      <trkpt lat="45.75318" lon="4.34463">
        <ele>554.553</ele>
        <time>2018-06-04T15:23:31Z</time>
      </trkpt>
      <trkpt lat="45.75321" lon="4.34461">
        <ele>555.527</ele>
        <time>2018-06-04T15:23:36Z</time>
      </trkpt>
      <trkpt lat="45.75327" lon="4.34456">
        <ele>556.726</ele>
        <time>2018-06-04T15:23:42Z</time>
      </trkpt>
      <trkpt lat="45.75332" lon="4.34454">
        <ele>557.316</ele>
        <time>2018-06-04T15:23:48Z</time>
      </trkpt>
      <trkpt lat="45.75336" lon="4.34451">
        <ele>558.122</ele>
        <time>2018-06-04T15:23:54Z</time>
      </trkpt>
      <trkpt lat="45.75339" lon="4.34449">
        <ele>559.262</ele>
        <time>2018-06-04T15:24:00Z</time>
      </trkpt>
      <trkpt lat="45.75346" lon="4.34447">
        <ele>560.243</ele>
        <time>2018-06-04T15:24:06Z</time>
      </trkpt>
      <trkpt lat="45.75348" lon="4.34446">
        <ele>561.312</ele>
        <time>2018-06-04T15:24:11Z</time>
      </trkpt>
      <trkpt lat="45.75357" lon="4.34445">
        <ele>562.691</ele>
        <time>2018-06-04T15:24:17Z</time>
      </trkpt>
      <trkpt lat="45.75363" lon="4.34445">
        <ele>563.748</ele>
        <time>2018-06-04T15:24:22Z</time>
      </trkpt>
      <trkpt lat="45.75368" lon="4.34444">
        <ele>564.773</ele>
        <time>2018-06-04T15:24:28Z</time>
      </trkpt>
      <trkpt lat="45.75373" lon="4.34443">
        <ele>565.88</ele>
        <time>2018-06-04T15:24:34Z</time>
      </trkpt>
      <trkpt lat="45.75376" lon="4.34443">
        <ele>566.534</ele>
        <time>2018-06-04T15:24:39Z</time>
      </trkpt>
      <trkpt lat="45.75384" lon="4.34445">
        <ele>567.037</ele>
        <time>2018-06-04T15:24:45Z</time>
      </trkpt>
      <trkpt lat="45.75385" lon="4.34444">
        <ele>567.226</ele>
        <time>2018-06-04T15:24:51Z</time>
      </trkpt>
      <trkpt lat="45.75389" lon="4.34445">
        <ele>567.511</ele>
        <time>2018-06-04T15:24:56Z</time>
      </trkpt>
      <trkpt lat="45.75394" lon="4.34445">
        <ele>567.763</ele>
        <time>2018-06-04T15:25:02Z</time>
      </trkpt>
      <trkpt lat="45.75399" lon="4.34448">
        <ele>567.579</ele>
        <time>2018-06-04T15:25:08Z</time>
      </trkpt>
      <trkpt lat="45.75403" lon="4.3445">
        <ele>567.285</ele>
        <time>2018-06-04T15:25:14Z</time>
      </trkpt>
      <trkpt lat="45.75407" lon="4.34451">
        <ele>567.146</ele>
        <time>2018-06-04T15:25:19Z</time>
      </trkpt>
      <trkpt lat="45.75412" lon="4.34453">
        <ele>566.852</ele>
        <time>2018-06-04T15:25:24Z</time>
      </trkpt>
      <trkpt lat="45.75417" lon="4.34454">
        <ele>566.798</ele>
        <time>2018-06-04T15:25:30Z</time>
      </trkpt>
      <trkpt lat="45.75419" lon="4.3445">
        <ele>567.216</ele>
        <time>2018-06-04T15:25:35Z</time>
      </trkpt>
      <trkpt lat="45.75419" lon="4.3445">
        <ele>567.583</ele>
        <time>2018-06-04T15:25:40Z</time>
      </trkpt>
      <trkpt lat="45.7542" lon="4.34448">
        <ele>567.692</ele>
        <time>2018-06-04T15:25:46Z</time>
      </trkpt>
    </trkseg>
  </trk>
</gpx>